[[{"header":{"parameterUnit":"m.s-1","parameterCategory":1,"la1":31.0,"la2":29.5877,"lo1":-88.7671,"lo2":-86.6584,"dy":0.0162,"dx":0.0185,"nx":115,"ny":88,"refTime":"2023-07-22T18:00:00:Z","depth":0,"parameterNumber":2,"parameterNumberName":"U-component_of_WINDS"},"data":[0.0,0.0,0.0,0.0,0.0,0.0,0.0,0.0,0.0,0.0,0.0,0.0,0.0,0.0,0.0,0.0,0.0,0.0,0.0,0.0,0.0,0.0,0.0,0.0,0.0,0.0,0.0,0.0,0.0,0.0,0.0,0.0,0.0,0.0,0.0,0.0,0.0,0.0,0.0,0.0,0.0,0.0,0.0,0.0,0.0,0.0,0.0,0.0,0.0,0.0,0.0,0.0,0.0,0.0,0.0,0.0,0.0,0.0,0.0,0.0,0.0,0.0,0.0,0.0,0.0,0.0,0.0,0.0,0.0,0.0,0.0,0.0,0.0,0.0,0.0,0.0,0.0,0.0,0.0,0.0,0.0,0.0,0.0,0.0,0.0,0.0,0.0,0.0,0.0,0.0,0.0,0.0,0.0,0.0,0.0,0.0,0.0,0.0,0.0,0.0,0.0,0.0,0.0,0.0,0.0,0.0,0.0,0.0,0.0,0.0,0.0,0.0,0.0,0.0,0.0,0.0,0.0,0.0,0.0,0.0,0.0,0.0,0.0,0.0,0.0,0.0,0.0,0.0,0.0,0.0,0.0,0.0,0.0,0.0,0.0,0.0,0.0,0.0,0.0,0.0,0.0,0.0,0.0,0.0,0.0,0.0,0.0,0.0,0.0,0.0,0.0,0.0,0.0,0.0,0.0,0.0,0.0,0.0,0.0,0.0,0.0,0.0,0.0,0.0,0.0,0.0,0.0,0.0,0.0,0.0,0.0,0.0,0.0,0.0,0.0,0.0,0.0,0.0,0.0,0.0,0.0,0.0,0.0,0.0,0.0,0.0,0.0,0.0,0.0,0.0,0.0,0.0,0.0,0.0,0.0,0.0,0.0,0.0,0.0,0.0,0.0,0.0,0.0,0.0,0.0,0.0,0.0,0.0,0.0,0.0,0.0,0.0,0.0,0.0,0.0,0.0,0.0,0.0,0.0,0.0,0.0,0.0,0.0,0.0,0.0,0.0,0.0,0.0,0.0,0.0,0.0,0.0,0.0,0.0,0.0,0.0,0.0,0.0,0.0,0.0,0.0,0.0,0.0,0.0,0.0,0.0,0.0,0.0,0.0,0.0,0.0,0.0,0.0,0.0,0.0,0.0,0.0,0.0,0.0,0.0,0.0,0.0,0.0,0.0,0.0,0.0,0.0,0.0,0.0,0.0,0.0,0.0,0.0,0.0,0.0,0.0,0.0,0.0,0.0,0.0,0.0,0.0,0.0,0.0,0.0,0.0,0.0,0.0,0.0,0.0,0.0,0.0,0.0,0.0,0.0,0.0,0.0,0.0,0.0,0.0,0.0,0.0,0.0,0.0,0.0,0.0,0.0,0.0,0.0,0.0,0.0,0.0,0.0,0.0,0.0,0.0,0.0,0.0,0.0,0.0,0.0,0.0,0.0,0.0,0.0,0.0,0.0,0.0,0.0,0.0,0.0,0.0,0.0,0.0,0.0,0.0,0.0,0.0,0.0,0.0,0.0,0.0,0.0,0.0,0.0,0.0,0.0,0.0,0.0,0.0,0.0,0.0,0.0,0.0,0.0,0.0,0.0,0.0,0.0,0.0,0.0,0.0,0.0,0.0,0.0,0.0,0.0,0.0,0.0,0.0,0.0,0.0,0.0,0.0,0.0,0.0,0.0,0.0,0.0,0.0,0.0,0.0,0.0,0.0,0.0,0.0,0.0,0.0,0.0,0.0,0.0,0.0,0.0,0.0,0.0,0.0,0.0,0.0,0.0,0.0,0.0,0.0,0.0,0.0,0.0,0.0,0.0,0.0,0.0,0.0,0.0,0.0,0.0,0.0,0.0,0.0,0.0,0.0,0.0,0.0,0.0,0.0,0.0,0.0,0.0,0.0,0.0,0.0,0.0,0.0,0.0,0.0,0.0,0.0,0.0,0.0,0.0,0.0,0.0,0.0,0.0,0.0,0.0,0.0,0.0,0.0,0.0,0.0,0.0,0.0,0.0,0.0,0.0,0.0,0.0,0.0,0.0,0.0,0.0,0.0,0.0,0.0,0.0,0.0,0.0,0.0,0.0,0.0,0.0,0.0,0.0,0.0,0.0,0.0,0.0,0.0,0.0,0.0,0.0,0.0,0.0,0.0,0.0,0.0,0.0,0.0,0.0,0.0,0.0,0.0,0.0,0.0,0.0,0.0,0.0,0.0,0.0,0.0,0.0,0.0,0.0,0.0,0.0,0.0,0.0,0.0,0.0,0.0,0.0,0.0,0.0,0.0,0.0,0.0,0.0,0.0,0.0,0.0,0.0,0.0,0.0,0.0,0.0,0.0,0.0,0.0,0.0,0.0,0.0,0.0,0.0,0.0,0.0,0.0,0.0,0.0,0.0,0.0,0.0,0.0,0.0,0.0,0.0,0.0,0.0,0.0,0.0,0.0,0.0,0.0,0.0,0.0,0.0,0.0,0.0,0.0,0.0,0.0,0.0,0.0,0.0,0.0,0.0,0.0,0.0,0.0,0.0,0.0,0.0,0.0,0.0,0.0,0.0,0.0,0.0,0.0,0.0,0.0,0.0,0.0,0.0,0.0,0.0,0.0,0.0,0.0,0.0,0.0,0.0,0.0,0.0,0.0,0.0,0.0,0.0,0.0,0.0,0.0,0.0,0.0,0.0,0.0,0.0,0.0,0.0,0.0,0.0,0.0,0.0,0.0,0.0,0.0,0.0,0.0,0.0,0.0,0.0,0.0,0.0,0.0,0.0,0.0,0.0,0.0,0.0,0.0,0.0,0.0,0.0,0.0,0.0,0.0,0.0,0.0,0.0,0.0,0.0,0.0,0.0,0.0,0.0,0.0,0.0,0.0,0.0,0.0,0.0,0.0,0.0,0.0,0.0,0.0,0.0,0.0,0.0,0.0,0.0,0.0,0.0,0.0,0.0,0.0,0.0,0.0,0.0,0.0,0.0,0.0,0.0,0.0,0.0,0.0,0.0,0.0,0.0,0.0,0.0,0.0,0.0,0.0,0.0,0.0,0.0,0.0,0.0,0.0,0.0,0.0,0.0,0.0,0.0,0.0,0.0,0.0,0.0,0.0,0.0,0.0,0.0,0.0,0.0,0.0,0.0,0.0,0.0,0.0,0.0,0.0,0.0,0.0,0.0,0.0,0.0,0.0,0.0,0.0,0.0,0.0,0.0,0.0,0.0,0.0,0.0,0.0,0.0,0.0,0.0,0.0,0.0,0.0,0.0,0.0,0.0,0.0,0.0,0.0,0.0,0.0,0.0,0.0,0.0,0.0,0.0,0.0,0.0,0.0,0.0,0.0,0.0,0.0,0.0,0.0,0.0,0.0,0.0,0.0,0.0,0.0,0.0,0.0,0.0,0.0,0.0,0.0,0.0,0.0,0.0,0.0,0.0,0.0,0.0,0.0,0.0,0.0,0.0,0.0,0.0,0.0,0.0,0.0,0.0,0.0,0.0,0.0,0.0,0.0,0.0,0.0,0.0,0.0,0.0,0.0,0.0,0.0,0.0,0.0,0.0,0.0,0.0,0.0,0.0,0.0,0.0,0.0,0.0,0.0,0.0,0.0,0.0,0.0,0.0,0.0,0.0,0.0,0.0,0.0,0.0,0.0,0.0,0.0,0.0,0.0,0.0,0.0,0.0,0.0,0.0,0.0,0.0,0.0,0.0,0.0,0.0,0.0,0.0,0.0,0.0,0.0,0.0,0.0,0.0,0.0,0.0,0.0,0.0,0.0,0.0,0.0,0.0,0.0,0.0,0.0,0.0,0.0,0.0,0.0,0.0,0.0,0.0,0.0,0.0,0.0,0.0,0.0,0.0,0.0,0.0,0.0,0.0,0.0,0.0,0.0,0.0,0.0,0.0,0.0,0.0,0.0,0.0,0.0,0.0,0.0,0.0,0.0,0.0,0.0,0.0,0.0,0.0,0.0,0.0,0.0,0.0,0.0,0.0,0.0,0.0,0.0,0.0,0.0,0.0,0.0,0.0,0.0,0.0,0.0,0.0,0.0,0.0,0.0,0.0,0.0,0.0,0.0,0.0,0.0,0.0,0.0,0.0,0.0,0.0,0.0,0.0,0.0,0.0,0.0,0.0,0.0,0.0,0.0,0.0,0.0,0.0,0.0,0.0,0.0,0.0,0.0,0.0,0.0,0.0,0.0,0.0,0.0,0.0,0.0,0.0,0.0,0.0,0.0,0.0,0.0,0.0,0.0,0.0,0.0,0.0,0.0,0.0,0.0,0.0,0.0,0.0,0.0,0.0,0.0,-2.2026,0.0,0.0,0.0,0.0,0.0,0.0,0.0,0.0,0.0,0.0,0.0,0.0,0.0,0.0,0.0,0.0,0.0,0.0,0.0,0.0,0.0,0.0,0.0,0.0,0.0,0.0,0.0,0.0,0.0,0.0,0.0,0.0,0.0,0.0,0.0,0.0,0.0,0.0,0.0,0.0,0.0,0.0,0.0,0.0,0.0,0.0,0.0,0.0,0.0,0.0,0.0,0.0,0.0,0.0,0.0,0.0,0.0,0.0,0.0,0.0,0.0,0.0,0.0,0.0,0.0,0.0,0.0,0.0,0.0,0.0,0.0,0.0,0.0,0.0,0.0,0.0,0.0,0.0,0.0,0.0,0.0,0.0,0.0,0.0,0.0,0.0,0.0,0.0,0.0,0.0,0.0,0.0,0.0,0.0,0.0,0.0,0.0,0.0,0.0,0.0,0.0,0.0,0.0,0.0,0.0,0.0,0.0,0.0,0.0,0.0,-2.1957,-2.2653,-2.2816,-2.2894,-2.2894,0.0,0.0,0.0,0.0,0.0,0.0,0.0,0.0,0.0,0.0,0.0,0.0,0.0,0.0,0.0,0.0,0.0,0.0,0.0,0.0,0.0,0.0,0.0,0.0,0.0,0.0,0.0,0.0,0.0,0.0,0.0,0.0,0.0,0.0,0.0,0.0,0.0,0.0,0.0,0.0,0.0,0.0,0.0,0.0,0.0,0.0,0.0,0.0,0.0,0.0,0.0,0.0,0.0,0.0,0.0,0.0,0.0,0.0,0.0,0.0,0.0,0.0,0.0,0.0,0.0,0.0,0.0,0.0,0.0,0.0,0.0,0.0,0.0,0.0,0.0,0.0,0.0,0.0,0.0,0.0,0.0,0.0,0.0,0.0,0.0,0.0,0.0,0.0,0.0,0.0,0.0,0.0,0.0,0.0,0.0,0.0,0.0,0.0,0.0,0.0,0.0,0.0,0.0,0.0,0.0,0.0,0.0,0.0,0.0,0.0,0.0,0.0,-2.3811,-2.3865,-2.3834,0.0,0.0,0.0,0.0,0.0,0.0,0.0,0.0,0.0,0.0,0.0,0.0,0.0,0.0,0.0,0.0,0.0,0.0,0.0,0.0,0.0,0.0,0.0,0.0,0.0,0.0,0.0,0.0,0.0,0.0,0.0,0.0,0.0,0.0,0.0,0.0,0.0,0.0,0.0,0.0,0.0,0.0,0.0,0.0,0.0,0.0,0.0,0.0,0.0,0.0,0.0,0.0,0.0,0.0,0.0,0.0,0.0,0.0,0.0,0.0,0.0,0.0,0.0,0.0,0.0,0.0,0.0,0.0,0.0,0.0,0.0,0.0,0.0,0.0,0.0,0.0,0.0,0.0,0.0,0.0,0.0,0.0,0.0,0.0,0.0,0.0,0.0,0.0,0.0,0.0,0.0,0.0,0.0,0.0,0.0,0.0,0.0,0.0,0.0,0.0,0.0,0.0,0.0,0.0,0.0,0.0,0.0,0.0,0.0,0.0,-2.4356,-2.4987,-2.4996,0.0,-2.4934,0.0,0.0,0.0,0.0,0.0,0.0,0.0,0.0,0.0,0.0,0.0,0.0,0.0,0.0,0.0,0.0,0.0,0.0,0.0,0.0,0.0,0.0,0.0,0.0,0.0,0.0,0.0,0.0,0.0,0.0,0.0,0.0,0.0,0.0,0.0,0.0,0.0,0.0,0.0,0.0,0.0,0.0,0.0,0.0,0.0,0.0,0.0,0.0,0.0,0.0,0.0,0.0,0.0,0.0,0.0,0.0,0.0,0.0,0.0,0.0,0.0,0.0,0.0,0.0,0.0,0.0,0.0,0.0,0.0,0.0,0.0,0.0,0.0,0.0,0.0,0.0,0.0,0.0,0.0,0.0,0.0,0.0,0.0,0.0,0.0,0.0,0.0,0.0,0.0,0.0,0.0,0.0,0.0,0.0,0.0,0.0,0.0,0.0,0.0,0.0,0.0,0.0,0.0,0.0,0.0,0.0,0.0,0.0,0.0,0.0,-2.6089,-2.6384,-2.6281,-2.595,0.0,0.0,0.0,0.0,0.0,0.0,0.0,0.0,0.0,0.0,0.0,0.0,0.0,0.0,0.0,0.0,0.0,0.0,0.0,0.0,0.0,0.0,0.0,0.0,0.0,0.0,0.0,0.0,0.0,0.0,0.0,0.0,0.0,0.0,0.0,0.0,0.0,0.0,0.0,0.0,0.0,0.0,0.0,0.0,0.0,0.0,0.0,0.0,0.0,0.0,0.0,0.0,0.0,0.0,0.0,0.0,0.0,0.0,0.0,0.0,0.0,0.0,0.0,0.0,0.0,0.0,0.0,0.0,0.0,0.0,0.0,0.0,0.0,0.0,0.0,0.0,0.0,0.0,0.0,0.0,0.0,0.0,0.0,0.0,0.0,0.0,0.0,0.0,0.0,0.0,0.0,0.0,0.0,0.0,0.0,0.0,0.0,0.0,0.0,0.0,0.0,0.0,0.0,0.0,0.0,0.0,0.0,0.0,0.0,0.0,-2.6352,-2.7547,-2.7475,-2.7291,-2.6755,-2.5754,0.0,0.0,0.0,0.0,0.0,0.0,0.0,0.0,0.0,0.0,0.0,0.0,0.0,0.0,0.0,0.0,0.0,0.0,0.0,0.0,0.0,0.0,0.0,0.0,0.0,0.0,0.0,0.0,0.0,0.0,0.0,0.0,0.0,0.0,0.0,0.0,0.0,0.0,0.0,0.0,0.0,0.0,0.0,0.0,0.0,0.0,0.0,0.0,0.0,0.0,0.0,0.0,0.0,0.0,0.0,0.0,0.0,0.0,0.0,0.0,0.0,0.0,0.0,0.0,0.0,0.0,0.0,0.0,0.0,0.0,0.0,0.0,0.0,0.0,0.0,0.0,0.0,0.0,0.0,0.0,0.0,0.0,0.0,0.0,0.0,0.0,0.0,0.0,0.0,0.0,0.0,0.0,0.0,0.0,0.0,0.0,0.0,0.0,0.0,0.0,0.0,0.0,0.0,0.0,0.0,0.0,0.0,0.0,-2.4718,-2.7158,-2.8382,-2.8217,-2.7913,-2.7262,0.0,0.0,0.0,0.0,0.0,0.0,0.0,0.0,0.0,0.0,0.0,0.0,0.0,0.0,0.0,0.0,0.0,0.0,0.0,0.0,0.0,0.0,0.0,0.0,0.0,0.0,0.0,0.0,0.0,0.0,0.0,0.0,0.0,0.0,0.0,0.0,0.0,0.0,0.0,0.0,0.0,0.0,0.0,0.0,0.0,0.0,0.0,0.0,0.0,0.0,0.0,0.0,0.0,0.0,0.0,0.0,0.0,0.0,0.0,0.0,0.0,0.0,0.0,0.0,0.0,0.0,0.0,0.0,0.0,0.0,0.0,0.0,0.0,0.0,0.0,0.0,0.0,0.0,0.0,0.0,0.0,0.0,0.0,0.0,0.0,0.0,0.0,0.0,0.0,0.0,0.0,0.0,0.0,0.0,0.0,0.0,0.0,0.0,0.0,0.0,0.0,0.0,0.0,0.0,0.0,0.0,0.0,0.0,0.0,-2.5535,-2.8372,-3.0149,-3.0467,-2.9734,-2.8674,0.0,0.0,0.0,0.0,0.0,0.0,0.0,0.0,0.0,0.0,0.0,0.0,0.0,0.0,0.0,0.0,0.0,0.0,0.0,0.0,0.0,0.0,0.0,0.0,0.0,0.0,0.0,0.0,0.0,0.0,0.0,0.0,0.0,0.0,0.0,0.0,0.0,0.0,0.0,0.0,0.0,0.0,0.0,0.0,0.0,0.0,0.0,0.0,0.0,0.0,0.0,0.0,0.0,0.0,0.0,0.0,0.0,0.0,0.0,0.0,0.0,0.0,0.0,0.0,0.0,0.0,0.0,0.0,0.0,0.0,0.0,0.0,0.0,0.0,0.0,0.0,0.0,0.0,0.0,0.0,0.0,0.0,0.0,0.0,0.0,0.0,0.0,0.0,0.0,0.0,0.0,0.0,0.0,0.0,0.0,0.0,0.0,0.0,0.0,0.0,0.0,0.0,0.0,0.0,0.0,0.0,0.0,0.0,0.0,-2.7749,0.0,-3.1777,-3.2153,-3.1193,-2.9836,0.0,0.0,0.0,0.0,0.0,0.0,0.0,0.0,0.0,0.0,0.0,0.0,0.0,0.0,0.0,0.0,0.0,0.0,0.0,0.0,0.0,0.0,0.0,0.0,0.0,0.0,0.0,0.0,0.0,0.0,0.0,0.0,0.0,0.0,0.0,0.0,0.0,0.0,0.0,0.0,0.0,0.0,0.0,0.0,0.0,0.0,0.0,0.0,0.0,0.0,0.0,0.0,0.0,0.0,0.0,0.0,0.0,0.0,0.0,0.0,0.0,0.0,0.0,0.0,0.0,0.0,0.0,0.0,0.0,0.0,0.0,0.0,0.0,0.0,0.0,0.0,0.0,0.0,0.0,0.0,0.0,0.0,0.0,0.0,0.0,0.0,0.0,0.0,0.0,0.0,0.0,0.0,0.0,0.0,0.0,0.0,0.0,0.0,0.0,0.0,0.0,0.0,0.0,0.0,0.0,0.0,0.0,0.0,-2.816,-3.1576,-3.2577,-3.3074,-3.3098,-3.2152,-3.0596,0.0,0.0,0.0,0.0,0.0,0.0,0.0,0.0,0.0,0.0,0.0,0.0,0.0,0.0,0.0,0.0,0.0,0.0,0.0,0.0,0.0,0.0,0.0,0.0,0.0,0.0,0.0,0.0,0.0,0.0,0.0,0.0,0.0,0.0,0.0,0.0,0.0,0.0,0.0,0.0,0.0,0.0,0.0,0.0,0.0,0.0,0.0,0.0,0.0,0.0,0.0,0.0,0.0,0.0,0.0,0.0,0.0,0.0,0.0,0.0,0.0,0.0,0.0,0.0,0.0,0.0,0.0,0.0,0.0,0.0,0.0,0.0,0.0,0.0,0.0,0.0,0.0,0.0,0.0,0.0,0.0,0.0,0.0,0.0,0.0,0.0,0.0,0.0,0.0,0.0,0.0,0.0,0.0,0.0,0.0,0.0,0.0,0.0,0.0,0.0,0.0,0.0,0.0,0.0,0.0,0.0,0.0,0.0,0.0,-3.2233,-3.317,-3.3939,-3.448,-3.3551,-3.2115,0.0,0.0,0.0,0.0,0.0,0.0,0.0,0.0,0.0,0.0,0.0,0.0,0.0,0.0,0.0,0.0,0.0,0.0,0.0,0.0,0.0,0.0,0.0,0.0,0.0,0.0,0.0,0.0,0.0,0.0,0.0,0.0,0.0,0.0,0.0,0.0,0.0,0.0,0.0,0.0,0.0,0.0,0.0,0.0,0.0,0.0,0.0,0.0,0.0,0.0,0.0,0.0,0.0,0.0,0.0,0.0,0.0,0.0,0.0,0.0,0.0,0.0,0.0,0.0,0.0,0.0,0.0,0.0,0.0,0.0,0.0,0.0,0.0,0.0,0.0,0.0,0.0,0.0,0.0,0.0,0.0,0.0,0.0,0.0,0.0,0.0,0.0,0.0,0.0,0.0,0.0,0.0,0.0,0.0,0.0,0.0,0.0,0.0,0.0,0.0,0.0,0.0,0.0,0.0,0.0,0.0,0.0,0.0,0.0,-3.2764,-3.3643,-3.4508,-3.5416,-3.4398,-3.3023,-3.1203,0.0,0.0,0.0,0.0,0.0,0.0,0.0,0.0,0.0,0.0,0.0,0.0,0.0,0.0,0.0,0.0,0.0,0.0,0.0,0.0,0.0,0.0,0.0,0.0,0.0,0.0,0.0,0.0,0.0,0.0,0.0,0.0,0.0,0.0,0.0,0.0,0.0,0.0,0.0,0.0,0.0,0.0,0.0,0.0,0.0,0.0,0.0,0.0,0.0,0.0,0.0,0.0,0.0,0.0,0.0,0.0,0.0,0.0,0.0,0.0,0.0,0.0,0.0,0.0,0.0,0.0,0.0,0.0,0.0,0.0,0.0,0.0,0.0,0.0,0.0,0.0,0.0,0.0,0.0,0.0,0.0,0.0,0.0,0.0,0.0,0.0,0.0,0.0,0.0,0.0,0.0,0.0,0.0,0.0,0.0,0.0,0.0,0.0,0.0,0.0,0.0,0.0,0.0,0.0,0.0,0.0,0.0,0.0,-3.3293,-3.4088,-3.4906,-3.5758,-3.4945,-3.3485,0.0,0.0,0.0,0.0,0.0,0.0,0.0,0.0,0.0,0.0,0.0,0.0,0.0,0.0,0.0,0.0,0.0,0.0,0.0,0.0,0.0,0.0,0.0,0.0,0.0,0.0,0.0,0.0,0.0,0.0,0.0,0.0,0.0,0.0,0.0,0.0,0.0,0.0,0.0,0.0,0.0,0.0,0.0,0.0,0.0,0.0,0.0,0.0,0.0,0.0,0.0,0.0,0.0,0.0,0.0,0.0,0.0,0.0,0.0,0.0,0.0,0.0,0.0,0.0,0.0,0.0,0.0,0.0,0.0,0.0,0.0,0.0,0.0,0.0,0.0,0.0,0.0,0.0,0.0,0.0,0.0,0.0,0.0,0.0,0.0,0.0,0.0,0.0,0.0,0.0,0.0,0.0,0.0,0.0,0.0,0.0,0.0,0.0,0.0,0.0,0.0,0.0,0.0,0.0,0.0,0.0,0.0,0.0,0.0,-3.3374,-3.4764,-3.5624,-3.5854,-3.6159,-3.5003,0.0,0.0,0.0,0.0,0.0,0.0,0.0,0.0,0.0,0.0,0.0,0.0,0.0,0.0,0.0,0.0,0.0,0.0,0.0,0.0,0.0,0.0,0.0,0.0,0.0,0.0,0.0,0.0,0.0,0.0,0.0,0.0,0.0,0.0,0.0,0.0,0.0,0.0,0.0,0.0,0.0,0.0,0.0,0.0,0.0,0.0,0.0,0.0,0.0,0.0,0.0,0.0,0.0,0.0,0.0,0.0,0.0,0.0,0.0,0.0,0.0,0.0,0.0,0.0,0.0,0.0,0.0,0.0,0.0,0.0,0.0,0.0,0.0,0.0,0.0,0.0,0.0,0.0,0.0,0.0,0.0,0.0,0.0,0.0,0.0,0.0,0.0,0.0,0.0,0.0,0.0,0.0,0.0,0.0,0.0,0.0,0.0,0.0,0.0,0.0,0.0,0.0,0.0,0.0,0.0,0.0,0.0,0.0,-3.2519,-3.3394,-3.504,-3.5864,-3.5825,-3.6541,-3.5669,0.0,0.0,0.0,0.0,0.0,0.0,0.0,0.0,0.0,0.0,0.0,0.0,0.0,0.0,0.0,0.0,0.0,0.0,0.0,0.0,0.0,0.0,0.0,0.0,0.0,0.0,0.0,0.0,0.0,0.0,0.0,0.0,0.0,0.0,0.0,0.0,0.0,0.0,0.0,0.0,0.0,0.0,0.0,0.0,0.0,0.0,0.0,0.0,0.0,0.0,0.0,0.0,0.0,0.0,0.0,0.0,0.0,0.0,0.0,0.0,0.0,0.0,0.0,0.0,0.0,0.0,0.0,0.0,0.0,0.0,0.0,0.0,0.0,0.0,0.0,0.0,0.0,0.0,0.0,0.0,0.0,0.0,0.0,0.0,0.0,0.0,0.0,0.0,0.0,0.0,0.0,0.0,0.0,0.0,0.0,0.0,0.0,0.0,0.0,0.0,0.0,0.0,0.0,0.0,0.0,0.0,0.0,0.0,-3.2471,-3.3233,-3.4963,-3.5788,-3.5588,-3.6346,-3.5804,0.0,0.0,0.0,0.0,0.0,0.0,0.0,0.0,0.0,0.0,0.0,0.0,0.0,0.0,0.0,0.0,0.0,0.0,0.0,0.0,0.0,0.0,0.0,0.0,0.0,0.0,0.0,0.0,0.0,0.0,0.0,0.0,0.0,0.0,0.0,0.0,0.0,0.0,0.0,0.0,0.0,0.0,0.0,0.0,0.0,0.0,0.0,0.0,0.0,0.0,0.0,0.0,0.0,0.0,0.0,0.0,0.0,0.0,0.0,0.0,0.0,0.0,0.0,0.0,0.0,0.0,0.0,0.0,0.0,0.0,0.0,0.0,0.0,0.0,0.0,0.0,0.0,0.0,0.0,0.0,0.0,0.0,0.0,0.0,0.0,0.0,0.0,0.0,0.0,0.0,0.0,0.0,0.0,0.0,0.0,0.0,0.0,0.0,0.0,0.0,0.0,0.0,0.0,0.0,0.0,0.0,0.0,0.0,-3.208,-3.226,-3.4532,-3.5349,-3.456,-3.5944,-3.5753,0.0,0.0,0.0,0.0,0.0,0.0,0.0,0.0,0.0,0.0,0.0,0.0,0.0,0.0,0.0,0.0,0.0,0.0,0.0,0.0,0.0,0.0,0.0,0.0,0.0,0.0,0.0,0.0,0.0,0.0,0.0,0.0,0.0,0.0,0.0,0.0,0.0,0.0,0.0,0.0,0.0,0.0,0.0,0.0,0.0,0.0,0.0,0.0,-1.7413,0.0,0.0,0.0,0.0,0.0,0.0,0.0,0.0,0.0,0.0,0.0,0.0,0.0,0.0,0.0,0.0,0.0,0.0,0.0,0.0,0.0,0.0,0.0,0.0,0.0,0.0,0.0,0.0,0.0,0.0,0.0,0.0,0.0,0.0,0.0,0.0,0.0,0.0,0.0,0.0,0.0,0.0,0.0,0.0,0.0,0.0,0.0,0.0,0.0,0.0,0.0,0.0,0.0,0.0,0.0,0.0,0.0,0.0,0.0,-3.1494,-3.1887,-3.35,-3.4284,-3.4147,-3.5224,-3.5223,0.0,0.0,0.0,0.0,0.0,0.0,0.0,0.0,0.0,0.0,0.0,0.0,0.0,0.0,0.0,0.0,0.0,0.0,0.0,0.0,0.0,0.0,0.0,0.0,0.0,0.0,0.0,0.0,0.0,0.0,0.0,0.0,0.0,0.0,0.0,0.0,0.0,0.0,0.0,0.0,0.0,0.0,0.0,0.0,0.0,0.0,0.0,0.0,0.0,0.0,0.0,0.0,0.0,0.0,0.0,0.0,0.0,0.0,0.0,0.0,0.0,0.0,0.0,0.0,0.0,0.0,0.0,0.0,0.0,0.0,0.0,0.0,0.0,0.0,0.0,0.0,0.0,0.0,0.0,0.0,0.0,0.0,0.0,0.0,0.0,0.0,0.0,0.0,0.0,0.0,0.0,0.0,0.0,0.0,0.0,0.0,0.0,0.0,0.0,0.0,0.0,0.0,0.0,0.0,0.0,0.0,0.0,-3.0593,-3.0878,-3.1525,-3.2274,-3.3004,-3.37,-3.4112,-3.4287,-3.4134,0.0,0.0,0.0,0.0,0.0,0.0,0.0,0.0,0.0,0.0,0.0,0.0,0.0,0.0,0.0,0.0,0.0,0.0,0.0,0.0,0.0,0.0,0.0,0.0,0.0,0.0,0.0,0.0,0.0,0.0,0.0,0.0,0.0,0.0,0.0,0.0,0.0,0.0,-2.2478,-2.2951,0.0,0.0,0.0,0.0,0.0,0.0,0.0,0.0,-2.1969,0.0,0.0,0.0,0.0,0.0,0.0,0.0,0.0,0.0,0.0,0.0,0.0,0.0,0.0,0.0,0.0,0.0,0.0,0.0,0.0,0.0,0.0,0.0,0.0,0.0,0.0,0.0,0.0,0.0,0.0,0.0,0.0,0.0,0.0,0.0,0.0,0.0,0.0,0.0,0.0,0.0,0.0,0.0,0.0,0.0,0.0,0.0,0.0,0.0,0.0,0.0,0.0,0.0,0.0,0.0,0.0,-3.0451,-3.0447,-3.0417,-3.04,-3.1159,-3.186,-3.2467,-3.2323,-3.263,-3.3424,0.0,0.0,0.0,0.0,0.0,0.0,0.0,0.0,0.0,0.0,0.0,0.0,0.0,0.0,0.0,0.0,0.0,0.0,0.0,0.0,0.0,0.0,0.0,0.0,0.0,0.0,0.0,0.0,0.0,0.0,0.0,0.0,0.0,0.0,0.0,0.0,0.0,0.0,0.0,-3.0393,-2.9465,0.0,0.0,0.0,0.0,0.0,0.0,0.0,0.0,-2.4835,0.0,0.0,0.0,0.0,0.0,0.0,0.0,0.0,0.0,0.0,0.0,0.0,0.0,0.0,0.0,0.0,0.0,0.0,0.0,0.0,0.0,0.0,0.0,0.0,0.0,0.0,0.0,0.0,0.0,0.0,0.0,0.0,0.0,0.0,0.0,0.0,0.0,0.0,0.0,0.0,0.0,0.0,0.0,0.0,0.0,0.0,0.0,0.0,0.0,0.0,0.0,0.0,0.0,0.0,0.0,-3.026,-3.0228,-3.0128,-3.003,-3.0753,-3.1221,-3.1389,-3.1848,-3.2224,0.0,0.0,0.0,0.0,0.0,0.0,0.0,0.0,0.0,0.0,0.0,0.0,0.0,0.0,0.0,0.0,0.0,0.0,0.0,0.0,0.0,0.0,0.0,0.0,0.0,0.0,0.0,0.0,0.0,0.0,0.0,0.0,0.0,0.0,0.0,0.0,0.0,0.0,0.0,0.0,-3.3512,-3.2752,-3.0196,0.0,0.0,0.0,0.0,0.0,0.0,-2.6744,-2.6392,0.0,0.0,0.0,0.0,0.0,0.0,0.0,0.0,0.0,0.0,0.0,0.0,0.0,0.0,0.0,0.0,0.0,0.0,0.0,0.0,0.0,0.0,0.0,0.0,0.0,0.0,0.0,0.0,0.0,0.0,0.0,0.0,0.0,0.0,0.0,0.0,0.0,0.0,0.0,0.0,0.0,0.0,0.0,0.0,0.0,0.0,0.0,0.0,0.0,0.0,0.0,0.0,0.0,0.0,0.0,-3.0032,-2.9962,-2.9886,-2.9823,-3.0339,-3.0581,-3.0497,-3.1372,-3.1655,0.0,0.0,0.0,0.0,0.0,0.0,0.0,0.0,0.0,0.0,0.0,0.0,0.0,0.0,0.0,0.0,0.0,0.0,0.0,0.0,0.0,0.0,0.0,0.0,0.0,0.0,0.0,0.0,0.0,0.0,0.0,0.0,0.0,0.0,0.0,0.0,0.0,0.0,0.0,0.0,0.0,-3.4729,-3.3668,-3.2206,0.0,0.0,0.0,0.0,-2.8962,-2.8273,0.0,0.0,0.0,0.0,0.0,0.0,0.0,0.0,0.0,0.0,0.0,0.0,0.0,0.0,0.0,0.0,0.0,0.0,0.0,0.0,0.0,0.0,0.0,0.0,0.0,0.0,0.0,0.0,0.0,0.0,0.0,0.0,0.0,0.0,0.0,0.0,0.0,0.0,0.0,0.0,0.0,0.0,0.0,0.0,0.0,0.0,0.0,0.0,0.0,0.0,0.0,0.0,0.0,0.0,0.0,0.0,-2.9834,-2.9715,-2.9589,-2.9454,-2.9368,-2.9562,-3.0058,-2.9764,-2.9781,0.0,0.0,0.0,0.0,0.0,0.0,0.0,0.0,0.0,0.0,0.0,0.0,0.0,0.0,0.0,0.0,0.0,0.0,0.0,0.0,0.0,0.0,0.0,0.0,0.0,0.0,0.0,0.0,0.0,0.0,0.0,0.0,0.0,0.0,0.0,0.0,0.0,0.0,0.0,0.0,0.0,-3.598,-3.558,-3.4044,-3.2568,0.0,0.0,-3.0713,-3.0498,-2.9781,0.0,0.0,0.0,0.0,0.0,0.0,0.0,0.0,0.0,0.0,0.0,0.0,0.0,0.0,0.0,0.0,0.0,0.0,0.0,0.0,0.0,0.0,0.0,0.0,0.0,0.0,0.0,0.0,0.0,0.0,0.0,0.0,0.0,0.0,0.0,0.0,0.0,0.0,0.0,0.0,0.0,0.0,0.0,0.0,0.0,0.0,0.0,0.0,0.0,0.0,0.0,0.0,0.0,0.0,0.0,-2.9787,-2.9736,-2.9589,-2.9453,-2.9328,-2.9141,-2.9038,-2.9083,-2.9522,-2.9515,0.0,0.0,0.0,0.0,0.0,0.0,0.0,0.0,0.0,0.0,0.0,0.0,0.0,0.0,0.0,0.0,0.0,0.0,0.0,0.0,0.0,0.0,0.0,0.0,0.0,0.0,0.0,0.0,0.0,0.0,0.0,0.0,0.0,0.0,0.0,0.0,0.0,0.0,0.0,0.0,0.0,0.0,-3.6562,-3.5112,0.0,0.0,0.0,-3.182,-3.1559,0.0,0.0,0.0,0.0,0.0,0.0,0.0,0.0,0.0,0.0,0.0,0.0,0.0,0.0,0.0,0.0,0.0,0.0,0.0,0.0,0.0,0.0,0.0,0.0,0.0,0.0,0.0,0.0,0.0,0.0,0.0,0.0,0.0,0.0,0.0,0.0,0.0,0.0,0.0,0.0,0.0,0.0,0.0,0.0,0.0,0.0,0.0,0.0,0.0,0.0,0.0,0.0,0.0,0.0,0.0,0.0,0.0,-2.9926,-2.9748,-2.9604,-2.947,-2.909,-2.8785,-2.8613,-2.9526,0.0,0.0,0.0,0.0,0.0,0.0,0.0,0.0,0.0,0.0,0.0,0.0,0.0,0.0,0.0,0.0,0.0,0.0,0.0,0.0,0.0,0.0,0.0,0.0,0.0,0.0,0.0,-2.9016,0.0,0.0,0.0,0.0,0.0,0.0,0.0,0.0,0.0,0.0,0.0,0.0,0.0,0.0,-3.6316,-3.6987,-3.5676,-3.4476,0.0,0.0,-3.2717,-3.2444,-3.1291,-3.0378,0.0,0.0,0.0,0.0,0.0,0.0,0.0,0.0,0.0,0.0,0.0,0.0,0.0,0.0,0.0,0.0,0.0,0.0,0.0,0.0,0.0,0.0,0.0,0.0,0.0,0.0,0.0,0.0,0.0,0.0,0.0,0.0,0.0,0.0,0.0,0.0,0.0,0.0,0.0,0.0,0.0,0.0,0.0,0.0,0.0,0.0,0.0,0.0,0.0,0.0,0.0,0.0,0.0,0.0,0.0,-3.0519,-3.0394,-3.0176,-2.9935,-2.9025,-2.8721,-2.9042,-2.9438,-2.9144,0.0,0.0,0.0,0.0,0.0,0.0,0.0,0.0,0.0,0.0,0.0,0.0,0.0,0.0,0.0,0.0,0.0,0.0,0.0,0.0,0.0,0.0,0.0,0.0,0.0,0.0,0.0,0.0,0.0,0.0,0.0,0.0,0.0,0.0,0.0,0.0,0.0,0.0,0.0,0.0,0.0,-3.6055,-3.6823,-3.5721,-3.4735,0.0,0.0,-3.3171,-3.2988,-3.1654,-3.0678,-3.0678,0.0,0.0,0.0,0.0,0.0,0.0,0.0,0.0,0.0,0.0,0.0,0.0,0.0,0.0,0.0,0.0,0.0,0.0,0.0,0.0,0.0,0.0,0.0,0.0,0.0,0.0,0.0,0.0,0.0,0.0,0.0,0.0,0.0,0.0,0.0,0.0,0.0,0.0,0.0,0.0,0.0,0.0,0.0,0.0,0.0,0.0,0.0,0.0,0.0,0.0,0.0,0.0,0.0,-2.9876,-2.9786,-2.9636,-2.941,-2.913,-2.8655,-2.853,-2.8842,-2.9226,-2.8887,0.0,0.0,0.0,0.0,0.0,0.0,0.0,0.0,0.0,0.0,0.0,0.0,0.0,0.0,0.0,0.0,0.0,0.0,0.0,0.0,0.0,0.0,0.0,0.0,0.0,0.0,0.0,0.0,-2.8905,-2.8876,-2.8724,0.0,0.0,0.0,0.0,0.0,0.0,0.0,0.0,0.0,0.0,-3.5774,-3.6506,-3.5593,0.0,0.0,-3.3868,-3.3396,-3.3227,-3.1985,-3.0936,-3.0746,-2.908,0.0,0.0,0.0,0.0,0.0,0.0,0.0,0.0,0.0,0.0,0.0,0.0,0.0,0.0,0.0,0.0,0.0,0.0,0.0,0.0,0.0,0.0,0.0,0.0,0.0,0.0,0.0,0.0,0.0,0.0,0.0,0.0,0.0,0.0,0.0,0.0,0.0,0.0,0.0,0.0,0.0,0.0,0.0,0.0,0.0,0.0,0.0,0.0,0.0,0.0,0.0,0.0,-2.9832,-2.9943,-2.954,-2.9138,-2.8835,-2.8389,-2.8382,-2.8808,-2.899,-2.8634,0.0,0.0,0.0,0.0,0.0,0.0,0.0,0.0,0.0,0.0,0.0,0.0,0.0,0.0,0.0,0.0,0.0,0.0,0.0,0.0,0.0,0.0,0.0,0.0,0.0,0.0,0.0,0.0,-2.8656,-2.8554,-2.8406,0.0,0.0,0.0,0.0,0.0,0.0,0.0,0.0,0.0,0.0,-3.5462,-3.6075,-3.5479,-3.4787,-3.4481,-3.4005,-3.3605,-3.3396,-3.2204,-3.1096,-3.0868,0.0,0.0,0.0,0.0,0.0,0.0,0.0,0.0,0.0,0.0,0.0,0.0,0.0,0.0,0.0,0.0,0.0,0.0,0.0,0.0,0.0,0.0,0.0,0.0,0.0,0.0,0.0,0.0,0.0,0.0,-3.5891,0.0,0.0,0.0,0.0,0.0,0.0,0.0,0.0,0.0,0.0,0.0,0.0,0.0,0.0,0.0,0.0,0.0,0.0,0.0,0.0,0.0,0.0,-3.0824,-3.1396,-3.0442,-2.9784,-2.9237,-2.8315,-2.8216,-2.9022,-2.8814,-2.84,-2.7849,0.0,0.0,0.0,0.0,0.0,0.0,0.0,0.0,0.0,0.0,0.0,0.0,0.0,0.0,0.0,0.0,0.0,0.0,0.0,0.0,0.0,0.0,0.0,0.0,0.0,0.0,-2.851,-2.8309,-2.8198,0.0,0.0,0.0,0.0,0.0,0.0,0.0,0.0,0.0,0.0,-3.4722,-3.5025,-3.5619,-3.5249,-3.4802,-3.4481,-3.4088,-3.3827,-3.3605,-3.2272,-3.1163,0.0,0.0,0.0,0.0,0.0,0.0,0.0,0.0,0.0,0.0,0.0,0.0,0.0,0.0,0.0,0.0,0.0,0.0,0.0,0.0,0.0,0.0,0.0,0.0,0.0,0.0,0.0,-3.7267,-3.6727,0.0,0.0,0.0,0.0,0.0,0.0,0.0,0.0,0.0,0.0,0.0,-3.6128,-3.5534,0.0,0.0,0.0,0.0,0.0,0.0,0.0,0.0,0.0,0.0,0.0,0.0,-2.9754,-2.9745,-2.9338,-2.8827,-2.8333,-2.7789,-2.7999,-2.8946,-2.8515,-2.7898,-2.7142,0.0,0.0,0.0,0.0,0.0,0.0,0.0,0.0,0.0,0.0,0.0,0.0,0.0,0.0,0.0,0.0,0.0,0.0,0.0,0.0,0.0,0.0,0.0,0.0,0.0,-2.8353,0.0,0.0,0.0,0.0,0.0,0.0,0.0,0.0,0.0,0.0,0.0,-3.3259,-3.4067,-3.4732,-3.5248,-3.534,-3.5037,-3.4706,0.0,0.0,0.0,0.0,0.0,0.0,0.0,0.0,0.0,0.0,0.0,0.0,0.0,0.0,-2.9263,-2.9563,-2.9937,-3.0369,-3.104,0.0,0.0,0.0,0.0,0.0,0.0,0.0,0.0,0.0,0.0,0.0,0.0,0.0,0.0,-3.8043,0.0,-3.7492,0.0,0.0,0.0,0.0,0.0,0.0,0.0,0.0,-3.7102,-3.7294,-3.7655,-3.6783,-3.6274,0.0,-3.4601,-3.309,0.0,0.0,0.0,0.0,0.0,0.0,0.0,0.0,-2.9281,-2.9289,-2.8789,-2.8264,-2.776,-2.7413,-2.7586,-2.8283,-2.7886,-2.731,-2.6554,-2.5584,-2.48,0.0,0.0,0.0,0.0,0.0,0.0,0.0,0.0,0.0,0.0,0.0,0.0,0.0,0.0,0.0,0.0,0.0,0.0,0.0,0.0,0.0,0.0,0.0,-2.8159,0.0,0.0,0.0,0.0,0.0,0.0,0.0,0.0,0.0,-3.1222,-3.2213,-3.315,-3.3772,-3.4299,-3.4714,-3.4867,0.0,0.0,0.0,0.0,0.0,0.0,0.0,-3.2261,-3.1958,-3.1377,-3.0856,-3.0745,-3.088,-3.1015,-3.1042,0.0,0.0,-3.0923,-3.1244,-3.1758,-3.2504,-3.3146,-3.3713,-3.4089,-3.4386,-3.4635,0.0,0.0,0.0,0.0,0.0,0.0,0.0,0.0,-3.8441,-3.8365,0.0,-3.8222,0.0,0.0,0.0,0.0,0.0,-3.7094,0.0,0.0,-3.7723,-3.764,-3.7413,-3.6578,-3.6045,-3.5778,-3.4929,-3.3663,-3.1995,-3.1177,0.0,0.0,0.0,0.0,0.0,0.0,-2.9476,-2.9966,-2.8931,-2.8128,-2.7612,-2.7213,-2.7046,-2.7172,-2.6965,-2.6689,-2.6258,-2.5274,-2.4612,-2.4476,-2.4043,0.0,0.0,0.0,0.0,0.0,0.0,0.0,0.0,0.0,0.0,0.0,0.0,0.0,0.0,0.0,0.0,0.0,0.0,0.0,0.0,-2.7848,0.0,0.0,0.0,0.0,0.0,0.0,0.0,0.0,0.0,0.0,-3.2183,-3.2514,-3.2911,-3.3692,0.0,0.0,0.0,0.0,-3.4133,-3.4566,-3.421,-3.3896,-3.3896,-3.3109,-3.2386,-3.2166,0.0,0.0,-3.1289,-3.1789,-3.2141,-3.2169,-3.2114,-3.1946,-3.113,-3.1503,-3.2017,-3.2507,-3.3295,-3.3804,-3.4061,-3.4482,-3.4688,-4.1515,0.0,0.0,0.0,0.0,-4.0241,-4.0198,-4.0121,-4.0029,-3.9649,-3.8987,-3.894,0.0,0.0,0.0,0.0,0.0,0.0,-3.7674,-3.7759,-3.7083,-3.6634,-3.6442,-3.4942,-3.416,-3.3955,-3.3125,-3.2403,-3.1849,-3.1049,-3.0383,-2.9847,0.0,0.0,0.0,0.0,-2.9062,-2.9052,-2.8549,-2.8017,-2.7539,-2.7085,-2.6771,-2.6643,-2.7248,-2.7114,-2.6108,-2.5666,-2.5182,-2.4536,-2.4043,0.0,0.0,0.0,0.0,0.0,0.0,0.0,0.0,0.0,0.0,0.0,0.0,0.0,0.0,0.0,0.0,0.0,0.0,0.0,-2.8521,-2.8816,-2.907,0.0,0.0,0.0,0.0,0.0,0.0,0.0,0.0,0.0,-3.1614,-3.2406,-3.315,0.0,0.0,-3.3487,-3.3694,-3.3661,-3.3665,-3.3937,0.0,0.0,0.0,-3.3394,-3.2905,-3.261,-3.2105,-3.1864,-3.1969,-3.206,-3.2169,-3.2169,-3.2169,-3.2191,-3.2233,-3.2721,-3.3307,-3.3922,-3.4718,-3.5396,-3.5521,-3.5784,-3.5737,-4.1886,-4.1117,-4.1013,-4.0984,-4.0996,-4.0963,-4.0908,-4.0804,-4.0725,-4.0331,-3.9738,-3.9692,-3.9377,-3.885,-3.8503,0.0,0.0,0.0,-3.7768,-3.7658,-3.6709,-3.5989,-3.5432,-3.4045,-3.332,-3.3134,-3.2306,-3.17,-3.134,-3.0835,-3.0209,-2.947,0.0,0.0,-2.9289,-2.9089,-2.8858,-2.8669,-2.8237,-2.7864,-2.7465,-2.6858,-2.6407,-2.6099,-2.6983,-2.6912,-2.5786,-2.5712,-2.533,-2.4505,-2.4028,-2.3867,0.0,0.0,0.0,0.0,0.0,0.0,0.0,0.0,0.0,0.0,0.0,-2.7666,0.0,0.0,0.0,0.0,-2.8888,-2.8842,-2.9027,-2.9281,0.0,0.0,0.0,0.0,0.0,0.0,0.0,-2.9924,-3.0571,-3.0973,-3.1045,-3.1715,-3.2413,-3.2962,-3.302,-3.3063,-3.3306,0.0,-3.2752,-3.3314,-3.3266,-3.3125,-3.3125,-3.2868,-3.2443,-3.2069,-3.1719,-3.1534,-3.1477,-3.1477,-3.1477,-3.1477,-3.1463,-3.1605,-3.1916,-3.2525,-3.3221,-3.3972,-3.4624,-3.5059,-3.5293,-3.5477,-3.5477,-4.1832,-4.1109,-4.1025,-4.0976,-4.0988,-4.0926,-4.0858,-4.0788,-4.0726,-4.054,-4.0293,-4.0281,-4.0211,-4.0043,-3.926,0.0,-3.9929,-3.8402,-3.7547,-3.7281,-3.6407,-3.5379,-3.4266,-3.3458,-3.2978,-3.2765,-3.2057,-3.1291,-3.0541,-3.0504,-3.0111,-2.9405,-2.9323,-2.9302,-2.9262,-2.9021,-2.8791,-2.8576,-2.8073,-2.7659,-2.7341,-2.6607,-2.599,-2.5621,-2.6329,-2.6287,-2.5379,-2.547,-2.527,-2.4596,-2.4086,-2.3882,-2.4024,0.0,0.0,0.0,0.0,0.0,0.0,0.0,0.0,0.0,0.0,0.0,0.0,0.0,0.0,0.0,-3.0136,0.0,-2.9695,-2.9488,0.0,0.0,0.0,-3.0022,-3.0584,-3.0231,-2.9842,-2.9515,0.0,0.0,-3.0499,0.0,-3.1016,-3.2269,-3.2124,-3.2103,-3.268,-3.1827,-3.1565,-3.2632,-3.2362,-3.2062,-3.2111,-3.1782,-3.145,-3.1086,-3.0664,-3.0542,-3.0351,-3.0283,-3.0269,-3.0269,-3.0269,-3.031,-3.0703,-3.1114,-3.1795,-3.2789,-3.3299,-3.3652,-3.4016,-3.4271,-3.4344,-4.1291,-4.1095,-4.1039,-4.0991,-4.0996,-4.0991,-4.0898,-4.0725,-4.0648,-4.0169,-3.9416,-3.9369,-3.8953,-3.8304,-3.8094,-3.8113,-3.8266,-3.7887,-3.6937,-3.5571,-3.4624,-3.3336,-3.1689,-3.0843,-3.0368,-3.0265,-3.0097,-2.9872,-2.9704,-2.9686,-2.9593,-2.9386,-2.9265,-2.9197,-2.9152,-2.8881,-2.8619,-2.8362,-2.7961,-2.743,-2.6809,-2.6295,-2.5917,-2.5621,-2.5894,-2.5858,-2.5478,-2.5253,-2.5062,-2.4895,-2.4202,-2.3897,-2.4124,-2.4317,0.0,0.0,0.0,0.0,0.0,0.0,0.0,0.0,0.0,-2.7564,-2.8724,0.0,-2.8999,0.0,-3.0318,-3.0332,-3.0279,-3.0595,0.0,0.0,-3.0547,-3.0352,-3.0172,-2.9842,-2.9531,-2.9213,-2.9516,-2.9741,-2.9813,-3.0125,-3.04,-3.0738,-3.0624,-3.0485,-3.0433,-3.0804,-3.1116,-3.1289,-3.1753,-3.2098,-3.1897,-3.1603,-3.1135,-3.0894,-3.0361,-2.9886,-2.9766,-2.9319,-2.9021,-2.9021,-2.9021,-2.9086,-2.9333,-2.9267,-2.9454,-3.0172,-3.1924,-3.3622,-3.3925,-3.4044,-3.4099,-4.1109,-4.1091,-4.1064,-4.0805,-4.0458,-4.077,-4.0624,-4.0152,-4.0028,-3.945,-3.8539,-3.8454,-3.8151,-3.7693,-3.7693,-3.7658,-3.7565,-3.6842,-3.5704,-3.4225,-3.2978,-3.16,-3.0166,-2.9696,-2.9431,-2.9388,-2.9388,-2.9388,-2.9388,-2.9388,-2.9386,-2.9365,-2.9262,-2.895,-2.8507,-2.8603,-2.8536,-2.8273,-2.7672,-2.7135,-2.6589,-2.617,-2.5844,-2.5621,-2.5735,-2.5545,-2.5071,-2.5093,-2.4935,-2.4572,-2.418,-2.4024,-2.4223,-2.4333,-2.4482,0.0,0.0,0.0,0.0,0.0,0.0,0.0,0.0,0.0,0.0,0.0,-2.9643,-3.066,-3.0879,-3.0905,-3.0834,-3.1113,-3.1134,-3.0831,-3.0667,-3.0384,-2.9957,-2.9605,-2.9305,-2.9029,-2.9075,-2.9255,-2.9465,-2.9392,-2.9424,-2.9648,-2.9295,-2.9169,-2.9544,-2.977,-2.984,-2.9958,-3.0276,-3.0434,-3.0249,-2.9953,-2.9638,-2.9406,-2.8953,-2.8543,-2.8389,-2.808,-2.78,-2.78,-2.78,-2.7863,-2.8036,-2.8022,-2.8061,-2.8751,-3.0031,-3.1367,-3.1923,-3.2194,-3.2226,-4.1046,-4.0937,-4.0935,-4.0396,-3.9597,-4.0209,-4.0037,-3.9321,-3.9119,-3.8539,-3.7699,-3.7479,-3.7387,-3.7368,-3.7387,-3.7259,-3.6939,-3.5514,-3.4207,-3.3008,-3.1561,-3.0356,-2.9411,-2.9373,-2.9392,-2.9388,-2.9277,-2.924,-2.9221,-2.9147,-2.905,-2.8968,-2.8907,-2.8448,-2.761,-2.804,-2.8108,-2.7788,-2.7165,-2.6673,-2.6351,-2.6013,-2.577,-2.5584,-2.5615,-2.528,-2.4544,-2.486,-2.4762,-2.4112,-2.4124,-2.4223,-2.4208,-2.4374,-2.4523,0.0,-2.491,0.0,0.0,0.0,0.0,0.0,0.0,0.0,0.0,-2.985,-3.0615,-3.1411,-3.1479,-3.1423,-3.1312,-3.1213,-3.1032,-3.0692,-3.0444,-3.01,-2.968,-2.9262,-2.8883,-2.8653,-2.8436,-2.851,-2.8842,-2.8376,-2.8122,-2.8384,-2.7966,-2.781,-2.8689,-2.8596,-2.8484,-2.8715,-2.8552,-2.8569,-2.8338,-2.7935,-2.7689,-2.7471,-2.7128,-2.6886,-2.6681,-2.6421,-2.6348,-2.643,-2.643,-2.653,-2.6804,-2.6923,-2.7176,-2.7568,-2.8011,-2.8664,-2.954,-2.9997,-2.9993,-4.0689,-4.005,-4.0028,-3.9511,-3.8663,-3.8753,-3.8662,-3.8438,-3.8279,-3.7674,-3.6716,-3.5993,-3.5668,-3.5668,-3.5668,-3.5238,-3.4488,-3.4165,-3.3034,-3.1275,-3.1034,-3.0337,-2.9351,-2.9373,-2.9392,-2.9351,-2.8682,-2.8327,-2.8309,-2.7697,-2.7342,-2.7283,-2.7204,-2.7027,-2.6728,0.0,0.0,0.0,-2.5867,-2.5779,-2.548,-2.5642,-2.5626,-2.5416,-2.5021,0.0,-2.4564,-2.4456,-2.4346,-2.4234,-2.4208,0.0,0.0,0.0,0.0,0.0,0.0,0.0,0.0,0.0,0.0,0.0,-2.6627,-2.7711,-2.878,-3.0192,-3.1116,-3.1295,-3.1291,-3.1252,-3.1295,-3.1157,-3.0895,-3.0535,-2.9914,-2.9304,-2.8812,-2.7997,-2.7356,-2.7167,-2.6915,-2.6872,-2.6995,-2.6627,-2.6473,-2.6638,-2.6268,-2.6031,-2.6105,-2.7284,-2.8023,-2.7981,-2.7936,-2.8126,-2.8154,-2.7414,-2.6834,-2.6705,-2.5786,-2.5122,-2.4874,-2.4327,-2.4123,-2.4515,-2.4639,-2.4815,-2.5306,-2.5515,-2.5728,-2.6078,-2.6369,-2.715,-2.9042,-2.956,-2.9773,-4.0249,0.0,-3.9345,-3.8638,0.0,-3.7736,-3.7182,-3.6372,-3.7057,-3.6588,-3.5229,-3.435,-3.3968,-3.3987,-3.3968,-3.3639,-3.3104,-3.2669,-3.1864,-3.0745,-3.0354,-2.9639,-2.8658,-2.8738,-2.8572,-2.8143,-2.7696,-2.751,-2.7473,-2.712,-2.6878,-2.6782,-2.6742,-2.6438,-2.5886,-2.5113,-2.4817,-2.5079,-2.5094,-2.5141,-2.5196,-2.5124,-2.5211,-2.5362,0.0,0.0,0.0,0.0,0.0,0.0,0.0,0.0,0.0,0.0,0.0,-2.4574,-2.4686,-2.4791,-2.5045,-2.5317,-2.5524,-2.554,-2.6477,-2.7561,-2.8669,-2.9859,-3.0594,-3.0709,-3.1009,-3.1077,-3.0743,-3.0538,-3.0208,-2.9563,-2.9039,-2.8584,-2.814,-2.7514,-2.7036,-2.6835,-2.6572,-2.6425,-2.638,-2.6168,-2.6016,-2.5971,-2.5786,-2.5491,-2.5328,-2.6017,-2.6593,-2.6366,-2.6299,-2.634,-2.634,-2.5912,-2.5472,-2.5266,-2.466,-2.4127,-2.3967,-2.3537,-2.3297,-2.3581,-2.3689,-2.3757,-2.4042,-2.4191,-2.43,-2.4597,-2.5073,-2.5791,-2.7204,-2.8018,-2.8629,-3.9589,-3.937,-3.8617,-3.7783,-3.6957,-3.6755,-3.5685,-3.4234,0.0,0.0,0.0,-3.3028,-3.2707,-3.2707,-3.2707,-3.2518,-3.2141,-3.1443,-3.0866,-3.046,-2.9599,-2.8756,-2.8024,-2.7787,-2.7418,-2.6916,-2.6619,-2.6563,-2.6674,-2.6544,-2.6451,-2.6413,-2.6318,-2.5887,-2.4983,-2.3853,-2.3759,-2.4601,-2.4432,-2.4536,-2.4963,-2.4664,-2.4781,-2.5378,-2.491,-2.463,-2.4589,-2.4426,-2.4302,-2.4302,-2.4302,-2.4302,-2.4302,-2.4302,-2.4385,-2.4589,-2.4589,-2.471,-2.4966,-2.5112,-2.5191,-2.5083,-2.5971,-2.7127,-2.854,-2.9307,-2.9719,-2.9829,-3.0463,-3.0548,-2.9973,-2.9796,-2.9391,-2.8615,-2.8241,-2.7902,-2.7591,-2.7137,-2.6735,-2.6561,-2.624,-2.6083,-2.5964,-2.5756,-2.5667,-2.5606,-2.5334,-2.5163,-2.4991,-2.507,-2.5253,-2.5052,-2.4998,-2.4662,-2.4497,-2.4226,-2.3963,-2.3932,-2.3548,-2.3285,-2.3234,-2.3057,-2.2956,-2.2999,-2.3013,-2.308,-2.3175,-2.327,-2.3294,-2.345,-2.4031,-2.4685,-2.5177,-2.6049,-2.6973,-3.8339,-3.7656,-3.7515,-3.6914,-3.602,-3.5211,-3.4205,-3.3234,-3.3378,-3.3273,-3.2982,-3.2833,-3.28,-3.2771,-3.2771,-3.2294,-3.1433,-3.1214,-3.0584,0.0,-2.878,-2.8236,-2.7931,-2.6655,-2.634,-2.6767,-2.5522,-2.5206,-2.5726,-2.5204,-2.4832,-2.4835,-2.4817,-2.4542,-2.3919,-2.3494,-2.3225,-2.3039,-2.3351,-2.3718,-2.4083,-2.4421,-2.4822,-2.5285,-2.4966,-2.4726,-2.4589,-2.4385,-2.4302,-2.4302,-2.4302,-2.4302,-2.4302,-2.4302,-2.4385,-2.4589,-2.4589,-2.471,-2.495,-2.4605,-2.4257,-2.3976,-2.4095,-2.5365,-2.8146,-2.8703,-2.8867,-2.8904,-2.9138,-2.9299,-2.9144,-2.9003,-2.872,-2.849,-2.7873,-2.7283,-2.6956,-2.6121,-2.5488,-2.5203,-2.4926,-2.4735,-2.4594,-2.4526,-2.4414,-2.4298,-2.4158,-2.3968,-2.3851,-2.4341,-2.481,-2.48,-2.4603,-2.4519,-2.4297,-2.3759,-2.3294,-2.3077,-2.2526,-2.2145,-2.2062,-2.1929,-2.193,-2.2359,-2.2427,-2.2631,-2.2986,-2.3189,-2.3185,-2.33,-2.3554,-2.3861,-2.4292,-2.4704,-2.5199,-3.7649,-3.7186,-3.6289,-3.5639,-3.5132,-3.3749,-3.2873,-3.2366,-3.1838,-3.1821,-3.2095,-3.1673,-3.1448,-3.1435,-3.1407,-3.1126,-3.0627,-3.0511,-3.0113,-2.9456,-2.8594,-2.766,-2.6653,-2.556,-2.4983,-2.4872,-2.42,-2.4255,-2.4962,-2.4698,-2.453,-2.4498,-2.4394,-2.4115,-2.3714,-2.344,-2.3119,-2.2781,-2.2801,-2.2979,-2.3356,-2.3749,-2.4164,-2.4643,-2.4642,-2.4645,-2.4564,-2.4385,-2.4302,-2.4302,-2.4302,-2.4302,-2.4302,-2.4302,-2.4385,-2.4574,-2.4247,-2.4202,-2.4506,-2.401,-2.3716,-2.3701,-2.3719,-2.4311,-2.5872,-2.6547,-2.6922,-2.6974,-2.7417,-2.7571,-2.7199,-2.7114,-2.6893,-2.6386,-2.5847,-2.5526,-2.5302,-2.4717,-2.4179,-2.3962,-2.3698,-2.3484,-2.3312,-2.313,-2.3025,-2.2935,-2.2957,-2.2901,-2.2802,-2.3316,-2.3771,-2.3725,-2.3597,-2.3426,-2.3393,-2.296,-2.2572,-2.2462,-2.2082,-2.1773,-2.1616,-2.1471,-2.1532,-2.1749,-2.1817,-2.1939,-2.2214,-2.2251,-2.2251,-2.2378,-2.2766,-2.3119,-2.3412,-2.3561,-2.414,-3.6406,-3.6262,-3.496,-3.4295,-3.3988,-3.2586,-3.1868,-3.1544,-3.083,-3.0813,-3.1226,-3.0618,-3.0299,-3.0305,-3.0234,-3.0218,-3.0079,-2.9769,-2.949,-2.9195,-2.8166,-2.6842,-2.5412,-2.4611,-2.3903,-2.331,-2.3303,-2.3729,-2.4454,-2.458,-2.458,-2.4495,-2.4303,-2.4056,-2.3753,-2.344,-2.3144,-2.2816,-2.246,-2.2505,-2.2874,-2.3095,-2.342,-2.3835,-2.4037,-2.4215,-2.425,-2.4143,-2.4087,-2.4071,-2.4071,-2.401,-2.3871,-2.384,-2.3977,-2.4075,-2.3678,-2.3456,-2.3612,-2.3282,-2.3122,-2.3211,-2.3227,-2.3293,-2.3537,-2.4179,-2.481,-2.5194,-2.5831,-2.5981,-2.5541,-2.5406,-2.5103,-2.45,-2.4275,-2.4279,-2.4099,-2.3735,-2.3361,-2.3186,-2.2885,-2.266,-2.2459,-2.2232,-2.2156,-2.2067,-2.2047,-2.2081,-2.2113,-2.244,-2.2656,-2.2593,-2.2575,-2.2626,-2.2417,-2.2306,-2.2166,-2.1996,-2.1902,-2.1759,-2.1616,-2.1471,-2.1423,-2.1464,-2.145,-2.1491,-2.1437,-2.145,-2.1491,-2.1572,-2.1969,-2.2328,-2.2476,-2.2609,-2.3195,-3.3793,-3.3754,-3.3607,-3.3063,-3.2335,-3.2063,-3.146,-3.0759,-3.0559,-3.0519,-3.0612,-3.0455,-3.0352,-3.0304,-3.0286,-3.0202,-3.0075,-2.9159,-2.869,-2.8454,-2.6834,-2.5553,-2.4698,-2.391,-2.3444,-2.3388,-2.3385,-2.3811,-2.4578,-2.4647,-2.4666,-2.4582,-2.4393,-2.4135,-2.3876,-2.3504,-2.3126,-2.279,-2.2443,-2.2475,-2.2857,-2.2703,-2.2731,-2.3072,-2.2986,-2.3092,-2.3537,-2.3474,-2.3394,-2.3394,-2.3394,-2.3117,-2.2594,-2.2547,-2.2661,-2.2789,-2.2786,-2.2639,-2.233,-2.2306,-2.2167,-2.182,-2.1851,-2.1944,-2.2079,-2.2245,-2.2919,-2.4005,-2.4534,-2.4659,-2.4594,-2.4543,-2.4458,-2.434,-2.4264,-2.437,-2.4175,-2.3951,-2.3601,-2.3414,-2.2817,-2.2613,-2.2288,-2.2117,-2.1965,-2.165,-2.1555,-2.1462,-2.1521,-2.184,-2.1975,-2.1915,-2.2141,-2.2498,-2.2402,-2.2278,-2.2137,-2.1888,-2.1793,-2.1698,-2.152,-2.1423,-2.141,-2.141,-2.141,-2.141,-2.1361,-2.141,-2.1375,-2.1313,-2.1469,-2.1545,-2.1567,-2.1704,-2.229,-3.3371,-3.336,-3.2846,-3.1814,-3.065,-3.0517,-3.0286,-2.9945,-3.0413,-3.0595,-3.0472,-2.9999,-2.9967,-3.0325,-2.9824,-2.9551,-2.9429,-2.8417,-2.7934,-2.7784,-2.6507,-2.5469,-2.4631,-2.3793,-2.34,-2.3397,-2.3427,-2.3907,-2.4579,-2.4692,-2.4663,-2.4564,-2.4356,-2.4115,-2.3896,-2.3504,-2.3168,-2.2868,-2.2487,-2.2274,-2.22,-2.2377,-2.2374,-2.2334,-2.2499,-2.2658,-2.2786,-2.274,-2.2701,-2.2701,-2.2701,-2.2578,-2.2301,-2.2324,-2.2437,-2.2555,-2.2433,-2.2102,-2.1567,-2.1585,-2.1648,-2.1606,-2.1589,-2.168,-2.1797,-2.1911,-2.2283,-2.2798,-2.3102,-2.319,-2.3224,-2.3207,-2.319,-2.3207,-2.3165,-2.3093,-2.2996,-2.277,-2.2488,-2.2264,-2.1936,-2.1682,-2.1405,-2.1101,-2.0847,-2.0722,-2.0697,-2.0863,-2.0843,-2.1222,-2.1338,-2.1241,-2.1598,-2.205,-2.2211,-2.2231,-2.2091,-2.1888,-2.1793,-2.1698,-2.1458,-2.141,-2.141,-2.141,-2.1361,-2.1375,-2.1277,-2.1277,-2.1277,-2.1215,-2.1166,-2.118,-2.1264,-2.1277,-2.1559,-3.2233,-3.2177,-3.1379,-3.0456,-2.9531,-2.9515,-2.946,-2.9488,-3.0101,-3.0176,-2.9851,-2.9223,-2.9264,-2.9601,-2.9025,-2.8706,-2.8542,-2.7643,-2.7153,-2.699,-2.6148,-2.5227,-2.4388,-2.402,-2.3664,-2.3543,-2.3775,-2.4218,-2.4779,-2.4787,-2.4707,-2.4615,-2.4392,-2.4173,-2.3919,-2.3535,-2.3223,-2.297,-2.2525,-2.2061,-2.1774,-2.1875,-2.1823,-2.1516,-2.178,-2.1957,-2.1934,-2.1949,-2.1949,-2.1956,-2.1971,-2.1879,-2.1747,-2.1769,-2.1842,-2.203,-2.1922,-2.1598,-2.1135,-2.1247,-2.1388,-2.1559,-2.1589,-2.168,-2.1811,-2.194,-2.1998,-2.2094,-2.2192,-2.2361,-2.2327,-2.2327,-2.2327,-2.2327,-2.2271,-2.218,-2.2123,-2.1928,-2.1771,-2.1509,-2.1407,-2.0974,-2.0644,-2.0366,-2.0081,-1.9948,-2.0117,-2.0235,-2.0209,-2.0548,-2.0826,-2.0511,-2.0955,-2.1451,-2.1851,-2.2053,-2.2002,-2.1888,-2.1746,-2.165,-2.1471,-2.141,-2.1361,-2.1313,-2.1326,-2.1277,-2.118,-2.1131,-2.1131,-2.1046,-2.0997,-2.0983,-2.097,-2.0934,-2.0934,-2.9499,-2.9488,-2.8746,-2.8856,-2.9453,-2.9467,-2.9461,-2.9303,-2.9449,-2.9013,-2.8383,-2.8187,-2.8144,-2.8122,-2.7903,-2.7849,-2.7712,-2.6866,-2.6416,-2.6262,-2.5432,-2.4497,-2.3752,-2.436,-2.4341,-2.379,-2.4384,-2.479,-2.4903,-2.4884,-2.4827,-2.4692,-2.4543,-2.4355,-2.4079,-2.3696,-2.3376,-2.3077,-2.251,-2.1994,-2.1582,-2.1199,-2.0873,-2.0603,-2.05,-2.0676,-2.0983,-2.1075,-2.1112,-2.117,-2.1155,-2.0931,-2.0485,-2.0493,-2.0677,-2.085,-2.1036,-2.1167,-2.1119,-2.1215,-2.1388,-2.1559,-2.1589,-2.1694,-2.1869,-2.194,-2.2061,-2.2168,-2.2254,-2.2327,-2.2327,-2.2327,-2.2327,-2.2327,-2.2299,-2.2282,-2.2265,-2.2032,-2.184,-2.1678,-2.1371,-2.1006,-2.0527,-2.0239,-2.0045,-1.9869,-1.9765,-1.9678,-1.9671,-1.9985,-2.003,-1.9964,-2.0271,-2.0869,-2.1245,-2.1661,-2.1843,-2.1793,-2.165,-2.1554,-2.1458,-2.1361,-2.1313,-2.1264,-2.1229,-2.1131,-2.1033,-2.0983,-2.0997,-2.0947,-2.0898,-2.0835,-2.0673,-2.0673,-2.0623,-2.8473,-2.8566,-2.8286,-2.8076,-2.7908,-2.8415,-2.8357,-2.7906,-2.8411,-2.8457,-2.8104,-2.7575,-2.7285,-2.7186,-2.6591,-2.6572,-2.6919,-2.6096,-2.5654,-2.5557,-2.5158,-2.4807,-2.4571,-2.4771,-2.4771,-2.4609,-2.4807,-2.4999,-2.5019,-2.5019,-2.498,-2.4884,-2.4716,-2.4524,-2.4338,-2.3963,-2.3631,-2.3294,-2.2556,-2.1869,-2.1176,-2.0602,-2.0089,-1.9717,-1.9995,-2.0203,-2.0216,-2.0318,-2.0354,-2.039,-2.039,-2.034,-2.0216,-2.0357,-2.0509,-2.0595,-2.0843,-2.1006,-2.1103,-2.1183,-2.1341,-2.1559,-2.1589,-2.1694,-2.1853,-2.1969,-2.2044,-2.2197,-2.2271,-2.2327,-2.2327,-2.2327,-2.2327,-2.2327,-2.2327,-2.2282,-2.2209,-2.2061,-2.1928,-2.1738,-2.145,-2.1038,-2.0711,-2.0426,-2.022,-2.001,-1.9848,-1.9669,-1.9553,-1.9612,-1.9517,-1.9305,-1.9535,-1.9921,-1.9964,-2.0857,-2.1421,-2.1594,-2.1616,-2.152,-2.1423,-2.1326,-2.1229,-2.118,-2.1144,-2.1059,-2.0911,-2.0749,-2.0762,-2.0699,-2.0649,-2.0586,-2.0385,-2.0372,-2.0321,-2.7381,-2.7253,-2.7304,-2.7176,-2.6965,-2.751,-2.7457,-2.701,-2.7547,-2.7663,-2.7305,-2.6762,-2.6471,-2.6329,-2.5795,-2.5783,-2.6183,-2.562,-2.5282,-2.5225,-2.5113,-2.5051,-2.5012,-2.4966,-2.5004,-2.5025,-2.5044,-2.5075,-2.513,-2.5153,-2.513,-2.505,-2.4891,-2.4762,-2.4595,-2.4329,-2.358,-2.2236,-2.1581,-2.0681,-1.9269,-1.8855,-1.8734,-1.8646,-1.9126,-1.9536,-1.9617,-1.9741,-1.9812,-1.9863,-1.9899,-1.9975,-2.01,-2.0323,-2.046,-2.0512,-2.0745,-2.0925,-2.107,-2.1167,-2.131,-2.1559,-2.162,-2.1694,-2.1882,-2.1969,-2.2073,-2.2197,-2.2271,-2.2327,-2.2327,-2.2327,-2.2327,-2.2327,-2.2327,-2.2282,-2.2242,-2.2135,-2.2003,-2.1781,-2.1526,-2.1199,-2.0924,-2.0628,-2.041,-2.0204,-1.9975,-1.9777,-1.9611,-1.9413,-1.9176,-1.8865,-1.8959,-1.9153,-1.9267,-1.9844,-2.0643,-2.0885,-2.1281,-2.1301,-2.1218,-2.1148,-2.1091,-2.1068,-2.0997,-2.0924,-2.0775,-2.0575,-2.0461,-2.041,-2.0398,-2.0334,-2.0182,-2.0067,-2.0029,-2.6197,-2.5597,-2.5522,-2.6126,-2.666,-2.6907,-2.6949,-2.691,-2.6953,-2.6597,-2.6039,-2.5793,-2.5782,-2.5671,-2.5648,-2.562,-2.5646,-2.548,-2.537,-2.5292,-2.5217,-2.5168,-2.5094,-2.5094,-2.5094,-2.5118,-2.5168,-2.5203,-2.5233,-2.5274,-2.5254,-2.5214,-2.5156,-2.5018,-2.4896,-2.4306,-2.2502,-2.0,-1.9514,-1.8052,-1.5237,-1.5954,-1.671,-1.718,-1.7773,-1.8419,-1.9176,-1.9265,-1.9413,-1.9574,-1.9669,-1.9833,-2.003,-2.022,-2.0373,-2.0494,-2.0695,-2.0892,-2.107,-2.1151,-2.1326,-2.1528,-2.1589,-2.1708,-2.1928,-2.1998,-2.2073,-2.2237,-2.2282,-2.2327,-2.2327,-2.2327,-2.2327,-2.2327,-2.2327,-2.2282,-2.2282,-2.2225,-2.2094,-2.1857,-2.1648,-2.1497,-2.1215,-2.0893,-2.0613,-2.0376,-2.008,-1.9777,-1.9611,-1.9413,-1.9116,-1.8788,-1.863,-1.856,-1.87,-1.8859,-1.9537,-2.0143,-2.0604,-2.0879,-2.0729,-2.0633,-2.0656,-2.066,-2.0709,-2.0649,-2.0562,-2.0347,-2.0233,-2.0182,-2.0118,-2.0029,-1.9926,-1.9772,-1.9668,-2.5543,-2.5438,-2.6023,-2.6056,-2.5955,-2.654,-2.6539,-2.6045,-2.6054,-2.5893,-2.5723,-2.5702,-2.5697,-2.5672,-2.5661,-2.5654,-2.5603,-2.5547,-2.5479,-2.5376,-2.5303,-2.5241,-2.5239,-2.5179,-2.5201,-2.5244,-2.5293,-2.5337,-2.5343,-2.5391,-2.5413,-2.5401,-2.5311,-2.5253,-2.4872,-2.2618,-2.0392,-1.9399,-1.6833,-1.4977,-1.4171,-1.4607,-1.5104,-1.5639,-1.6316,-1.7081,-1.776,-1.8563,-1.9026,-1.9116,-1.9325,-1.9545,-1.9869,-2.0166,-2.0357,-2.0478,-2.0644,-2.0859,-2.1038,-2.1103,-2.1215,-2.1419,-2.1542,-2.1678,-2.184,-2.194,-2.2061,-2.2225,-2.2254,-2.2327,-2.2327,-2.2327,-2.2327,-2.2327,-2.2327,-2.2327,-2.2282,-2.2254,-2.2094,-2.1899,-2.184,-2.1678,-2.1402,-2.1103,-2.0893,-2.061,-2.0254,-1.994,-1.9705,-1.9288,-1.8988,-1.8711,-1.8428,-1.807,-1.8126,-1.82,-1.8538,-1.9128,-1.9628,-2.0133,-2.0099,-2.007,-2.0105,-2.0257,-2.0367,-2.0372,-2.0283,-2.0131,-1.9965,-1.9875,-1.9772,-1.9668,-1.9565,-1.9512,-1.9408,-2.5176,-2.5297,-2.583,-2.5813,-2.5436,-2.6036,-2.5996,-2.5579,-2.5565,-2.56,-2.5646,-2.5657,-2.5661,-2.5663,-2.5664,-2.5643,-2.5602,-2.5607,-2.5551,-2.5471,-2.5371,-2.533,-2.536,-2.5331,-2.532,-2.5379,-2.5452,-2.5447,-2.5453,-2.5503,-2.5535,-2.5414,-2.4193,-2.3445,-2.316,-1.9918,-1.7604,-1.6068,-1.4063,-1.2498,-1.1887,-1.2402,-1.3258,-1.4039,-1.5004,-1.5835,-1.6549,-1.749,-1.8212,-1.8592,-1.8965,-1.9339,-1.969,-1.994,-2.0185,-2.0392,-2.0543,-2.0677,-2.0957,-2.1006,-2.1119,-2.1309,-2.145,-2.1603,-2.1751,-2.1899,-2.2003,-2.2168,-2.2225,-2.2282,-2.2282,-2.2327,-2.2327,-2.2327,-2.2327,-2.2327,-2.2282,-2.2254,-2.2152,-2.2032,-2.194,-2.1764,-2.157,-2.1309,-2.1071,-2.0777,-2.0357,-1.9995,-1.9675,-1.9236,-1.8912,-1.8567,-1.8149,-1.7868,-1.7584,-1.7602,-1.7652,-1.807,-1.8545,-1.9022,-1.9271,-1.9308,-1.9357,-1.9739,-1.9937,-2.0067,-2.0029,-1.9823,-1.9668,-1.9565,-1.9473,-1.9408,-1.9356,-1.9251,-1.9198,-2.5025,-2.5101,-2.5153,-2.5267,-2.5262,-2.5361,-2.5423,-2.5478,-2.5499,-2.5526,-2.557,-2.5593,-2.559,-2.5598,-2.5586,-2.559,-2.5595,-2.5603,-2.5605,-2.5554,-2.5468,-2.5434,-2.5478,-2.5499,-2.548,-2.5504,-2.5566,-2.5554,-2.5519,-2.5549,-2.5421,-2.4615,-2.2125,-2.0307,-1.9731,-1.6822,-1.362,-1.1612,-1.1251,-1.0019,-0.8034,-0.9607,-1.1215,-1.2503,-1.3695,-1.4687,-1.5431,-1.6188,-1.7063,-1.8029,-1.862,-1.904,-1.9435,-1.9654,-1.9904,-2.022,-2.0354,-2.0509,-2.0695,-2.0761,-2.0925,-2.1214,-2.1277,-2.1433,-2.1678,-2.1768,-2.1903,-2.2094,-2.214,-2.218,-2.2254,-2.2282,-2.2282,-2.2282,-2.2282,-2.2299,-2.2327,-2.2299,-2.2225,-2.2152,-2.2061,-2.1911,-2.1678,-2.1388,-2.1103,-2.0761,-2.0376,-1.9995,-1.9639,-1.9199,-1.8731,-1.8319,-1.7895,-1.7529,-1.724,-1.6999,-1.7015,-1.7111,-1.7473,-1.7805,-1.8267,-1.8434,-1.8754,-1.9164,-1.9446,-1.9636,-1.9708,-1.9512,-1.9356,-1.9263,-1.921,-1.9198,-1.9093,-1.904,-1.8934,-2.4874,-2.4942,-2.4987,-2.5006,-2.5087,-2.5134,-2.5212,-2.5284,-2.5337,-2.5376,-2.5453,-2.5492,-2.5521,-2.5522,-2.5517,-2.5522,-2.5517,-2.5516,-2.5561,-2.5605,-2.5565,-2.5544,-2.557,-2.5574,-2.5574,-2.5587,-2.5568,-2.5602,-2.5566,-2.5292,-2.4181,-2.1991,-2.074,-1.92,-1.7188,-1.3585,-1.1686,-1.0622,-0.8489,-0.7782,-0.7729,-0.8692,-0.9938,-1.1107,-1.2337,-1.3406,-1.4261,-1.5186,-1.6343,-1.7557,-1.8149,-1.8581,-1.8921,-1.9221,-1.95,-1.9854,-2.0061,-2.0235,-2.0494,-2.0561,-2.0712,-2.0974,-2.1087,-2.123,-2.1402,-2.1573,-2.1724,-2.1873,-2.1945,-2.2003,-2.2089,-2.2089,-2.2089,-2.2101,-2.2163,-2.2254,-2.2282,-2.2271,-2.2214,-2.2185,-2.2049,-2.1857,-2.1634,-2.1356,-2.1054,-2.0711,-2.0308,-1.9925,-1.9493,-1.8997,-1.85,-1.8028,-1.7639,-1.7227,-1.6863,-1.6577,-1.6399,-1.6293,-1.6416,-1.6522,-1.7023,-1.7395,-1.7959,-1.8585,-1.8796,-1.8916,-1.9132,-1.9133,-1.9052,-1.8958,-1.8893,-1.8774,-1.8774,-1.8732,-1.8667,-2.4783,-2.4804,-2.4804,-2.4851,-2.4874,-2.4959,-2.5019,-2.508,-2.5149,-2.5225,-2.5302,-2.5357,-2.5371,-2.5376,-2.5387,-2.5387,-2.5364,-2.5401,-2.5441,-2.5521,-2.5535,-2.5558,-2.5582,-2.5599,-2.5585,-2.5566,-2.5523,-2.4724,-2.3709,-2.3569,-2.1775,-1.8945,-1.7322,-1.5741,-1.4022,-1.0539,-0.8783,-0.8808,-0.7246,-0.6761,-0.7402,-0.8402,-0.934,-1.0364,-1.1416,-1.2453,-1.3484,-1.4318,-1.5443,-1.6727,-1.7475,-1.7922,-1.8436,-1.8717,-1.9043,-1.9376,-1.9603,-1.9782,-1.9995,-2.0135,-2.0326,-2.053,-2.0728,-2.0925,-2.1087,-2.1262,-2.145,-2.1556,-2.1708,-2.1797,-2.1869,-2.1869,-2.1823,-2.1794,-2.1899,-2.2003,-2.2135,-2.2123,-2.2094,-2.202,-2.1886,-2.1724,-2.1481,-2.1199,-2.086,-2.0494,-2.005,-1.966,-1.9221,-1.8693,-1.8173,-1.7707,-1.7227,-1.6808,-1.6479,-1.6188,-1.5925,-1.5792,-1.5703,-1.5736,-1.6046,-1.6536,-1.71,-1.7715,-1.803,-1.8265,-1.845,-1.8631,-1.8625,-1.8583,-1.8464,-1.841,-1.8356,-1.841,-1.8344,-2.4663,-2.4692,-2.4657,-2.4676,-2.4692,-2.4723,-2.4813,-2.4861,-2.4934,-2.5038,-2.5126,-2.516,-2.5163,-2.5154,-2.5154,-2.5154,-2.5165,-2.5207,-2.5292,-2.5178,-2.4934,-2.4583,-2.4587,-2.5344,-2.55,-2.5375,-2.5278,-2.3439,-2.1678,-2.0909,-1.8715,-1.5983,-1.2935,-1.1281,-1.0555,-0.7826,-0.6474,-0.6924,-0.7116,-0.7144,-0.7622,-0.8408,-0.919,-0.9961,-1.0922,-1.1922,-1.2812,-1.3532,-1.44,-1.5808,-1.6514,-1.7105,-1.768,-1.8027,-1.838,-1.865,-1.8855,-1.9058,-1.9281,-1.9485,-1.9737,-1.9929,-2.0189,-2.0478,-2.0646,-2.0844,-2.0974,-2.1166,-2.1388,-2.1464,-2.1526,-2.1556,-2.1462,-2.1401,-2.1401,-2.157,-2.1748,-2.1823,-2.184,-2.1794,-2.1617,-2.1419,-2.1183,-2.0877,-2.0478,-1.998,-1.9609,-1.9207,-1.8755,-1.8252,-1.772,-1.7188,-1.6752,-1.6349,-1.6057,-1.5804,-1.557,-1.5379,-1.521,-1.521,-1.5437,-1.5887,-1.631,-1.6728,-1.7049,-1.7396,-1.7815,-1.7926,-1.8063,-1.8205,-1.8084,-1.803,-1.7975,-1.803,-1.803,-2.4498,-2.4545,-2.4476,-2.4458,-2.4458,-2.4545,-2.4578,-2.4591,-2.4723,-2.4775,-2.4828,-2.4921,-2.4955,-2.4962,-2.4923,-2.491,-2.4879,-2.4827,-2.4998,-2.4879,-2.2655,-2.1936,-2.2372,-2.3906,-2.5187,-2.4615,-2.282,-2.1481,-2.0375,-1.8056,-1.5819,-1.2936,-1.1681,-1.0288,-0.8091,-0.7442,-0.6825,-0.7095,-0.7306,-0.7521,-0.7895,-0.8468,-0.9093,-0.9658,-1.0592,-1.136,-1.1959,-1.2393,-1.2899,-1.369,-1.4846,-1.5828,-1.6446,-1.6828,-1.719,-1.7639,-1.7854,-1.8092,-1.8444,-1.8598,-1.8864,-1.9163,-1.9361,-1.963,-2.0039,-2.0224,-2.0395,-2.063,-2.0763,-2.0828,-2.0893,-2.0861,-2.078,-2.078,-2.0859,-2.0842,-2.0812,-2.1103,-2.1308,-2.1166,-2.0991,-2.0745,-2.0481,-2.0089,-1.9737,-1.9427,-1.9058,-1.8731,-1.8212,-1.768,-1.7146,-1.6557,-1.6126,-1.5724,-1.5558,-1.53,-1.5062,-1.488,-1.4697,-1.4616,-1.4879,-1.5062,-1.5487,-1.5787,-1.6028,-1.6474,-1.6888,-1.7258,-1.7337,-1.7574,-1.7744,-1.77,-1.7645,-1.7645,-1.7645,-2.4321,-2.4357,-2.432,-2.4266,-2.4229,-2.4302,-2.4339,-2.4338,-2.4444,-2.4526,-2.4572,-2.467,-2.4685,-2.4666,-2.4636,-2.4636,-2.4312,-2.3319,-2.2832,-2.2257,-2.0188,-1.8896,-1.8992,-2.0327,-2.1346,-2.0988,-1.9809,-1.8397,-1.6619,-1.5175,-1.2824,-0.9913,-0.9686,-0.8745,-0.7359,-0.7095,-0.7203,-0.7365,-0.7628,-0.7842,-0.8262,-0.8633,-0.9152,-0.9621,-1.0352,-1.0871,-1.1217,-1.146,-1.1751,-1.2218,-1.3052,-1.4182,-1.5106,-1.5552,-1.5922,-1.6421,-1.6676,-1.6831,-1.7164,-1.7504,-1.7733,-1.809,-1.8391,-1.8774,-1.9096,-1.9325,-1.9522,-1.9722,-1.9899,-2.0019,-2.0089,-2.0054,-1.9969,-1.9864,-1.9874,-1.9803,-1.9743,-2.028,-2.0714,-2.0483,-2.0246,-1.9969,-1.9651,-1.9236,-1.8902,-1.8521,-1.8104,-1.7733,-1.734,-1.6799,-1.6373,-1.5864,-1.5466,-1.513,-1.4971,-1.4754,-1.4466,-1.4326,-1.4176,-1.4093,-1.415,-1.4312,-1.4554,-1.4879,-1.5255,-1.5486,-1.5903,-1.6273,-1.6642,-1.6776,-1.6983,-1.7147,-1.7256,-1.72,-1.72,-2.4134,-2.4133,-2.4135,-2.4057,-2.3976,-2.4094,-2.4094,-2.4074,-2.4191,-2.4284,-2.4355,-2.4408,-2.4426,-2.4355,-2.4355,-2.4221,-2.3103,-2.1279,-2.0108,-1.9669,-1.7274,-1.6184,-1.6039,-1.5808,-1.5564,-1.5381,-1.5924,-1.466,-1.3141,-1.1544,-1.0312,-0.782,-0.7475,-0.7635,-0.7326,-0.7306,-0.7419,-0.7628,-0.7842,-0.8162,-0.858,-0.8896,-0.9316,-0.9844,-1.0043,-1.0308,-1.0565,-1.071,-1.0804,-1.099,-1.1225,-1.219,-1.328,-1.4136,-1.4482,-1.505,-1.525,-1.5516,-1.5847,-1.6194,-1.6494,-1.6815,-1.7246,-1.7652,-1.7946,-1.8207,-1.8401,-1.8622,-1.8797,-1.8948,-1.8999,-1.8948,-1.8873,-1.8745,-1.8593,-1.8478,-1.8541,-1.9141,-1.9214,-1.9585,-1.928,-1.8985,-1.8684,-1.8313,-1.7973,-1.7612,-1.719,-1.676,-1.6318,-1.5952,-1.5555,-1.5197,-1.4755,-1.4525,-1.4373,-1.428,-1.4046,-1.3905,-1.3705,-1.3621,-1.3563,-1.3716,-1.3984,-1.4226,-1.4536,-1.4779,-1.5157,-1.5633,-1.5914,-1.6051,-1.6369,-1.6722,-1.6807,-1.6751,-1.6807,-2.3837,-2.3937,-2.3878,-2.3831,-2.3786,-2.3834,-2.3813,-2.3807,-2.3955,-2.4056,-2.4077,-2.419,-2.4191,-2.4045,-2.4117,-2.304,-2.0967,-1.8726,-1.7491,-1.69,-1.4656,-1.3289,-1.3029,-1.1836,-1.0723,-1.0714,-1.2106,-1.2806,-1.1815,-1.0043,-0.8862,-0.8059,-0.7735,-0.7568,-0.7568,-0.7622,-0.7681,-0.7842,-0.8109,-0.8427,-0.8745,-0.9008,-0.9316,-0.9747,-0.9784,-0.9836,-0.9895,-0.9984,-1.002,-1.0072,-1.0167,-1.0517,-1.114,-1.2132,-1.2908,-1.3517,-1.3799,-1.4021,-1.4505,-1.4846,-1.5252,-1.5608,-1.5847,-1.6194,-1.6579,-1.6915,-1.7096,-1.7356,-1.7531,-1.7693,-1.7693,-1.7639,-1.7612,-1.7531,-1.7356,-1.7192,-1.7096,-1.7032,-1.7277,-1.7889,-1.7958,-1.7906,-1.7545,-1.7164,-1.6844,-1.6519,-1.6133,-1.5772,-1.5386,-1.505,-1.4698,-1.4387,-1.4071,-1.3894,-1.3763,-1.3716,-1.3621,-1.3525,-1.3372,-1.3286,-1.3238,-1.3218,-1.344,-1.3738,-1.3966,-1.4192,-1.461,-1.5091,-1.5508,-1.5839,-1.613,-1.64,-1.641,-1.6467,-1.6524,-2.362,-2.366,-2.3664,-2.3616,-2.3544,-2.3594,-2.3571,-2.3526,-2.3703,-2.3789,-2.3831,-2.3844,-2.3258,-2.254,-2.2258,-2.0901,-1.8559,-1.5971,-1.4871,-1.4074,-1.2031,-1.0669,-1.0818,-0.9394,-0.9283,-0.9591,-1.0471,-1.0927,-1.0705,-0.934,-0.8362,-0.8215,-0.7949,-0.7783,-0.7729,-0.7788,-0.7895,-0.8109,-0.8374,-0.8639,-0.891,-0.9113,-0.9368,-0.9472,-0.942,-0.9316,-0.9375,-0.9316,-0.9263,-0.9316,-0.9368,-0.9465,-0.9762,-1.0261,-1.1116,-1.1886,-1.2278,-1.258,-1.3014,-1.3311,-1.3643,-1.4064,-1.4332,-1.4642,-1.5083,-1.5384,-1.5616,-1.5922,-1.6053,-1.6182,-1.6255,-1.6225,-1.6237,-1.6194,-1.6065,-1.5947,-1.5804,-1.5457,-1.5763,-1.6261,-1.6443,-1.6426,-1.625,-1.5915,-1.5632,-1.5377,-1.5062,-1.4778,-1.4457,-1.4236,-1.392,-1.3695,-1.3467,-1.3382,-1.3326,-1.3319,-1.3339,-1.3232,-1.3204,-1.3106,-1.2978,-1.3067,-1.3096,-1.3322,-1.3511,-1.381,-1.4165,-1.4634,-1.5154,-1.5609,-1.5853,-1.6046,-1.6066,-1.6134,-1.6239,-2.3342,-2.3336,-2.3435,-2.3365,-2.3265,-2.3336,-2.3336,-2.3289,-2.3412,-2.3526,-2.3486,-2.3069,-2.2017,-2.0561,-1.9238,-1.7843,-1.6038,-1.3353,-1.2196,-1.1683,-1.0174,-0.9029,-0.9096,-0.9241,-0.946,-0.9758,-0.9741,-0.9356,-0.9453,-0.8967,-0.8679,-0.848,-0.8168,-0.7949,-0.7889,-0.8002,-0.8109,-0.8268,-0.8474,-0.8738,-0.8956,-0.9113,-0.9211,-0.9263,-0.9054,-0.8903,-0.8903,-0.8738,-0.8685,-0.8692,-0.8699,-0.8752,-0.885,-0.8903,-0.9406,-1.0364,-1.0771,-1.1166,-1.1625,-1.1873,-1.2267,-1.2754,-1.289,-1.3263,-1.369,-1.4007,-1.4079,-1.447,-1.4562,-1.4642,-1.4722,-1.4778,-1.479,-1.479,-1.471,-1.4641,-1.4584,-1.4378,-1.4171,-1.4574,-1.4948,-1.505,-1.4937,-1.4812,-1.4549,-1.4354,-1.4086,-1.3899,-1.3627,-1.3457,-1.3228,-1.3084,-1.2949,-1.291,-1.293,-1.3007,-1.3046,-1.3095,-1.3159,-1.3183,-1.3046,-1.2928,-1.3052,-1.3275,-1.3404,-1.3677,-1.3957,-1.4245,-1.4775,-1.5229,-1.5504,-1.5633,-1.5604,-1.573,-1.5836,-2.2893,-2.3045,-2.3052,-2.302,-2.297,-2.3045,-2.3003,-2.2952,-2.3005,-2.3223,-2.2898,-2.1509,-2.0463,-1.9003,-1.5548,-1.3975,-1.2819,-1.1344,-1.0055,-0.9872,-0.9328,-0.9031,-0.9036,-0.915,-0.9547,-0.9856,-0.9748,-0.9625,-0.9423,-0.9033,-0.8811,-0.8699,-0.848,-0.8321,-0.8262,-0.8262,-0.8421,-0.8527,-0.8573,-0.8738,-0.8956,-0.9008,-0.9008,-0.8903,-0.8692,-0.848,-0.8421,-0.8256,-0.8103,-0.8268,-0.8275,-0.8328,-0.8427,-0.8474,-0.858,-0.904,-0.9555,-1.0226,-1.0685,-1.0889,-1.1191,-1.1642,-1.1792,-1.2215,-1.2598,-1.2696,-1.2754,-1.2996,-1.3092,-1.3178,-1.3311,-1.3273,-1.3341,-1.3437,-1.3474,-1.3389,-1.3294,-1.3379,-1.314,-1.3034,-1.348,-1.3737,-1.3758,-1.3627,-1.3505,-1.3304,-1.315,-1.2967,-1.2832,-1.2754,-1.2706,-1.2608,-1.2702,-1.274,-1.2814,-1.2859,-1.2982,-1.302,-1.3077,-1.3231,-1.3103,-1.3004,-1.3271,-1.3418,-1.3493,-1.367,-1.4067,-1.4363,-1.4611,-1.4907,-1.5245,-1.5254,-1.5098,-1.5264,-1.543,-2.2332,-2.2659,-2.2703,-2.2685,-2.2632,-2.2685,-2.2685,-2.2442,-2.1789,-2.1313,-2.0814,-1.9374,-1.7799,-1.5843,-1.2712,-1.1373,-1.0823,-0.9801,-0.9249,-0.9162,-0.9147,-0.9212,-0.9369,-0.9452,-0.9719,-0.9721,-0.9684,-0.9545,-0.945,-0.9379,-0.9211,-0.9008,-0.8752,-0.8586,-0.8573,-0.8521,-0.8521,-0.8626,-0.8685,-0.8738,-0.8798,-0.8745,-0.8738,-0.8692,-0.8321,-0.8109,-0.7996,-0.783,-0.7729,-0.7788,-0.7788,-0.7836,-0.7937,-0.7996,-0.8103,-0.8427,-0.8784,-0.9256,-0.9725,-0.9976,-1.0336,-1.0592,-1.0812,-1.1116,-1.1477,-1.161,-1.1625,-1.1841,-1.185,-1.195,-1.2098,-1.2147,-1.2295,-1.2353,-1.2393,-1.2393,-1.2344,-1.2255,-1.2197,-1.2049,-1.1999,-1.2384,-1.2725,-1.2783,-1.2735,-1.2638,-1.255,-1.2421,-1.2323,-1.2215,-1.2274,-1.2264,-1.2469,-1.2674,-1.2833,-1.2973,-1.3125,-1.319,-1.3039,-1.3141,-1.315,-1.315,-1.335,-1.3468,-1.3506,-1.3782,-1.4188,-1.4361,-1.4496,-1.4753,-1.5039,-1.4921,-1.4793,-1.4843,-1.501,-2.1724,-2.2106,-2.2248,-2.2321,-2.2276,-2.2332,-2.2048,-2.1512,-2.0503,-1.9569,-1.8459,-1.6992,-1.4858,-1.2688,-1.1043,-1.0121,-0.9664,-0.9378,-0.9279,-0.9279,-0.9263,-0.9289,-0.9399,-0.9504,-0.9606,-0.9694,-0.9514,-0.9439,-0.9466,-0.9507,-0.9409,-0.9256,-0.9008,-0.8903,-0.8784,-0.8784,-0.8784,-0.8732,-0.8745,-0.8685,-0.8633,-0.8468,-0.8368,-0.8215,-0.7949,-0.7681,-0.7622,-0.7461,-0.7413,-0.7467,-0.7467,-0.7568,-0.7723,-0.7777,-0.7943,-0.8215,-0.848,-0.8685,-0.9047,-0.9361,-0.9569,-0.9836,-1.0102,-1.0403,-1.0514,-1.0616,-1.0718,-1.0854,-1.0863,-1.1015,-1.1124,-1.1226,-1.1318,-1.1469,-1.1569,-1.1569,-1.1619,-1.1569,-1.1569,-1.151,-1.146,-1.1469,-1.171,-1.1868,-1.1918,-1.1927,-1.1886,-1.1872,-1.1926,-1.1962,-1.2208,-1.2383,-1.2565,-1.2828,-1.2991,-1.3112,-1.3305,-1.335,-1.3193,-1.3218,-1.3259,-1.3256,-1.3323,-1.342,-1.3522,-1.3781,-1.4037,-1.4212,-1.441,-1.4508,-1.4625,-1.4616,-1.4606,-1.4529,-1.4529,-2.1247,-2.131,-2.1678,-2.1869,-2.1924,-2.1957,-2.1085,-1.9915,-1.9446,-1.8253,-1.6513,-1.4641,-1.2465,-1.0799,-1.0232,-0.9801,-0.9667,-0.9408,-0.9364,-0.9313,-0.9288,-0.9206,-0.9274,-0.9324,-0.9434,-0.9641,-0.9567,-0.9481,-0.9447,-0.9634,-0.9503,-0.9377,-0.9225,-0.9166,-0.9086,-0.9006,-0.8847,-0.8723,-0.8605,-0.8502,-0.8416,-0.8171,-0.7984,-0.7842,-0.758,-0.7311,-0.7311,-0.7252,-0.7198,-0.7306,-0.7311,-0.7413,-0.7622,-0.767,-0.7889,-0.8162,-0.8321,-0.8527,-0.8732,-0.9001,-0.9263,-0.9577,-0.9836,-0.9991,-1.0102,-0.9991,-1.0043,-1.0146,-1.0198,-1.0257,-1.036,-1.0419,-1.0573,-1.0718,-1.0913,-1.0972,-1.1023,-1.1074,-1.1023,-1.0972,-1.0972,-1.1023,-1.1124,-1.1377,-1.1578,-1.1628,-1.1796,-1.1789,-1.2025,-1.2165,-1.2449,-1.2699,-1.2842,-1.3086,-1.3241,-1.3377,-1.3528,-1.3557,-1.3487,-1.3512,-1.3611,-1.3518,-1.3287,-1.3407,-1.351,-1.3682,-1.3812,-1.3826,-1.3909,-1.4195,-1.4258,-1.413,-1.4001,-1.3932,-1.3992,-2.0941,-2.0909,-2.1071,-2.1293,-2.154,-2.0964,-2.0175,-1.9037,-1.7501,-1.5384,-1.3246,-1.1876,-1.0848,-1.0175,-0.9953,-0.9769,-0.9591,-0.9386,-0.9321,-0.9238,-0.9122,-0.9153,-0.9215,-0.9397,-0.9571,-0.9675,-0.9672,-0.9619,-0.9612,-0.9802,-0.9909,-0.979,-0.9535,-0.9271,-0.9176,-0.8999,-0.8666,-0.836,-0.8147,-0.7973,-0.7889,-0.7765,-0.7576,-0.7521,-0.7419,-0.7252,-0.7198,-0.7139,-0.7139,-0.7198,-0.7252,-0.7413,-0.7568,-0.767,-0.7889,-0.8168,-0.8321,-0.8474,-0.8633,-0.8844,-0.9166,-0.9413,-0.9621,-0.9725,-0.9784,-0.9725,-0.9725,-0.9725,-0.9777,-0.9888,-0.9955,-1.0007,-1.0102,-1.0205,-1.0308,-1.0419,-1.0522,-1.0624,-1.0726,-1.0718,-1.0718,-1.0769,-1.0871,-1.1023,-1.1175,-1.1335,-1.1533,-1.1791,-1.2122,-1.2377,-1.265,-1.2908,-1.3105,-1.3251,-1.3408,-1.3593,-1.3803,-1.3696,-1.3579,-1.352,-1.3398,-1.3329,-1.3141,-1.3277,-1.3285,-1.3277,-1.3285,-1.3354,-1.3476,-1.3709,-1.3649,-1.3528,-1.3398,-1.3268,-1.3329,-2.0644,-2.0626,-2.061,-2.0661,-2.0744,-1.9975,-1.8939,-1.7598,-1.5758,-1.3381,-1.0915,-1.043,-1.0205,-1.0137,-1.0098,-0.9902,-0.9692,-0.9484,-0.9395,-0.9336,-0.9342,-0.9424,-0.9665,-0.9878,-0.9996,-0.9952,-0.9857,-0.9853,-0.985,-1.0136,-1.0188,-1.0097,-0.9926,-0.9707,-0.9327,-0.885,-0.8371,-0.7996,-0.7704,-0.7509,-0.7412,-0.733,-0.7258,-0.7248,-0.7197,-0.7252,-0.7198,-0.7192,-0.7198,-0.7252,-0.7359,-0.7413,-0.7568,-0.7676,-0.7889,-0.8162,-0.8321,-0.8474,-0.8685,-0.8896,-0.9166,-0.9316,-0.9517,-0.9621,-0.9614,-0.9614,-0.9614,-0.9614,-0.9614,-0.9673,-0.974,-0.9784,-0.9844,-0.9991,-1.0102,-1.0213,-1.0368,-1.047,-1.0522,-1.0573,-1.0565,-1.0624,-1.0867,-1.1054,-1.1403,-1.1619,-1.1841,-1.2143,-1.2465,-1.2694,-1.2898,-1.3147,-1.3313,-1.3441,-1.3512,-1.3517,-1.3502,-1.3356,-1.3226,-1.3061,-1.2972,-1.2858,-1.2744,-1.2736,-1.2736,-1.2744,-1.2744,-1.2744,-1.292,-1.3216,-1.3094,-1.2911,-1.2789,-1.272,-1.2666,-2.0339,-2.0373,-2.0385,-2.0061,-1.9541,-1.9029,-1.7503,-1.5497,-1.433,-1.2801,-1.0992,-1.0649,-1.0467,-1.0332,-1.0283,-1.0088,-0.9853,-0.9753,-0.967,-0.965,-0.9775,-0.9978,-1.0184,-1.0347,-1.0454,-1.0445,-1.03,-1.0161,-1.0124,-1.0324,-1.0401,-1.0419,-1.0333,-1.0127,-0.9781,-0.9006,-0.842,-0.8004,-0.7624,-0.7331,-0.7182,-0.7078,-0.7002,-0.7086,-0.7098,-0.7175,-0.7306,-0.7306,-0.7306,-0.7413,-0.7467,-0.7574,-0.7676,-0.7783,-0.7996,-0.8368,-0.8368,-0.8533,-0.8752,-0.9054,-0.9159,-0.9263,-0.9465,-0.9614,-0.9614,-0.9614,-0.9621,-0.9621,-0.9621,-0.9621,-0.9621,-0.9673,-0.9732,-0.9836,-0.9999,-1.0162,-1.0265,-1.0419,-1.047,-1.0522,-1.0522,-1.0597,-1.0873,-1.122,-1.1595,-1.1933,-1.2209,-1.2458,-1.2723,-1.2928,-1.3098,-1.3175,-1.3339,-1.3305,-1.3288,-1.3296,-1.3191,-1.3042,-1.2797,-1.2605,-1.2421,-1.2305,-1.2251,-1.2189,-1.2182,-1.2182,-1.2182,-1.212,-1.2297,-1.2421,-1.2421,-1.2297,-1.2174,-1.2112,-1.2112,-2.0235,-2.0085,-1.9731,-1.9105,-1.8373,-1.8352,-1.7087,-1.4983,-1.3206,-1.1788,-1.1036,-1.0802,-1.0697,-1.0544,-1.039,-1.0273,-1.0127,-0.995,-0.9888,-1.01,-1.0149,-1.0272,-1.0471,-1.0713,-1.0795,-1.0742,-1.064,-1.0606,-1.0653,-1.0732,-1.0819,-1.0849,-1.0465,-1.0066,-0.9463,-0.8741,-0.8223,-0.7637,-0.7201,-0.6853,-0.6817,-0.6684,-0.6689,-0.6963,-0.7091,-0.7203,-0.7402,-0.7413,-0.7467,-0.7521,-0.7628,-0.7735,-0.7842,-0.7949,-0.8209,-0.8474,-0.8527,-0.8685,-0.8903,-0.9113,-0.9152,-0.9256,-0.9413,-0.9614,-0.9614,-0.9614,-0.9621,-0.9681,-0.9681,-0.9732,-0.9836,-0.9836,-0.9947,-0.9999,-1.011,-1.0213,-1.0316,-1.0419,-1.0522,-1.0522,-1.0522,-1.0825,-1.1137,-1.1473,-1.1852,-1.2273,-1.2575,-1.2683,-1.2937,-1.3084,-1.3194,-1.3211,-1.3226,-1.313,-1.3103,-1.2911,-1.2658,-1.2421,-1.2243,-1.2058,-1.1934,-1.1817,-1.1747,-1.1747,-1.1677,-1.1615,-1.1615,-1.1622,-1.156,-1.156,-1.1677,-1.1677,-1.1622,-1.1615,-1.1545,-2.0061,-1.9851,-1.9342,-1.857,-1.7765,-1.7482,-1.6238,-1.4233,-1.2315,-1.1325,-1.1126,-1.1012,-1.085,-1.0697,-1.0582,-1.0428,-1.0322,-1.0176,-1.0278,-1.0484,-1.0478,-1.0684,-1.0921,-1.1054,-1.1068,-1.1068,-1.104,-1.1076,-1.1083,-1.1285,-1.1128,-1.0716,-1.0366,-0.9744,-0.9112,-0.8586,-0.8073,-0.7534,-0.7079,-0.6913,-0.6836,-0.6715,-0.6718,-0.6979,-0.7144,-0.7264,-0.7494,-0.7568,-0.7568,-0.7687,-0.7794,-0.7901,-0.8008,-0.8115,-0.8321,-0.8474,-0.8626,-0.8685,-0.8844,-0.8962,-0.9008,-0.9061,-0.9368,-0.9621,-0.9621,-0.9621,-0.9681,-0.974,-0.974,-0.9784,-0.9836,-0.9888,-0.9895,-0.9947,-1.0007,-1.011,-1.0213,-1.0316,-1.0368,-1.0368,-1.0494,-1.089,-1.1444,-1.1779,-1.2139,-1.2547,-1.2991,-1.2983,-1.2966,-1.3049,-1.3111,-1.305,-1.2928,-1.2736,-1.2552,-1.2428,-1.2174,-1.1872,-1.1685,-1.156,-1.1498,-1.1435,-1.1373,-1.1373,-1.131,-1.1303,-1.1185,-1.1122,-1.1122,-1.1122,-1.1115,-1.1122,-1.1066,-1.1185,-1.124,-1.9773,-1.969,-1.9129,-1.8439,-1.763,-1.6481,-1.4761,-1.277,-1.1886,-1.1485,-1.1485,-1.1195,-1.1071,-1.0926,-1.086,-1.0669,-1.0517,-1.0439,-1.0622,-1.0893,-1.1123,-1.1315,-1.1501,-1.1616,-1.1489,-1.1379,-1.1328,-1.1357,-1.1486,-1.1252,-1.09,-1.0407,-0.9873,-0.9354,-0.8854,-0.8476,-0.7972,-0.7523,-0.7285,-0.7115,-0.6933,-0.6869,-0.693,-0.7069,-0.7172,-0.7338,-0.7535,-0.7676,-0.7735,-0.7848,-0.7907,-0.7907,-0.7907,-0.7901,-0.8109,-0.8315,-0.8527,-0.858,-0.8633,-0.8798,-0.8804,-0.891,-0.9263,-0.9524,-0.9629,-0.9569,-0.9629,-0.9629,-0.9629,-0.9621,-0.9614,-0.9673,-0.9732,-0.9792,-0.9851,-0.9903,-1.0007,-1.011,-1.0154,-1.0213,-1.0316,-1.0709,-1.1562,-1.2018,-1.2086,-1.2637,-1.2893,-1.2781,-1.2764,-1.272,-1.2736,-1.2683,-1.249,-1.2243,-1.2058,-1.1934,-1.1685,-1.1435,-1.131,-1.1185,-1.1122,-1.1066,-1.1066,-1.1003,-1.1066,-1.1003,-1.0933,-1.087,-1.0807,-1.0807,-1.0926,-1.0933,-1.1003,-1.1066,-1.1185,-1.9498,-1.9108,-1.8497,-1.7877,-1.7076,-1.5341,-1.4101,-1.3311,-1.2222,-1.1634,-1.1485,-1.1384,-1.1271,-1.126,-1.1088,-1.0937,-1.0897,-1.1004,-1.1315,-1.1576,-1.1836,-1.2104,-1.2225,-1.2202,-1.2047,-1.1764,-1.1566,-1.147,-1.1325,-1.1063,-1.059,-1.002,-0.9473,-0.8978,-0.8608,-0.8367,-0.7967,-0.7674,-0.747,-0.7309,-0.7072,-0.693,-0.7051,-0.7109,-0.7161,-0.7344,-0.7664,-0.7723,-0.7783,-0.7848,-0.8008,-0.8115,-0.8115,-0.8215,-0.8368,-0.8368,-0.8421,-0.8468,-0.8573,-0.8633,-0.8692,-0.8752,-0.8956,-0.9106,-0.9316,-0.942,-0.9472,-0.9472,-0.9465,-0.9413,-0.9465,-0.9465,-0.9524,-0.9584,-0.9643,-0.9695,-0.9799,-0.9844,-0.9947,-1.0058,-1.011,-1.0714,-1.1566,-1.1752,-1.1912,-1.247,-1.2752,-1.256,-1.2498,-1.2428,-1.2367,-1.2305,-1.212,-1.1872,-1.1622,-1.1435,-1.1247,-1.0996,-1.0933,-1.087,-1.0807,-1.0814,-1.0751,-1.0751,-1.0807,-1.0814,-1.0688,-1.0688,-1.0807,-1.087,-1.0926,-1.0933,-1.0933,-1.1066,-1.1185,-1.9309,-1.8749,-1.8161,-1.7366,-1.6219,-1.4571,-1.3674,-1.3314,-1.2306,-1.1745,-1.1623,-1.1485,-1.1421,-1.1384,-1.1185,-1.1044,-1.1037,-1.1389,-1.176,-1.2145,-1.252,-1.2599,-1.2698,-1.2526,-1.2014,-1.1769,-1.1621,-1.1457,-1.1145,-1.0555,-1.0013,-0.9369,-0.9029,-0.8607,-0.83,-0.8136,-0.7973,-0.7759,-0.7588,-0.7466,-0.7286,-0.7047,-0.716,-0.7212,-0.7172,-0.7361,-0.7694,-0.767,-0.7783,-0.7842,-0.8008,-0.8068,-0.8062,-0.8162,-0.8215,-0.8162,-0.8162,-0.8209,-0.8262,-0.8368,-0.848,-0.8586,-0.8639,-0.8791,-0.8896,-0.9054,-0.9159,-0.9211,-0.9211,-0.9263,-0.9256,-0.9316,-0.9323,-0.9382,-0.9435,-0.9487,-0.9532,-0.9629,-0.974,-0.9859,-1.0257,-1.0771,-1.1178,-1.1349,-1.1662,-1.2132,-1.2251,-1.1996,-1.1934,-1.1926,-1.1864,-1.1802,-1.1615,-1.1428,-1.1185,-1.1066,-1.0933,-1.0807,-1.0744,-1.0681,-1.0618,-1.0624,-1.0624,-1.0688,-1.0681,-1.0681,-1.0751,-1.0807,-1.0933,-1.0996,-1.1052,-1.1122,-1.1122,-1.1185,-1.1247,-1.9132,-1.8476,-1.789,-1.6661,-1.5234,-1.4031,-1.338,-1.3073,-1.2284,-1.1918,-1.1844,-1.1623,-1.1522,-1.1485,-1.1298,-1.112,-1.1318,-1.1737,-1.2188,-1.254,-1.2976,-1.3131,-1.2899,-1.2518,-1.2184,-1.1731,-1.1452,-1.1346,-1.0682,-1.002,-0.9311,-0.8633,-0.8373,-0.8147,-0.7997,-0.7859,-0.777,-0.7681,-0.7646,-0.7617,-0.7524,-0.7431,-0.7315,-0.7365,-0.7256,-0.7194,-0.7458,-0.7568,-0.767,-0.7729,-0.7788,-0.7848,-0.7848,-0.7895,-0.7895,-0.7901,-0.7895,-0.7895,-0.7949,-0.8055,-0.8109,-0.8215,-0.8374,-0.8368,-0.8421,-0.8685,-0.8844,-0.8791,-0.8791,-0.8732,-0.8732,-0.8732,-0.8791,-0.8903,-0.9015,-0.9113,-0.9271,-0.9368,-0.9472,-0.9687,-1.0045,-1.0561,-1.0936,-1.118,-1.1382,-1.179,-1.1809,-1.156,-1.1428,-1.149,-1.1428,-1.1365,-1.124,-1.1115,-1.0933,-1.0807,-1.0744,-1.0681,-1.0618,-1.0618,-1.0618,-1.0624,-1.0624,-1.0681,-1.0807,-1.0807,-1.087,-1.0996,-1.1059,-1.1122,-1.1185,-1.131,-1.131,-1.1303,-1.1303,-1.8646,-1.8008,-1.6725,-1.5399,-1.4224,-1.3689,-1.3178,-1.2662,-1.2291,-1.2113,-1.2004,-1.1819,-1.1682,-1.1634,-1.1384,-1.1244,-1.1386,-1.2073,-1.2579,-1.2949,-1.3393,-1.3476,-1.3293,-1.2814,-1.2354,-1.2019,-1.1699,-1.1109,-1.0239,-0.946,-0.8852,-0.8552,-0.8141,-0.7794,-0.7687,-0.7628,-0.7574,-0.7555,-0.7512,-0.7475,-0.741,-0.73,-0.7149,-0.7187,-0.7068,-0.7121,-0.7268,-0.7365,-0.7467,-0.7521,-0.7574,-0.7574,-0.7568,-0.7676,-0.7681,-0.7628,-0.7634,-0.7634,-0.7634,-0.7681,-0.7735,-0.7735,-0.7788,-0.7735,-0.7889,-0.8262,-0.848,-0.8374,-0.8315,-0.8203,-0.8203,-0.8203,-0.8256,-0.8421,-0.854,-0.8752,-0.8969,-0.9134,-0.9285,-0.9553,-0.9879,-1.0272,-1.0709,-1.0946,-1.1134,-1.1269,-1.126,-1.1178,-1.1052,-1.1052,-1.1059,-1.0989,-1.0926,-1.08,-1.0681,-1.0688,-1.0688,-1.0681,-1.0618,-1.0618,-1.0618,-1.0681,-1.0807,-1.0933,-1.0996,-1.0996,-1.0996,-1.1122,-1.1247,-1.1247,-1.1247,-1.131,-1.1373,-1.131,-1.1435,-1.8441,-1.7718,-1.6054,-1.4762,-1.3902,-1.3399,-1.2999,-1.2663,-1.2389,-1.2246,-1.2197,-1.1929,-1.1767,-1.1708,-1.141,-1.1354,-1.1485,-1.2392,-1.2752,-1.3173,-1.3552,-1.3669,-1.3391,-1.2911,-1.2251,-1.1787,-1.1048,-1.0329,-0.9649,-0.8985,-0.8453,-0.8135,-0.7734,-0.758,-0.7473,-0.7424,-0.7383,-0.7351,-0.7301,-0.7295,-0.7255,-0.7186,-0.7078,-0.7018,-0.7007,-0.7062,-0.7083,-0.7122,-0.7203,-0.7359,-0.7413,-0.7521,-0.7521,-0.7521,-0.7467,-0.7419,-0.7419,-0.7419,-0.7419,-0.7467,-0.7467,-0.7467,-0.7521,-0.7568,-0.7676,-0.7996,-0.7949,-0.7895,-0.7943,-0.7937,-0.7937,-0.7937,-0.7996,-0.8103,-0.83,-0.8532,-0.879,-0.9045,-0.9255,-0.9555,-0.991,-1.0372,-1.0768,-1.097,-1.1091,-1.1016,-1.0982,-1.0933,-1.08,-1.0744,-1.0744,-1.0744,-1.0744,-1.0744,-1.0618,-1.0624,-1.0624,-1.0624,-1.0681,-1.0744,-1.0807,-1.087,-1.0996,-1.1059,-1.1066,-1.1066,-1.1122,-1.1185,-1.1178,-1.1185,-1.1247,-1.131,-1.131,-1.131,-1.131,-1.8219,-1.733,-1.5741,-1.4588,-1.3902,-1.3275,-1.2946,-1.2745,-1.2567,-1.2495,-1.2481,-1.2192,-1.1938,-1.1619,-1.1298,-1.1358,-1.1643,-1.2335,-1.2812,-1.3137,-1.3654,-1.3518,-1.3114,-1.2544,-1.1881,-1.1041,-1.0296,-0.9597,-0.8839,-0.8392,-0.7929,-0.7555,-0.7387,-0.7356,-0.7193,-0.7148,-0.7205,-0.7162,-0.7114,-0.7128,-0.7182,-0.7192,-0.712,-0.7028,-0.6992,-0.6966,-0.6941,-0.6956,-0.6991,-0.709,-0.7246,-0.7354,-0.7413,-0.7365,-0.7306,-0.7306,-0.7252,-0.7257,-0.7311,-0.7359,-0.7413,-0.7413,-0.7461,-0.7461,-0.7568,-0.7515,-0.7467,-0.7467,-0.7568,-0.7622,-0.7622,-0.7676,-0.7729,-0.7842,-0.8092,-0.8334,-0.8703,-0.9004,-0.9243,-0.9497,-0.9964,-1.0414,-1.0627,-1.0822,-1.0871,-1.0793,-1.0744,-1.0681,-1.0681,-1.0681,-1.0688,-1.0744,-1.0744,-1.0681,-1.0618,-1.0618,-1.0688,-1.0744,-1.08,-1.0933,-1.0996,-1.0933,-1.0933,-1.1066,-1.1129,-1.1066,-1.1129,-1.1129,-1.1122,-1.1059,-1.1185,-1.1254,-1.1185,-1.1122,-1.1066,-1.7417,-1.6197,-1.5737,-1.4938,-1.4001,-1.3692,-1.3337,-1.2889,-1.2922,-1.2936,-1.2877,-1.293,-1.258,-1.1693,-1.1287,-1.13,-1.1687,-1.2308,-1.2473,-1.2713,-1.3322,-1.3219,-1.2789,-1.2104,-1.133,-1.0451,-0.9667,-0.8945,-0.8389,-0.7958,-0.7541,-0.7225,-0.7271,-0.7151,-0.7012,-0.6979,-0.6988,-0.6953,-0.6909,-0.6897,-0.6966,-0.7022,-0.7126,-0.7052,-0.7047,-0.6992,-0.6912,-0.6961,-0.6875,-0.6877,-0.7031,-0.7139,-0.7192,-0.7198,-0.7198,-0.709,-0.7085,-0.7085,-0.7139,-0.7139,-0.7192,-0.7192,-0.7192,-0.7192,-0.7246,-0.7192,-0.7139,-0.709,-0.7198,-0.7359,-0.7359,-0.7365,-0.7419,-0.7681,-0.786,-0.8251,-0.8577,-0.8851,-0.9155,-0.9473,-0.986,-1.0167,-1.0309,-1.0492,-1.0717,-1.0624,-1.0681,-1.0618,-1.0681,-1.0688,-1.0624,-1.0688,-1.0744,-1.0744,-1.0744,-1.0744,-1.0807,-1.0863,-1.0926,-1.0933,-1.0933,-1.087,-1.087,-1.0996,-1.1059,-1.0996,-1.1059,-1.094,-1.0933,-1.087,-1.1059,-1.1129,-1.1003,-1.0807,-1.0681]},{"header":{"parameterUnit":"m.s-1","parameterCategory":1,"la1":31.0,"la2":29.5877,"lo1":-88.7671,"lo2":-86.6584,"dy":0.0162,"dx":0.0185,"nx":115,"ny":88,"refTime":"2023-07-22T18:00:00:Z","depth":0,"parameterNumber":3,"parameterNumberName":"V-component_of_WINDS"},"data":[0.0,0.0,0.0,0.0,0.0,0.0,0.0,0.0,0.0,0.0,0.0,0.0,0.0,0.0,0.0,0.0,0.0,0.0,0.0,0.0,0.0,0.0,0.0,0.0,0.0,0.0,0.0,0.0,0.0,0.0,0.0,0.0,0.0,0.0,0.0,0.0,0.0,0.0,0.0,0.0,0.0,0.0,0.0,0.0,0.0,0.0,0.0,0.0,0.0,0.0,0.0,0.0,0.0,0.0,0.0,0.0,0.0,0.0,0.0,0.0,0.0,0.0,0.0,0.0,0.0,0.0,0.0,0.0,0.0,0.0,0.0,0.0,0.0,0.0,0.0,0.0,0.0,0.0,0.0,0.0,0.0,0.0,0.0,0.0,0.0,0.0,0.0,0.0,0.0,0.0,0.0,0.0,0.0,0.0,0.0,0.0,0.0,0.0,0.0,0.0,0.0,0.0,0.0,0.0,0.0,0.0,0.0,0.0,0.0,0.0,0.0,0.0,0.0,0.0,0.0,0.0,0.0,0.0,0.0,0.0,0.0,0.0,0.0,0.0,0.0,0.0,0.0,0.0,0.0,0.0,0.0,0.0,0.0,0.0,0.0,0.0,0.0,0.0,0.0,0.0,0.0,0.0,0.0,0.0,0.0,0.0,0.0,0.0,0.0,0.0,0.0,0.0,0.0,0.0,0.0,0.0,0.0,0.0,0.0,0.0,0.0,0.0,0.0,0.0,0.0,0.0,0.0,0.0,0.0,0.0,0.0,0.0,0.0,0.0,0.0,0.0,0.0,0.0,0.0,0.0,0.0,0.0,0.0,0.0,0.0,0.0,0.0,0.0,0.0,0.0,0.0,0.0,0.0,0.0,0.0,0.0,0.0,0.0,0.0,0.0,0.0,0.0,0.0,0.0,0.0,0.0,0.0,0.0,0.0,0.0,0.0,0.0,0.0,0.0,0.0,0.0,0.0,0.0,0.0,0.0,0.0,0.0,0.0,0.0,0.0,0.0,0.0,0.0,0.0,0.0,0.0,0.0,0.0,0.0,0.0,0.0,0.0,0.0,0.0,0.0,0.0,0.0,0.0,0.0,0.0,0.0,0.0,0.0,0.0,0.0,0.0,0.0,0.0,0.0,0.0,0.0,0.0,0.0,0.0,0.0,0.0,0.0,0.0,0.0,0.0,0.0,0.0,0.0,0.0,0.0,0.0,0.0,0.0,0.0,0.0,0.0,0.0,0.0,0.0,0.0,0.0,0.0,0.0,0.0,0.0,0.0,0.0,0.0,0.0,0.0,0.0,0.0,0.0,0.0,0.0,0.0,0.0,0.0,0.0,0.0,0.0,0.0,0.0,0.0,0.0,0.0,0.0,0.0,0.0,0.0,0.0,0.0,0.0,0.0,0.0,0.0,0.0,0.0,0.0,0.0,0.0,0.0,0.0,0.0,0.0,0.0,0.0,0.0,0.0,0.0,0.0,0.0,0.0,0.0,0.0,0.0,0.0,0.0,0.0,0.0,0.0,0.0,0.0,0.0,0.0,0.0,0.0,0.0,0.0,0.0,0.0,0.0,0.0,0.0,0.0,0.0,0.0,0.0,0.0,0.0,0.0,0.0,0.0,0.0,0.0,0.0,0.0,0.0,0.0,0.0,0.0,0.0,0.0,0.0,0.0,0.0,0.0,0.0,0.0,0.0,0.0,0.0,0.0,0.0,0.0,0.0,0.0,0.0,0.0,0.0,0.0,0.0,0.0,0.0,0.0,0.0,0.0,0.0,0.0,0.0,0.0,0.0,0.0,0.0,0.0,0.0,0.0,0.0,0.0,0.0,0.0,0.0,0.0,0.0,0.0,0.0,0.0,0.0,0.0,0.0,0.0,0.0,0.0,0.0,0.0,0.0,0.0,0.0,0.0,0.0,0.0,0.0,0.0,0.0,0.0,0.0,0.0,0.0,0.0,0.0,0.0,0.0,0.0,0.0,0.0,0.0,0.0,0.0,0.0,0.0,0.0,0.0,0.0,0.0,0.0,0.0,0.0,0.0,0.0,0.0,0.0,0.0,0.0,0.0,0.0,0.0,0.0,0.0,0.0,0.0,0.0,0.0,0.0,0.0,0.0,0.0,0.0,0.0,0.0,0.0,0.0,0.0,0.0,0.0,0.0,0.0,0.0,0.0,0.0,0.0,0.0,0.0,0.0,0.0,0.0,0.0,0.0,0.0,0.0,0.0,0.0,0.0,0.0,0.0,0.0,0.0,0.0,0.0,0.0,0.0,0.0,0.0,0.0,0.0,0.0,0.0,0.0,0.0,0.0,0.0,0.0,0.0,0.0,0.0,0.0,0.0,0.0,0.0,0.0,0.0,0.0,0.0,0.0,0.0,0.0,0.0,0.0,0.0,0.0,0.0,0.0,0.0,0.0,0.0,0.0,0.0,0.0,0.0,0.0,0.0,0.0,0.0,0.0,0.0,0.0,0.0,0.0,0.0,0.0,0.0,0.0,0.0,0.0,0.0,0.0,0.0,0.0,0.0,0.0,0.0,0.0,0.0,0.0,0.0,0.0,0.0,0.0,0.0,0.0,0.0,0.0,0.0,0.0,0.0,0.0,0.0,0.0,0.0,0.0,0.0,0.0,0.0,0.0,0.0,0.0,0.0,0.0,0.0,0.0,0.0,0.0,0.0,0.0,0.0,0.0,0.0,0.0,0.0,0.0,0.0,0.0,0.0,0.0,0.0,0.0,0.0,0.0,0.0,0.0,0.0,0.0,0.0,0.0,0.0,0.0,0.0,0.0,0.0,0.0,0.0,0.0,0.0,0.0,0.0,0.0,0.0,0.0,0.0,0.0,0.0,0.0,0.0,0.0,0.0,0.0,0.0,0.0,0.0,0.0,0.0,0.0,0.0,0.0,0.0,0.0,0.0,0.0,0.0,0.0,0.0,0.0,0.0,0.0,0.0,0.0,0.0,0.0,0.0,0.0,0.0,0.0,0.0,0.0,0.0,0.0,0.0,0.0,0.0,0.0,0.0,0.0,0.0,0.0,0.0,0.0,0.0,0.0,0.0,0.0,0.0,0.0,0.0,0.0,0.0,0.0,0.0,0.0,0.0,0.0,0.0,0.0,0.0,0.0,0.0,0.0,0.0,0.0,0.0,0.0,0.0,0.0,0.0,0.0,0.0,0.0,0.0,0.0,0.0,0.0,0.0,0.0,0.0,0.0,0.0,0.0,0.0,0.0,0.0,0.0,0.0,0.0,0.0,0.0,0.0,0.0,0.0,0.0,0.0,0.0,0.0,0.0,0.0,0.0,0.0,0.0,0.0,0.0,0.0,0.0,0.0,0.0,0.0,0.0,0.0,0.0,0.0,0.0,0.0,0.0,0.0,0.0,0.0,0.0,0.0,0.0,0.0,0.0,0.0,0.0,0.0,0.0,0.0,0.0,0.0,0.0,0.0,0.0,0.0,0.0,0.0,0.0,0.0,0.0,0.0,0.0,0.0,0.0,0.0,0.0,0.0,0.0,0.0,0.0,0.0,0.0,0.0,0.0,0.0,0.0,0.0,0.0,0.0,0.0,0.0,0.0,0.0,0.0,0.0,0.0,0.0,0.0,0.0,0.0,0.0,0.0,0.0,0.0,0.0,0.0,0.0,0.0,0.0,0.0,0.0,0.0,0.0,0.0,0.0,0.0,0.0,0.0,0.0,0.0,0.0,0.0,0.0,0.0,0.0,0.0,0.0,0.0,0.0,0.0,0.0,0.0,0.0,0.0,0.0,0.0,0.0,0.0,0.0,0.0,0.0,0.0,0.0,0.0,0.0,0.0,0.0,0.0,0.0,0.0,0.0,0.0,0.0,0.0,0.0,0.0,0.0,0.0,0.0,0.0,0.0,0.0,0.0,0.0,0.0,0.0,0.0,0.0,0.0,0.0,0.0,0.0,0.0,0.0,0.0,0.0,0.0,0.0,0.0,0.0,0.0,0.0,0.0,0.0,0.0,0.0,0.0,0.0,0.0,0.0,0.0,0.0,0.0,0.0,0.0,0.0,0.0,0.0,0.0,0.0,0.0,0.0,0.0,0.0,0.0,0.0,0.0,0.0,0.0,0.0,0.0,0.0,0.0,0.0,0.0,0.0,0.0,0.0,0.0,0.0,0.0,0.0,0.0,0.0,0.0,0.0,0.0,0.0,0.0,0.0,0.0,0.0,0.0,0.0,0.0,0.0,0.0,0.0,0.0,0.0,0.0,0.0,0.0,0.0,0.0,0.0,0.0,0.0,0.0,0.0,0.0,0.0,0.0,1.752,0.0,0.0,0.0,0.0,0.0,0.0,0.0,0.0,0.0,0.0,0.0,0.0,0.0,0.0,0.0,0.0,0.0,0.0,0.0,0.0,0.0,0.0,0.0,0.0,0.0,0.0,0.0,0.0,0.0,0.0,0.0,0.0,0.0,0.0,0.0,0.0,0.0,0.0,0.0,0.0,0.0,0.0,0.0,0.0,0.0,0.0,0.0,0.0,0.0,0.0,0.0,0.0,0.0,0.0,0.0,0.0,0.0,0.0,0.0,0.0,0.0,0.0,0.0,0.0,0.0,0.0,0.0,0.0,0.0,0.0,0.0,0.0,0.0,0.0,0.0,0.0,0.0,0.0,0.0,0.0,0.0,0.0,0.0,0.0,0.0,0.0,0.0,0.0,0.0,0.0,0.0,0.0,0.0,0.0,0.0,0.0,0.0,0.0,0.0,0.0,0.0,0.0,0.0,0.0,0.0,0.0,0.0,0.0,0.0,0.0,1.7544,1.8019,1.7906,1.7807,1.7807,0.0,0.0,0.0,0.0,0.0,0.0,0.0,0.0,0.0,0.0,0.0,0.0,0.0,0.0,0.0,0.0,0.0,0.0,0.0,0.0,0.0,0.0,0.0,0.0,0.0,0.0,0.0,0.0,0.0,0.0,0.0,0.0,0.0,0.0,0.0,0.0,0.0,0.0,0.0,0.0,0.0,0.0,0.0,0.0,0.0,0.0,0.0,0.0,0.0,0.0,0.0,0.0,0.0,0.0,0.0,0.0,0.0,0.0,0.0,0.0,0.0,0.0,0.0,0.0,0.0,0.0,0.0,0.0,0.0,0.0,0.0,0.0,0.0,0.0,0.0,0.0,0.0,0.0,0.0,0.0,0.0,0.0,0.0,0.0,0.0,0.0,0.0,0.0,0.0,0.0,0.0,0.0,0.0,0.0,0.0,0.0,0.0,0.0,0.0,0.0,0.0,0.0,0.0,0.0,0.0,0.0,0.0,0.0,0.0,0.0,0.0,0.0,1.8024,1.7984,1.796,0.0,0.0,0.0,0.0,0.0,0.0,0.0,0.0,0.0,0.0,0.0,0.0,0.0,0.0,0.0,0.0,0.0,0.0,0.0,0.0,0.0,0.0,0.0,0.0,0.0,0.0,0.0,0.0,0.0,0.0,0.0,0.0,0.0,0.0,0.0,0.0,0.0,0.0,0.0,0.0,0.0,0.0,0.0,0.0,0.0,0.0,0.0,0.0,0.0,0.0,0.0,0.0,0.0,0.0,0.0,0.0,0.0,0.0,0.0,0.0,0.0,0.0,0.0,0.0,0.0,0.0,0.0,0.0,0.0,0.0,0.0,0.0,0.0,0.0,0.0,0.0,0.0,0.0,0.0,0.0,0.0,0.0,0.0,0.0,0.0,0.0,0.0,0.0,0.0,0.0,0.0,0.0,0.0,0.0,0.0,0.0,0.0,0.0,0.0,0.0,0.0,0.0,0.0,0.0,0.0,0.0,0.0,0.0,0.0,0.0,1.7213,1.7741,1.7829,0.0,1.795,0.0,0.0,0.0,0.0,0.0,0.0,0.0,0.0,0.0,0.0,0.0,0.0,0.0,0.0,0.0,0.0,0.0,0.0,0.0,0.0,0.0,0.0,0.0,0.0,0.0,0.0,0.0,0.0,0.0,0.0,0.0,0.0,0.0,0.0,0.0,0.0,0.0,0.0,0.0,0.0,0.0,0.0,0.0,0.0,0.0,0.0,0.0,0.0,0.0,0.0,0.0,0.0,0.0,0.0,0.0,0.0,0.0,0.0,0.0,0.0,0.0,0.0,0.0,0.0,0.0,0.0,0.0,0.0,0.0,0.0,0.0,0.0,0.0,0.0,0.0,0.0,0.0,0.0,0.0,0.0,0.0,0.0,0.0,0.0,0.0,0.0,0.0,0.0,0.0,0.0,0.0,0.0,0.0,0.0,0.0,0.0,0.0,0.0,0.0,0.0,0.0,0.0,0.0,0.0,0.0,0.0,0.0,0.0,0.0,0.0,1.7024,1.7216,1.7478,1.7586,0.0,0.0,0.0,0.0,0.0,0.0,0.0,0.0,0.0,0.0,0.0,0.0,0.0,0.0,0.0,0.0,0.0,0.0,0.0,0.0,0.0,0.0,0.0,0.0,0.0,0.0,0.0,0.0,0.0,0.0,0.0,0.0,0.0,0.0,0.0,0.0,0.0,0.0,0.0,0.0,0.0,0.0,0.0,0.0,0.0,0.0,0.0,0.0,0.0,0.0,0.0,0.0,0.0,0.0,0.0,0.0,0.0,0.0,0.0,0.0,0.0,0.0,0.0,0.0,0.0,0.0,0.0,0.0,0.0,0.0,0.0,0.0,0.0,0.0,0.0,0.0,0.0,0.0,0.0,0.0,0.0,0.0,0.0,0.0,0.0,0.0,0.0,0.0,0.0,0.0,0.0,0.0,0.0,0.0,0.0,0.0,0.0,0.0,0.0,0.0,0.0,0.0,0.0,0.0,0.0,0.0,0.0,0.0,0.0,0.0,1.5756,1.6307,1.6427,1.6806,1.6963,1.6965,0.0,0.0,0.0,0.0,0.0,0.0,0.0,0.0,0.0,0.0,0.0,0.0,0.0,0.0,0.0,0.0,0.0,0.0,0.0,0.0,0.0,0.0,0.0,0.0,0.0,0.0,0.0,0.0,0.0,0.0,0.0,0.0,0.0,0.0,0.0,0.0,0.0,0.0,0.0,0.0,0.0,0.0,0.0,0.0,0.0,0.0,0.0,0.0,0.0,0.0,0.0,0.0,0.0,0.0,0.0,0.0,0.0,0.0,0.0,0.0,0.0,0.0,0.0,0.0,0.0,0.0,0.0,0.0,0.0,0.0,0.0,0.0,0.0,0.0,0.0,0.0,0.0,0.0,0.0,0.0,0.0,0.0,0.0,0.0,0.0,0.0,0.0,0.0,0.0,0.0,0.0,0.0,0.0,0.0,0.0,0.0,0.0,0.0,0.0,0.0,0.0,0.0,0.0,0.0,0.0,0.0,0.0,0.0,1.3702,1.4364,1.4932,1.5241,1.5712,1.6059,0.0,0.0,0.0,0.0,0.0,0.0,0.0,0.0,0.0,0.0,0.0,0.0,0.0,0.0,0.0,0.0,0.0,0.0,0.0,0.0,0.0,0.0,0.0,0.0,0.0,0.0,0.0,0.0,0.0,0.0,0.0,0.0,0.0,0.0,0.0,0.0,0.0,0.0,0.0,0.0,0.0,0.0,0.0,0.0,0.0,0.0,0.0,0.0,0.0,0.0,0.0,0.0,0.0,0.0,0.0,0.0,0.0,0.0,0.0,0.0,0.0,0.0,0.0,0.0,0.0,0.0,0.0,0.0,0.0,0.0,0.0,0.0,0.0,0.0,0.0,0.0,0.0,0.0,0.0,0.0,0.0,0.0,0.0,0.0,0.0,0.0,0.0,0.0,0.0,0.0,0.0,0.0,0.0,0.0,0.0,0.0,0.0,0.0,0.0,0.0,0.0,0.0,0.0,0.0,0.0,0.0,0.0,0.0,0.0,1.2248,1.3005,1.3581,1.3965,1.4422,1.5006,0.0,0.0,0.0,0.0,0.0,0.0,0.0,0.0,0.0,0.0,0.0,0.0,0.0,0.0,0.0,0.0,0.0,0.0,0.0,0.0,0.0,0.0,0.0,0.0,0.0,0.0,0.0,0.0,0.0,0.0,0.0,0.0,0.0,0.0,0.0,0.0,0.0,0.0,0.0,0.0,0.0,0.0,0.0,0.0,0.0,0.0,0.0,0.0,0.0,0.0,0.0,0.0,0.0,0.0,0.0,0.0,0.0,0.0,0.0,0.0,0.0,0.0,0.0,0.0,0.0,0.0,0.0,0.0,0.0,0.0,0.0,0.0,0.0,0.0,0.0,0.0,0.0,0.0,0.0,0.0,0.0,0.0,0.0,0.0,0.0,0.0,0.0,0.0,0.0,0.0,0.0,0.0,0.0,0.0,0.0,0.0,0.0,0.0,0.0,0.0,0.0,0.0,0.0,0.0,0.0,0.0,0.0,0.0,0.0,1.0931,0.0,1.1881,1.2102,1.2366,1.2282,0.0,0.0,0.0,0.0,0.0,0.0,0.0,0.0,0.0,0.0,0.0,0.0,0.0,0.0,0.0,0.0,0.0,0.0,0.0,0.0,0.0,0.0,0.0,0.0,0.0,0.0,0.0,0.0,0.0,0.0,0.0,0.0,0.0,0.0,0.0,0.0,0.0,0.0,0.0,0.0,0.0,0.0,0.0,0.0,0.0,0.0,0.0,0.0,0.0,0.0,0.0,0.0,0.0,0.0,0.0,0.0,0.0,0.0,0.0,0.0,0.0,0.0,0.0,0.0,0.0,0.0,0.0,0.0,0.0,0.0,0.0,0.0,0.0,0.0,0.0,0.0,0.0,0.0,0.0,0.0,0.0,0.0,0.0,0.0,0.0,0.0,0.0,0.0,0.0,0.0,0.0,0.0,0.0,0.0,0.0,0.0,0.0,0.0,0.0,0.0,0.0,0.0,0.0,0.0,0.0,0.0,0.0,0.0,0.9765,0.988,0.9882,0.9719,0.9569,0.96,0.7984,0.0,0.0,0.0,0.0,0.0,0.0,0.0,0.0,0.0,0.0,0.0,0.0,0.0,0.0,0.0,0.0,0.0,0.0,0.0,0.0,0.0,0.0,0.0,0.0,0.0,0.0,0.0,0.0,0.0,0.0,0.0,0.0,0.0,0.0,0.0,0.0,0.0,0.0,0.0,0.0,0.0,0.0,0.0,0.0,0.0,0.0,0.0,0.0,0.0,0.0,0.0,0.0,0.0,0.0,0.0,0.0,0.0,0.0,0.0,0.0,0.0,0.0,0.0,0.0,0.0,0.0,0.0,0.0,0.0,0.0,0.0,0.0,0.0,0.0,0.0,0.0,0.0,0.0,0.0,0.0,0.0,0.0,0.0,0.0,0.0,0.0,0.0,0.0,0.0,0.0,0.0,0.0,0.0,0.0,0.0,0.0,0.0,0.0,0.0,0.0,0.0,0.0,0.0,0.0,0.0,0.0,0.0,0.0,0.0,0.7887,0.7658,0.7446,0.725,0.6826,0.6025,0.0,0.0,0.0,0.0,0.0,0.0,0.0,0.0,0.0,0.0,0.0,0.0,0.0,0.0,0.0,0.0,0.0,0.0,0.0,0.0,0.0,0.0,0.0,0.0,0.0,0.0,0.0,0.0,0.0,0.0,0.0,0.0,0.0,0.0,0.0,0.0,0.0,0.0,0.0,0.0,0.0,0.0,0.0,0.0,0.0,0.0,0.0,0.0,0.0,0.0,0.0,0.0,0.0,0.0,0.0,0.0,0.0,0.0,0.0,0.0,0.0,0.0,0.0,0.0,0.0,0.0,0.0,0.0,0.0,0.0,0.0,0.0,0.0,0.0,0.0,0.0,0.0,0.0,0.0,0.0,0.0,0.0,0.0,0.0,0.0,0.0,0.0,0.0,0.0,0.0,0.0,0.0,0.0,0.0,0.0,0.0,0.0,0.0,0.0,0.0,0.0,0.0,0.0,0.0,0.0,0.0,0.0,0.0,0.0,0.5263,0.5329,0.5234,0.482,0.3995,0.2599,0.0681,0.0,0.0,0.0,0.0,0.0,0.0,0.0,0.0,0.0,0.0,0.0,0.0,0.0,0.0,0.0,0.0,0.0,0.0,0.0,0.0,0.0,0.0,0.0,0.0,0.0,0.0,0.0,0.0,0.0,0.0,0.0,0.0,0.0,0.0,0.0,0.0,0.0,0.0,0.0,0.0,0.0,0.0,0.0,0.0,0.0,0.0,0.0,0.0,0.0,0.0,0.0,0.0,0.0,0.0,0.0,0.0,0.0,0.0,0.0,0.0,0.0,0.0,0.0,0.0,0.0,0.0,0.0,0.0,0.0,0.0,0.0,0.0,0.0,0.0,0.0,0.0,0.0,0.0,0.0,0.0,0.0,0.0,0.0,0.0,0.0,0.0,0.0,0.0,0.0,0.0,0.0,0.0,0.0,0.0,0.0,0.0,0.0,0.0,0.0,0.0,0.0,0.0,0.0,0.0,0.0,0.0,0.0,0.0,0.2109,0.2982,0.3054,0.2422,0.1068,-0.1828,0.0,0.0,0.0,0.0,0.0,0.0,0.0,0.0,0.0,0.0,0.0,0.0,0.0,0.0,0.0,0.0,0.0,0.0,0.0,0.0,0.0,0.0,0.0,0.0,0.0,0.0,0.0,0.0,0.0,0.0,0.0,0.0,0.0,0.0,0.0,0.0,0.0,0.0,0.0,0.0,0.0,0.0,0.0,0.0,0.0,0.0,0.0,0.0,0.0,0.0,0.0,0.0,0.0,0.0,0.0,0.0,0.0,0.0,0.0,0.0,0.0,0.0,0.0,0.0,0.0,0.0,0.0,0.0,0.0,0.0,0.0,0.0,0.0,0.0,0.0,0.0,0.0,0.0,0.0,0.0,0.0,0.0,0.0,0.0,0.0,0.0,0.0,0.0,0.0,0.0,0.0,0.0,0.0,0.0,0.0,0.0,0.0,0.0,0.0,0.0,0.0,0.0,0.0,0.0,0.0,0.0,0.0,0.0,0.0,0.0583,0.0303,0.0311,0.0626,-0.0947,-0.3062,0.0,0.0,0.0,0.0,0.0,0.0,0.0,0.0,0.0,0.0,0.0,0.0,0.0,0.0,0.0,0.0,0.0,0.0,0.0,0.0,0.0,0.0,0.0,0.0,0.0,0.0,0.0,0.0,0.0,0.0,0.0,0.0,0.0,0.0,0.0,0.0,0.0,0.0,0.0,0.0,0.0,0.0,0.0,0.0,0.0,0.0,0.0,0.0,0.0,0.0,0.0,0.0,0.0,0.0,0.0,0.0,0.0,0.0,0.0,0.0,0.0,0.0,0.0,0.0,0.0,0.0,0.0,0.0,0.0,0.0,0.0,0.0,0.0,0.0,0.0,0.0,0.0,0.0,0.0,0.0,0.0,0.0,0.0,0.0,0.0,0.0,0.0,0.0,0.0,0.0,0.0,0.0,0.0,0.0,0.0,0.0,0.0,0.0,0.0,0.0,0.0,0.0,0.0,0.0,0.0,0.0,0.0,0.0,0.0071,-0.051,-0.1147,-0.1566,-0.1564,-0.2956,-0.4538,0.0,0.0,0.0,0.0,0.0,0.0,0.0,0.0,0.0,0.0,0.0,0.0,0.0,0.0,0.0,0.0,0.0,0.0,0.0,0.0,0.0,0.0,0.0,0.0,0.0,0.0,0.0,0.0,0.0,0.0,0.0,0.0,0.0,0.0,0.0,0.0,0.0,0.0,0.0,0.0,0.0,0.0,0.0,0.0,0.0,0.0,0.0,0.0,0.0,0.0,0.0,0.0,0.0,0.0,0.0,0.0,0.0,0.0,0.0,0.0,0.0,0.0,0.0,0.0,0.0,0.0,0.0,0.0,0.0,0.0,0.0,0.0,0.0,0.0,0.0,0.0,0.0,0.0,0.0,0.0,0.0,0.0,0.0,0.0,0.0,0.0,0.0,0.0,0.0,0.0,0.0,0.0,0.0,0.0,0.0,0.0,0.0,0.0,0.0,0.0,0.0,0.0,0.0,0.0,0.0,0.0,0.0,0.0,-0.0779,-0.1378,-0.1985,-0.2817,-0.3898,-0.4785,-0.5911,0.0,0.0,0.0,0.0,0.0,0.0,0.0,0.0,0.0,0.0,0.0,0.0,0.0,0.0,0.0,0.0,0.0,0.0,0.0,0.0,0.0,0.0,0.0,0.0,0.0,0.0,0.0,0.0,0.0,0.0,0.0,0.0,0.0,0.0,0.0,0.0,0.0,0.0,0.0,0.0,0.0,0.0,0.0,0.0,0.0,0.0,0.0,0.0,0.0,0.0,0.0,0.0,0.0,0.0,0.0,0.0,0.0,0.0,0.0,0.0,0.0,0.0,0.0,0.0,0.0,0.0,0.0,0.0,0.0,0.0,0.0,0.0,0.0,0.0,0.0,0.0,0.0,0.0,0.0,0.0,0.0,0.0,0.0,0.0,0.0,0.0,0.0,0.0,0.0,0.0,0.0,0.0,0.0,0.0,0.0,0.0,0.0,0.0,0.0,0.0,0.0,0.0,0.0,0.0,0.0,0.0,0.0,0.0,-0.2103,-0.2822,-0.3477,-0.4262,-0.5011,-0.5532,-0.6546,0.0,0.0,0.0,0.0,0.0,0.0,0.0,0.0,0.0,0.0,0.0,0.0,0.0,0.0,0.0,0.0,0.0,0.0,0.0,0.0,0.0,0.0,0.0,0.0,0.0,0.0,0.0,0.0,0.0,0.0,0.0,0.0,0.0,0.0,0.0,0.0,0.0,0.0,0.0,0.0,0.0,0.0,0.0,0.0,0.0,0.0,0.0,0.0,-3.2748,0.0,0.0,0.0,0.0,0.0,0.0,0.0,0.0,0.0,0.0,0.0,0.0,0.0,0.0,0.0,0.0,0.0,0.0,0.0,0.0,0.0,0.0,0.0,0.0,0.0,0.0,0.0,0.0,0.0,0.0,0.0,0.0,0.0,0.0,0.0,0.0,0.0,0.0,0.0,0.0,0.0,0.0,0.0,0.0,0.0,0.0,0.0,0.0,0.0,0.0,0.0,0.0,0.0,0.0,0.0,0.0,0.0,0.0,0.0,-0.3241,-0.3774,-0.4559,-0.5277,-0.6098,-0.6927,-0.797,0.0,0.0,0.0,0.0,0.0,0.0,0.0,0.0,0.0,0.0,0.0,0.0,0.0,0.0,0.0,0.0,0.0,0.0,0.0,0.0,0.0,0.0,0.0,0.0,0.0,0.0,0.0,0.0,0.0,0.0,0.0,0.0,0.0,0.0,0.0,0.0,0.0,0.0,0.0,0.0,0.0,0.0,0.0,0.0,0.0,0.0,0.0,0.0,0.0,0.0,0.0,0.0,0.0,0.0,0.0,0.0,0.0,0.0,0.0,0.0,0.0,0.0,0.0,0.0,0.0,0.0,0.0,0.0,0.0,0.0,0.0,0.0,0.0,0.0,0.0,0.0,0.0,0.0,0.0,0.0,0.0,0.0,0.0,0.0,0.0,0.0,0.0,0.0,0.0,0.0,0.0,0.0,0.0,0.0,0.0,0.0,0.0,0.0,0.0,0.0,0.0,0.0,0.0,0.0,0.0,0.0,0.0,-0.3892,-0.4271,-0.4711,-0.5473,-0.6266,-0.7163,-0.8505,-0.967,-1.0599,0.0,0.0,0.0,0.0,0.0,0.0,0.0,0.0,0.0,0.0,0.0,0.0,0.0,0.0,0.0,0.0,0.0,0.0,0.0,0.0,0.0,0.0,0.0,0.0,0.0,0.0,0.0,0.0,0.0,0.0,0.0,0.0,0.0,0.0,0.0,0.0,0.0,0.0,-2.0598,-2.4505,0.0,0.0,0.0,0.0,0.0,0.0,0.0,0.0,-3.2724,0.0,0.0,0.0,0.0,0.0,0.0,0.0,0.0,0.0,0.0,0.0,0.0,0.0,0.0,0.0,0.0,0.0,0.0,0.0,0.0,0.0,0.0,0.0,0.0,0.0,0.0,0.0,0.0,0.0,0.0,0.0,0.0,0.0,0.0,0.0,0.0,0.0,0.0,0.0,0.0,0.0,0.0,0.0,0.0,0.0,0.0,0.0,0.0,0.0,0.0,0.0,0.0,0.0,0.0,0.0,0.0,-0.4755,-0.5027,-0.5432,-0.6047,-0.6623,-0.7429,-0.8397,-0.9574,-1.0997,-1.2497,0.0,0.0,0.0,0.0,0.0,0.0,0.0,0.0,0.0,0.0,0.0,0.0,0.0,0.0,0.0,0.0,0.0,0.0,0.0,0.0,0.0,0.0,0.0,0.0,0.0,0.0,0.0,0.0,0.0,0.0,0.0,0.0,0.0,0.0,0.0,0.0,0.0,0.0,0.0,-2.05,-2.3542,0.0,0.0,0.0,0.0,0.0,0.0,0.0,0.0,-3.3107,0.0,0.0,0.0,0.0,0.0,0.0,0.0,0.0,0.0,0.0,0.0,0.0,0.0,0.0,0.0,0.0,0.0,0.0,0.0,0.0,0.0,0.0,0.0,0.0,0.0,0.0,0.0,0.0,0.0,0.0,0.0,0.0,0.0,0.0,0.0,0.0,0.0,0.0,0.0,0.0,0.0,0.0,0.0,0.0,0.0,0.0,0.0,0.0,0.0,0.0,0.0,0.0,0.0,0.0,0.0,-0.5745,-0.6013,-0.6404,-0.6933,-0.7525,-0.822,-0.9149,-1.0502,-1.1968,0.0,0.0,0.0,0.0,0.0,0.0,0.0,0.0,0.0,0.0,0.0,0.0,0.0,0.0,0.0,0.0,0.0,0.0,0.0,0.0,0.0,0.0,0.0,0.0,0.0,0.0,0.0,0.0,0.0,0.0,0.0,0.0,0.0,0.0,0.0,0.0,0.0,0.0,0.0,0.0,-2.0335,-2.347,-2.853,0.0,0.0,0.0,0.0,0.0,0.0,-3.2879,-3.2737,0.0,0.0,0.0,0.0,0.0,0.0,0.0,0.0,0.0,0.0,0.0,0.0,0.0,0.0,0.0,0.0,0.0,0.0,0.0,0.0,0.0,0.0,0.0,0.0,0.0,0.0,0.0,0.0,0.0,0.0,0.0,0.0,0.0,0.0,0.0,0.0,0.0,0.0,0.0,0.0,0.0,0.0,0.0,0.0,0.0,0.0,0.0,0.0,0.0,0.0,0.0,0.0,0.0,0.0,0.0,-0.6658,-0.7055,-0.7451,-0.7852,-0.8342,-0.9059,-0.9983,-1.1341,-1.2789,0.0,0.0,0.0,0.0,0.0,0.0,0.0,0.0,0.0,0.0,0.0,0.0,0.0,0.0,0.0,0.0,0.0,0.0,0.0,0.0,0.0,0.0,0.0,0.0,0.0,0.0,0.0,0.0,0.0,0.0,0.0,0.0,0.0,0.0,0.0,0.0,0.0,0.0,0.0,0.0,0.0,-2.443,-2.7631,-2.9641,0.0,0.0,0.0,0.0,-3.3025,-3.2667,0.0,0.0,0.0,0.0,0.0,0.0,0.0,0.0,0.0,0.0,0.0,0.0,0.0,0.0,0.0,0.0,0.0,0.0,0.0,0.0,0.0,0.0,0.0,0.0,0.0,0.0,0.0,0.0,0.0,0.0,0.0,0.0,0.0,0.0,0.0,0.0,0.0,0.0,0.0,0.0,0.0,0.0,0.0,0.0,0.0,0.0,0.0,0.0,0.0,0.0,0.0,0.0,0.0,0.0,0.0,0.0,-0.7577,-0.8032,-0.8554,-0.9075,-0.9542,-1.0251,-1.1238,-1.2405,-1.3494,0.0,0.0,0.0,0.0,0.0,0.0,0.0,0.0,0.0,0.0,0.0,0.0,0.0,0.0,0.0,0.0,0.0,0.0,0.0,0.0,0.0,0.0,0.0,0.0,0.0,0.0,0.0,0.0,0.0,0.0,0.0,0.0,0.0,0.0,0.0,0.0,0.0,0.0,0.0,0.0,0.0,-2.4613,-2.6811,-2.8948,-3.037,0.0,0.0,-3.2649,-3.2849,-3.2501,0.0,0.0,0.0,0.0,0.0,0.0,0.0,0.0,0.0,0.0,0.0,0.0,0.0,0.0,0.0,0.0,0.0,0.0,0.0,0.0,0.0,0.0,0.0,0.0,0.0,0.0,0.0,0.0,0.0,0.0,0.0,0.0,0.0,0.0,0.0,0.0,0.0,0.0,0.0,0.0,0.0,0.0,0.0,0.0,0.0,0.0,0.0,0.0,0.0,0.0,0.0,0.0,0.0,0.0,0.0,-0.7912,-0.8177,-0.8694,-0.9145,-0.96,-1.0034,-1.0785,-1.175,-1.3067,-1.4157,0.0,0.0,0.0,0.0,0.0,0.0,0.0,0.0,0.0,0.0,0.0,0.0,0.0,0.0,0.0,0.0,0.0,0.0,0.0,0.0,0.0,0.0,0.0,0.0,0.0,0.0,0.0,0.0,0.0,0.0,0.0,0.0,0.0,0.0,0.0,0.0,0.0,0.0,0.0,0.0,0.0,0.0,-2.6931,-2.9073,0.0,0.0,0.0,-3.2807,-3.3111,0.0,0.0,0.0,0.0,0.0,0.0,0.0,0.0,0.0,0.0,0.0,0.0,0.0,0.0,0.0,0.0,0.0,0.0,0.0,0.0,0.0,0.0,0.0,0.0,0.0,0.0,0.0,0.0,0.0,0.0,0.0,0.0,0.0,0.0,0.0,0.0,0.0,0.0,0.0,0.0,0.0,0.0,0.0,0.0,0.0,0.0,0.0,0.0,0.0,0.0,0.0,0.0,0.0,0.0,0.0,0.0,0.0,-0.8864,-0.9379,-0.9762,-1.0219,-1.0588,-1.1339,-1.2367,-1.3768,0.0,0.0,0.0,0.0,0.0,0.0,0.0,0.0,0.0,0.0,0.0,0.0,0.0,0.0,0.0,0.0,0.0,0.0,0.0,0.0,0.0,0.0,0.0,0.0,0.0,0.0,0.0,-1.0275,0.0,0.0,0.0,0.0,0.0,0.0,0.0,0.0,0.0,0.0,0.0,0.0,0.0,0.0,-2.5193,-2.7244,-2.9279,-3.0771,0.0,0.0,-3.2717,-3.3016,-3.2122,-3.1457,0.0,0.0,0.0,0.0,0.0,0.0,0.0,0.0,0.0,0.0,0.0,0.0,0.0,0.0,0.0,0.0,0.0,0.0,0.0,0.0,0.0,0.0,0.0,0.0,0.0,0.0,0.0,0.0,0.0,0.0,0.0,0.0,0.0,0.0,0.0,0.0,0.0,0.0,0.0,0.0,0.0,0.0,0.0,0.0,0.0,0.0,0.0,0.0,0.0,0.0,0.0,0.0,0.0,0.0,0.0,-0.9916,-1.017,-1.0686,-1.1341,-1.158,-1.2265,-1.3465,-1.4757,-1.5496,0.0,0.0,0.0,0.0,0.0,0.0,0.0,0.0,0.0,0.0,0.0,0.0,0.0,0.0,0.0,0.0,0.0,0.0,0.0,0.0,0.0,0.0,0.0,0.0,0.0,0.0,0.0,0.0,0.0,0.0,0.0,0.0,0.0,0.0,0.0,0.0,0.0,0.0,0.0,0.0,0.0,-2.5599,-2.7497,-2.9316,-3.0596,0.0,0.0,-3.2314,-3.2417,-3.1792,-3.1219,-3.1219,0.0,0.0,0.0,0.0,0.0,0.0,0.0,0.0,0.0,0.0,0.0,0.0,0.0,0.0,0.0,0.0,0.0,0.0,0.0,0.0,0.0,0.0,0.0,0.0,0.0,0.0,0.0,0.0,0.0,0.0,0.0,0.0,0.0,0.0,0.0,0.0,0.0,0.0,0.0,0.0,0.0,0.0,0.0,0.0,0.0,0.0,0.0,0.0,0.0,0.0,0.0,0.0,0.0,-0.9492,-0.9894,-1.0277,-1.085,-1.1475,-1.1869,-1.2703,-1.4067,-1.5214,-1.593,0.0,0.0,0.0,0.0,0.0,0.0,0.0,0.0,0.0,0.0,0.0,0.0,0.0,0.0,0.0,0.0,0.0,0.0,0.0,0.0,0.0,0.0,0.0,0.0,0.0,0.0,0.0,0.0,-1.0807,-1.094,-1.1387,0.0,0.0,0.0,0.0,0.0,0.0,0.0,0.0,0.0,0.0,-2.5991,-2.7885,-2.9471,0.0,0.0,-3.1582,-3.2109,-3.2228,-3.1431,-3.0936,-3.1152,-2.9722,0.0,0.0,0.0,0.0,0.0,0.0,0.0,0.0,0.0,0.0,0.0,0.0,0.0,0.0,0.0,0.0,0.0,0.0,0.0,0.0,0.0,0.0,0.0,0.0,0.0,0.0,0.0,0.0,0.0,0.0,0.0,0.0,0.0,0.0,0.0,0.0,0.0,0.0,0.0,0.0,0.0,0.0,0.0,0.0,0.0,0.0,0.0,0.0,0.0,0.0,0.0,0.0,-0.9693,-1.0164,-1.0606,-1.1185,-1.1944,-1.2344,-1.331,-1.4917,-1.5905,-1.6615,0.0,0.0,0.0,0.0,0.0,0.0,0.0,0.0,0.0,0.0,0.0,0.0,0.0,0.0,0.0,0.0,0.0,0.0,0.0,0.0,0.0,0.0,0.0,0.0,0.0,0.0,0.0,0.0,-1.1505,-1.1755,-1.2058,0.0,0.0,0.0,0.0,0.0,0.0,0.0,0.0,0.0,0.0,-2.648,-2.844,-2.9639,-3.0508,-3.0911,-3.1434,-3.189,-3.2109,-3.1235,-3.0692,-3.1003,0.0,0.0,0.0,0.0,0.0,0.0,0.0,0.0,0.0,0.0,0.0,0.0,0.0,0.0,0.0,0.0,0.0,0.0,0.0,0.0,0.0,0.0,0.0,0.0,0.0,0.0,0.0,0.0,0.0,0.0,-0.2746,0.0,0.0,0.0,0.0,0.0,0.0,0.0,0.0,0.0,0.0,0.0,0.0,0.0,0.0,0.0,0.0,0.0,0.0,0.0,0.0,0.0,0.0,-1.0239,-1.1041,-1.1155,-1.1732,-1.2941,-1.3129,-1.4145,-1.617,-1.6888,-1.7575,-1.8259,0.0,0.0,0.0,0.0,0.0,0.0,0.0,0.0,0.0,0.0,0.0,0.0,0.0,0.0,0.0,0.0,0.0,0.0,0.0,0.0,0.0,0.0,0.0,0.0,0.0,0.0,-1.1809,-1.2382,-1.2776,0.0,0.0,0.0,0.0,0.0,0.0,0.0,0.0,0.0,0.0,-2.5576,-2.7119,-2.9102,-2.9973,-3.052,-3.0911,-3.1373,-3.1683,-3.189,-3.1165,-3.0624,0.0,0.0,0.0,0.0,0.0,0.0,0.0,0.0,0.0,0.0,0.0,0.0,0.0,0.0,0.0,0.0,0.0,0.0,0.0,0.0,0.0,0.0,0.0,0.0,0.0,0.0,0.0,-0.3179,-0.3294,0.0,0.0,0.0,0.0,0.0,0.0,0.0,0.0,0.0,0.0,0.0,-0.6777,-0.7068,0.0,0.0,0.0,0.0,0.0,0.0,0.0,0.0,0.0,0.0,0.0,0.0,-1.0173,-1.09,-1.1262,-1.2014,-1.3137,-1.3554,-1.4653,-1.6544,-1.7388,-1.8291,-1.9361,0.0,0.0,0.0,0.0,0.0,0.0,0.0,0.0,0.0,0.0,0.0,0.0,0.0,0.0,0.0,0.0,0.0,0.0,0.0,0.0,0.0,0.0,0.0,0.0,0.0,-1.2182,0.0,0.0,0.0,0.0,0.0,0.0,0.0,0.0,0.0,0.0,0.0,-2.2433,-2.4751,-2.6411,-2.7912,-2.9654,-3.019,-3.057,0.0,0.0,0.0,0.0,0.0,0.0,0.0,0.0,0.0,0.0,0.0,0.0,0.0,0.0,-3.0171,-2.9822,-2.9419,-2.8945,-2.8195,0.0,0.0,0.0,0.0,0.0,0.0,0.0,0.0,0.0,0.0,0.0,0.0,0.0,0.0,-0.4082,0.0,-0.4272,0.0,0.0,0.0,0.0,0.0,0.0,0.0,0.0,-0.6877,-0.7334,-0.8004,-0.8155,-0.8541,0.0,-0.919,-0.8944,0.0,0.0,0.0,0.0,0.0,0.0,0.0,0.0,-1.0226,-1.0951,-1.1486,-1.229,-1.339,-1.4043,-1.5134,-1.6827,-1.8023,-1.9123,-2.0192,-2.0169,-1.9993,0.0,0.0,0.0,0.0,0.0,0.0,0.0,0.0,0.0,0.0,0.0,0.0,0.0,0.0,0.0,0.0,0.0,0.0,0.0,0.0,0.0,0.0,0.0,-1.2907,0.0,0.0,0.0,0.0,0.0,0.0,0.0,0.0,0.0,-1.951,-2.122,-2.3212,-2.5218,-2.6557,-2.7861,-2.9517,0.0,0.0,0.0,0.0,0.0,0.0,0.0,-3.1428,-3.1681,-3.124,-3.1126,-3.1699,-3.1977,-3.2117,-3.2145,0.0,0.0,-3.1059,-3.0569,-3.0006,-2.9138,-2.8435,-2.7791,-2.736,-2.6986,-2.6697,0.0,0.0,0.0,0.0,0.0,0.0,0.0,0.0,-0.404,-0.4541,0.0,-0.5202,0.0,0.0,0.0,0.0,0.0,-0.6708,0.0,0.0,-0.7675,-0.8258,-0.8982,-0.8613,-0.8987,-0.9922,-0.9769,-0.9653,-0.9782,-0.9383,0.0,0.0,0.0,0.0,0.0,0.0,-1.0438,-1.1204,-1.1762,-1.2597,-1.3692,-1.4469,-1.5615,-1.7144,-1.8969,-2.0111,-2.0607,-2.0649,-2.0743,-2.0904,-2.0085,0.0,0.0,0.0,0.0,0.0,0.0,0.0,0.0,0.0,0.0,0.0,0.0,0.0,0.0,0.0,0.0,0.0,0.0,0.0,0.0,-1.3432,0.0,0.0,0.0,0.0,0.0,0.0,0.0,0.0,0.0,0.0,-2.0801,-2.2035,-2.3583,-2.5389,0.0,0.0,0.0,0.0,-2.9802,-3.0581,-3.1211,-3.1609,-3.1609,-3.142,-3.1412,-3.1609,0.0,0.0,-3.226,-3.2918,-3.3283,-3.3312,-3.3255,-3.2793,-3.1266,-3.0555,-2.9987,-2.9398,-2.8562,-2.7866,-2.7582,-2.7306,-2.698,-0.2357,0.0,0.0,0.0,0.0,-0.3698,-0.4136,-0.466,-0.5092,-0.5572,-0.6175,-0.6342,0.0,0.0,0.0,0.0,0.0,0.0,-0.7323,-0.7596,-0.7967,-0.8542,-0.917,-0.9199,-0.9473,-0.9977,-0.9891,-0.9984,-1.0118,-0.9864,-0.9507,-0.9125,0.0,0.0,0.0,0.0,-1.0721,-1.1298,-1.1971,-1.2842,-1.3881,-1.4706,-1.6006,-1.7886,-1.9616,-2.0618,-2.086,-2.1064,-2.1037,-2.0863,-2.0085,0.0,0.0,0.0,0.0,0.0,0.0,0.0,0.0,0.0,0.0,0.0,0.0,0.0,0.0,0.0,0.0,0.0,0.0,0.0,-1.3834,-1.4603,-1.5133,0.0,0.0,0.0,0.0,0.0,0.0,0.0,0.0,0.0,-2.1931,-2.3115,-2.4418,0.0,0.0,-2.7482,-2.8273,-2.9004,-2.9654,-3.0025,0.0,0.0,0.0,-3.1829,-3.2055,-3.2327,-3.2528,-3.2709,-3.2961,-3.3199,-3.3312,-3.3312,-3.3312,-3.3045,-3.2374,-3.1599,-3.0924,-3.0277,-2.9391,-2.8664,-2.8509,-2.821,-2.7921,-0.2378,-0.2785,-0.3138,-0.3496,-0.3587,-0.3944,-0.448,-0.5191,-0.5633,-0.6298,-0.7007,-0.7267,-0.7565,-0.7816,-0.7659,0.0,0.0,0.0,-0.7942,-0.8176,-0.8391,-0.889,-0.9411,-0.9522,-0.9712,-1.013,-1.0031,-1.0071,-1.0107,-1.0019,-0.967,-0.9221,0.0,0.0,-0.9658,-1.0301,-1.0933,-1.1365,-1.2351,-1.3216,-1.407,-1.5118,-1.6341,-1.7853,-1.9515,-2.0464,-2.0511,-2.1101,-2.1255,-2.0929,-2.0072,-1.95,0.0,0.0,0.0,0.0,0.0,0.0,0.0,0.0,0.0,0.0,0.0,-1.402,0.0,0.0,0.0,0.0,-1.3702,-1.4067,-1.479,-1.5405,0.0,0.0,0.0,0.0,0.0,0.0,0.0,-1.9901,-2.1208,-2.2297,-2.2763,-2.3468,-2.4425,-2.5637,-2.6383,-2.7013,-2.7456,0.0,-2.8977,-2.9344,-3.0217,-3.089,-3.089,-3.1191,-3.1605,-3.1929,-3.2277,-3.2512,-3.2595,-3.2595,-3.2595,-3.2595,-3.2581,-3.2443,-3.2055,-3.1409,-3.0844,-3.0455,-2.9441,-2.8645,-2.8325,-2.8094,-2.7842,-0.2284,-0.2604,-0.3229,-0.3585,-0.3676,-0.4121,-0.4746,-0.546,-0.5905,-0.6602,-0.7559,-0.783,-0.8181,-0.8511,-0.8345,0.0,-0.8578,-0.8338,-0.8496,-0.8864,-0.8825,-0.915,-0.9745,-0.9515,-0.9769,-1.0331,-1.0108,-0.9941,-0.985,-0.9838,-0.9784,-0.9554,-0.974,-0.9804,-0.9862,-1.0491,-1.1052,-1.1545,-1.272,-1.364,-1.4309,-1.5594,-1.6637,-1.72,-1.8954,-1.9898,-1.9829,-2.081,-2.1204,-2.0822,-2.0032,-1.9512,-1.9368,0.0,0.0,0.0,0.0,0.0,0.0,0.0,0.0,0.0,0.0,0.0,0.0,0.0,0.0,0.0,-1.5107,0.0,-1.5541,-1.6011,0.0,0.0,0.0,-1.8218,-1.8834,-1.9539,-2.0129,-2.0571,0.0,0.0,-2.3297,0.0,-2.3907,-2.4873,-2.5438,-2.5996,-2.6463,-2.7303,-2.8049,-2.8492,-2.9267,-2.9767,-2.9944,-3.0292,-3.0637,-3.0951,-3.1068,-3.1216,-3.1429,-3.1359,-3.1345,-3.1345,-3.1345,-3.125,-3.0837,-3.031,-2.991,-2.9784,-2.8946,-2.7988,-2.7668,-2.7383,-2.7197,-0.2164,-0.2513,-0.305,-0.3406,-0.3587,-0.3857,-0.4569,-0.5633,-0.6166,-0.6812,-0.7572,-0.801,-0.8191,-0.8142,-0.8097,-0.8101,-0.8134,-0.8226,-0.8358,-0.8458,-0.8633,-0.8855,-0.9237,-0.9136,-0.9357,-0.9688,-0.9634,-0.9634,-0.958,-0.9574,-0.9544,-0.9548,-0.9792,-1.0053,-1.018,-1.087,-1.149,-1.2112,-1.2964,-1.4052,-1.5323,-1.6114,-1.6751,-1.72,-1.8555,-1.9397,-1.9638,-2.0177,-2.0476,-2.034,-1.9862,-1.9525,-1.9275,-1.8999,0.0,0.0,0.0,0.0,0.0,0.0,0.0,0.0,0.0,-1.4888,-1.4953,0.0,-1.5016,0.0,-1.5867,-1.6298,-1.6355,-1.6959,0.0,0.0,-1.8445,-1.8874,-1.9594,-2.0129,-2.0582,-2.1031,-2.194,-2.2616,-2.2876,-2.343,-2.3966,-2.4232,-2.4469,-2.4797,-2.5199,-2.6426,-2.7288,-2.7682,-2.8716,-2.9671,-2.9744,-3.0254,-3.0596,-3.0894,-3.0627,-3.0546,-3.069,-3.0361,-3.0052,-3.0052,-3.0052,-2.9989,-2.972,-2.9013,-2.8319,-2.8013,-2.7996,-2.7963,-2.7594,-2.7323,-2.7003,-0.1885,-0.2243,-0.2691,-0.3032,-0.3451,-0.4105,-0.4898,-0.5643,-0.634,-0.6956,-0.7579,-0.7998,-0.8109,-0.8012,-0.8012,-0.8176,-0.8414,-0.8336,-0.8489,-0.8851,-0.8759,-0.8838,-0.9151,-0.915,-0.928,-0.9478,-0.9478,-0.9478,-0.9478,-0.9478,-0.9548,-0.9612,-0.9862,-1.011,-1.0305,-1.1051,-1.1747,-1.2367,-1.3571,-1.4656,-1.574,-1.6353,-1.6864,-1.72,-1.8441,-1.9162,-1.9238,-1.9782,-2.0012,-1.9809,-1.958,-1.9368,-1.9182,-1.9011,-1.8786,0.0,0.0,0.0,0.0,0.0,0.0,0.0,0.0,0.0,0.0,0.0,-1.6095,-1.6388,-1.6766,-1.7043,-1.7091,-1.7513,-1.8066,-1.8617,-1.8885,-1.9264,-1.9922,-2.0442,-2.0903,-2.1285,-2.191,-2.2448,-2.2815,-2.3067,-2.3405,-2.3689,-2.3722,-2.3938,-2.468,-2.5651,-2.6284,-2.6505,-2.738,-2.8133,-2.8332,-2.8673,-2.8998,-2.9151,-2.9079,-2.9045,-2.9142,-2.8951,-2.8788,-2.8788,-2.8788,-2.8727,-2.853,-2.8022,-2.7455,-2.7046,-2.704,-2.6909,-2.6432,-2.607,-2.5749,-0.1523,-0.1787,-0.2235,-0.2736,-0.3203,-0.4404,-0.5182,-0.5526,-0.6459,-0.7056,-0.7499,-0.7796,-0.7947,-0.7943,-0.7947,-0.826,-0.8783,-0.8444,-0.8687,-0.9387,-0.8975,-0.8992,-0.9344,-0.9332,-0.9338,-0.9478,-0.9442,-0.943,-0.9424,-0.94,-0.9509,-0.9693,-0.9813,-1.0004,-1.0254,-1.1045,-1.1859,-1.2591,-1.4141,-1.5245,-1.5833,-1.6492,-1.6976,-1.7256,-1.844,-1.8963,-1.8834,-1.951,-1.9697,-1.9352,-1.9275,-1.9182,-1.917,-1.8958,-1.8732,0.0,-1.8182,0.0,0.0,0.0,0.0,0.0,0.0,0.0,0.0,-1.6889,-1.7321,-1.7501,-1.7539,-1.7598,-1.7716,-1.793,-1.8279,-1.8808,-1.9023,-1.9454,-2.0019,-2.049,-2.0888,-2.1202,-2.1525,-2.1975,-2.2534,-2.237,-2.2469,-2.2985,-2.2849,-2.313,-2.418,-2.4858,-2.5312,-2.5405,-2.5821,-2.6525,-2.6658,-2.6742,-2.6856,-2.6996,-2.701,-2.7003,-2.7151,-2.7241,-2.7284,-2.7369,-2.7369,-2.7353,-2.7276,-2.7159,-2.6823,-2.6391,-2.6121,-2.5696,-2.5229,-2.4838,-2.4288,-0.1065,-0.1486,-0.201,-0.2503,-0.3128,-0.4244,-0.5004,-0.5488,-0.6148,-0.6898,-0.7721,-0.765,-0.7581,-0.7581,-0.7581,-0.7812,-0.82,-0.8123,-0.8466,-0.919,-0.8899,-0.9058,-0.9466,-0.9332,-0.9338,-0.9466,-0.925,-0.9204,-0.9198,-0.8932,-0.895,-0.9129,-0.9301,-0.9571,-0.9993,0.0,0.0,0.0,-1.4044,-1.4959,-1.5538,-1.6493,-1.7123,-1.7468,-1.8262,0.0,-1.8679,-1.9107,-1.9279,-1.9105,-1.917,0.0,0.0,0.0,0.0,0.0,0.0,0.0,0.0,0.0,0.0,0.0,-1.7127,-1.6981,-1.6868,-1.7432,-1.7784,-1.7706,-1.7794,-1.7862,-1.7706,-1.7988,-1.8472,-1.8988,-1.8874,-1.903,-1.9802,-1.9878,-1.9966,-2.0287,-2.0653,-2.09,-2.1091,-2.118,-2.1342,-2.1571,-2.1654,-2.1939,-2.2394,-2.3718,-2.4684,-2.5084,-2.5598,-2.6228,-2.6369,-2.6129,-2.6027,-2.6243,-2.5562,-2.5232,-2.5312,-2.5082,-2.5089,-2.5497,-2.5514,-2.5697,-2.6091,-2.6078,-2.5841,-2.5515,-2.5243,-2.5097,-2.5358,-2.5025,-2.4434,-0.0615,0.0,-0.1546,-0.2025,0.0,-0.3634,-0.4401,-0.5031,-0.6118,-0.6864,-0.7488,-0.7301,-0.722,-0.7224,-0.722,-0.7535,-0.8024,-0.7994,-0.8463,-0.9327,-0.9136,-0.9203,-0.945,-0.9268,-0.9146,-0.9076,-0.8999,-0.8939,-0.8926,-0.8747,-0.8798,-0.9026,-0.9143,-0.9362,-0.9679,-1.0466,-1.1572,-1.2986,-1.391,-1.4735,-1.5516,-1.6394,-1.7005,-1.7512,0.0,0.0,0.0,0.0,0.0,0.0,0.0,0.0,0.0,0.0,0.0,-1.8602,-1.8518,-1.8344,-1.803,-1.7645,-1.7379,-1.739,-1.7359,-1.7222,-1.7056,-1.75,-1.7752,-1.7552,-1.7813,-1.7852,-1.7571,-1.7809,-1.8061,-1.8294,-1.8322,-1.8562,-1.916,-1.9445,-1.9643,-1.9948,-2.0297,-2.0553,-2.061,-2.0815,-2.0974,-2.1031,-2.1256,-2.1579,-2.192,-2.2616,-2.3322,-2.3636,-2.4204,-2.4563,-2.4563,-2.459,-2.4598,-2.4613,-2.4339,-2.4127,-2.4177,-2.4161,-2.423,-2.4526,-2.4531,-2.4709,-2.4896,-2.4941,-2.4836,-2.4597,-2.4532,-2.4689,-2.5038,-2.4571,-2.3917,-0.0173,-0.0601,-0.1096,-0.1485,-0.2018,-0.2973,-0.3908,-0.4811,0.0,0.0,0.0,-0.6945,-0.6952,-0.6952,-0.6952,-0.7358,-0.8014,-0.7986,-0.856,-0.9458,-0.9332,-0.9274,-0.9377,-0.9096,-0.8843,-0.8681,-0.8585,-0.8567,-0.8603,-0.8561,-0.8595,-0.8774,-0.8934,-0.9104,-0.9528,-1.0434,-1.1524,-1.2806,-1.3613,-1.4453,-1.5372,-1.617,-1.6873,-1.7523,-1.8182,-1.856,-1.8614,-1.8827,-1.8987,-1.8987,-1.8987,-1.8987,-1.8987,-1.8987,-1.8881,-1.8614,-1.8614,-1.8452,-1.8139,-1.7665,-1.7313,-1.7159,-1.7027,-1.7033,-1.7234,-1.7436,-1.7506,-1.7396,-1.7588,-1.7637,-1.7305,-1.7376,-1.7486,-1.7449,-1.7647,-1.8033,-1.8436,-1.8825,-1.9158,-1.9564,-1.9863,-2.0196,-2.0286,-2.0487,-2.0692,-2.0736,-2.0884,-2.1302,-2.1533,-2.1889,-2.2244,-2.2557,-2.2907,-2.2897,-2.2844,-2.299,-2.304,-2.3212,-2.3242,-2.3285,-2.3335,-2.3565,-2.3772,-2.392,-2.3935,-2.4005,-2.4103,-2.4202,-2.4016,-2.3863,-2.4031,-2.4258,-2.4313,-2.387,-2.3242,0.0251,-0.0164,-0.0573,-0.1208,-0.1967,-0.2926,-0.4124,-0.5412,-0.5961,-0.6317,-0.6486,-0.6531,-0.6599,-0.6742,-0.6742,-0.7012,-0.7619,-0.7855,-0.841,0.0,-0.9005,-0.9106,-0.9346,-0.8725,-0.8495,-0.8633,-0.8231,-0.8129,-0.8297,-0.8007,-0.7889,-0.8069,-0.8063,-0.8631,-0.9725,-1.0522,-1.1327,-1.225,-1.3144,-1.411,-1.5122,-1.5935,-1.6743,-1.7623,-1.8139,-1.8464,-1.8614,-1.8881,-1.8987,-1.8987,-1.8987,-1.8987,-1.8987,-1.8987,-1.8881,-1.8614,-1.8614,-1.8452,-1.8127,-1.7469,-1.6671,-1.5794,-1.5648,-1.6237,-1.7503,-1.7417,-1.7259,-1.7196,-1.6992,-1.6831,-1.6826,-1.6914,-1.7086,-1.7203,-1.7164,-1.7298,-1.7589,-1.7785,-1.8013,-1.8311,-1.8783,-1.9066,-1.9215,-1.9335,-1.9507,-1.9589,-1.9915,-2.0022,-2.0552,-2.1535,-2.2242,-2.2428,-2.2644,-2.2764,-2.2658,-2.2546,-2.2495,-2.2579,-2.233,-2.2242,-2.2352,-2.251,-2.2808,-2.3154,-2.3224,-2.3435,-2.3906,-2.4118,-2.3904,-2.371,-2.3761,-2.3758,-2.3458,-2.3138,-2.2889,0.0739,0.0325,-0.0079,-0.0622,-0.1304,-0.2582,-0.3745,-0.4765,-0.5114,-0.5682,-0.6239,-0.6157,-0.6184,-0.6253,-0.639,-0.6687,-0.7212,-0.7607,-0.828,-0.8935,-0.8947,-0.892,-0.8918,-0.8367,-0.8057,-0.8082,-0.7747,-0.7706,-0.793,-0.7728,-0.7676,-0.7842,-0.8221,-0.8837,-0.9762,-1.0498,-1.1276,-1.1986,-1.2769,-1.3671,-1.4665,-1.5571,-1.653,-1.7416,-1.8151,-1.8572,-1.8679,-1.8881,-1.8987,-1.8987,-1.8987,-1.8987,-1.8987,-1.8987,-1.8881,-1.8602,-1.8354,-1.799,-1.7642,-1.689,-1.6148,-1.5465,-1.5403,-1.5638,-1.6167,-1.6189,-1.6097,-1.6048,-1.5989,-1.5918,-1.5703,-1.5733,-1.5762,-1.5698,-1.5761,-1.5873,-1.6119,-1.6515,-1.6852,-1.7092,-1.7456,-1.7777,-1.7969,-1.8234,-1.8397,-1.8572,-1.9008,-1.956,-1.9735,-2.0719,-2.1498,-2.155,-2.1718,-2.1845,-2.191,-2.1884,-2.1893,-2.1978,-2.189,-2.1868,-2.1996,-2.2137,-2.2297,-2.2521,-2.2592,-2.2718,-2.3104,-2.3041,-2.3041,-2.2972,-2.3167,-2.3119,-2.2906,-2.2753,-2.2511,0.1192,0.0712,0.0305,-0.0299,-0.1038,-0.2422,-0.342,-0.4153,-0.447,-0.5087,-0.5787,-0.5744,-0.5752,-0.5822,-0.6083,-0.6354,-0.6806,-0.7353,-0.804,-0.8648,-0.8678,-0.8592,-0.838,-0.7937,-0.7651,-0.7518,-0.7347,-0.7425,-0.7593,-0.7515,-0.7515,-0.7723,-0.8368,-0.9054,-0.9718,-1.0498,-1.1226,-1.1877,-1.2578,-1.3322,-1.4293,-1.5214,-1.6096,-1.7001,-1.7787,-1.8331,-1.8608,-1.8778,-1.8819,-1.8806,-1.8806,-1.8758,-1.865,-1.8626,-1.8482,-1.8225,-1.7843,-1.7357,-1.6843,-1.6227,-1.5596,-1.5145,-1.5084,-1.4982,-1.4707,-1.4745,-1.4834,-1.4914,-1.5064,-1.5,-1.4746,-1.4668,-1.4566,-1.436,-1.4586,-1.4806,-1.4913,-1.5414,-1.5906,-1.616,-1.655,-1.6921,-1.7156,-1.7448,-1.7702,-1.803,-1.8664,-1.9195,-1.9307,-1.9941,-2.0489,-2.0703,-2.0868,-2.1099,-2.118,-2.1353,-2.1499,-2.1616,-2.1712,-2.1855,-2.1996,-2.2137,-2.2184,-2.2226,-2.2212,-2.2255,-2.2198,-2.2212,-2.2255,-2.2339,-2.2552,-2.2721,-2.2574,-2.2413,-2.2204,0.1549,0.1031,0.066,-0.0433,-0.1765,-0.2594,-0.3376,-0.3981,-0.4431,-0.4697,-0.4986,-0.5096,-0.5352,-0.5617,-0.5818,-0.6145,-0.6461,-0.7135,-0.7554,-0.7757,-0.7885,-0.7873,-0.7728,-0.7367,-0.7223,-0.7206,-0.7149,-0.7223,-0.7456,-0.7359,-0.7365,-0.7574,-0.8103,-0.8784,-0.9465,-1.0403,-1.1217,-1.1927,-1.2569,-1.3371,-1.4283,-1.4744,-1.5477,-1.6457,-1.6777,-1.7322,-1.8061,-1.8175,-1.8277,-1.8277,-1.8277,-1.8061,-1.7652,-1.7458,-1.731,-1.7173,-1.7015,-1.6523,-1.5781,-1.5474,-1.5022,-1.4238,-1.419,-1.4047,-1.3796,-1.3565,-1.3771,-1.4353,-1.438,-1.4165,-1.4199,-1.417,-1.4121,-1.4053,-1.4222,-1.4427,-1.4526,-1.5039,-1.5547,-1.5793,-1.6276,-1.6886,-1.7025,-1.7279,-1.7629,-1.7768,-1.8248,-1.8657,-1.8708,-1.9322,-1.9961,-2.0258,-2.0646,-2.0979,-2.1166,-2.1326,-2.1471,-2.1698,-2.1793,-2.1888,-2.2091,-2.2184,-2.217,-2.217,-2.217,-2.217,-2.2217,-2.217,-2.2231,-2.2263,-2.233,-2.2311,-2.2236,-2.2183,-2.2097,0.2114,0.1602,0.1291,0.0416,-0.0936,-0.1733,-0.2517,-0.3213,-0.36,-0.4028,-0.4486,-0.4483,-0.4813,-0.5279,-0.5528,-0.5811,-0.6121,-0.6626,-0.6965,-0.7315,-0.7538,-0.7544,-0.7413,-0.7217,-0.7098,-0.7042,-0.6939,-0.6968,-0.7106,-0.7139,-0.7306,-0.7568,-0.815,-0.8837,-0.9413,-1.0403,-1.1175,-1.1778,-1.2529,-1.3252,-1.4007,-1.4671,-1.5377,-1.6078,-1.6648,-1.7152,-1.7563,-1.7687,-1.7736,-1.7736,-1.7736,-1.764,-1.7424,-1.7363,-1.7216,-1.6997,-1.6374,-1.5765,-1.5101,-1.4904,-1.4533,-1.4031,-1.402,-1.3879,-1.3621,-1.3362,-1.3389,-1.3631,-1.354,-1.3389,-1.3408,-1.3398,-1.3389,-1.3398,-1.3509,-1.3671,-1.3681,-1.4091,-1.4465,-1.4806,-1.5289,-1.5681,-1.6057,-1.6486,-1.6806,-1.7082,-1.7599,-1.7976,-1.8118,-1.8693,-1.9297,-1.9635,-2.014,-2.0743,-2.117,-2.1375,-2.152,-2.1698,-2.1793,-2.1888,-2.2123,-2.217,-2.217,-2.217,-2.2217,-2.2231,-2.2324,-2.2324,-2.2324,-2.2356,-2.2402,-2.2417,-2.231,-2.2324,-2.2325,0.2678,0.2109,0.1713,0.0864,-0.0193,-0.0966,-0.1737,-0.245,-0.2832,-0.3438,-0.3996,-0.3977,-0.4243,-0.4755,-0.5118,-0.545,-0.5677,-0.6065,-0.6456,-0.6792,-0.7006,-0.7115,-0.6993,-0.7001,-0.6897,-0.6751,-0.6649,-0.6659,-0.6756,-0.6874,-0.7085,-0.7467,-0.8043,-0.862,-0.9302,-1.0233,-1.1015,-1.1578,-1.2421,-1.319,-1.3805,-1.4616,-1.528,-1.5776,-1.6338,-1.6848,-1.7291,-1.7303,-1.7303,-1.7231,-1.7243,-1.7171,-1.6991,-1.6931,-1.6836,-1.6525,-1.5782,-1.5193,-1.4799,-1.4534,-1.4291,-1.4067,-1.402,-1.3879,-1.3563,-1.3314,-1.3218,-1.321,-1.3007,-1.291,-1.2891,-1.2891,-1.2891,-1.2891,-1.2988,-1.3065,-1.3162,-1.3372,-1.3736,-1.4035,-1.4507,-1.4891,-1.5345,-1.584,-1.6262,-1.6517,-1.6955,-1.7359,-1.7567,-1.81,-1.8669,-1.9043,-1.9541,-2.0268,-2.1009,-2.139,-2.1527,-2.1698,-2.1841,-2.1935,-2.2137,-2.217,-2.2217,-2.2263,-2.2278,-2.2324,-2.2417,-2.2463,-2.2463,-2.2569,-2.2615,-2.2601,-2.2586,-2.2646,-2.2646,0.3166,0.245,0.1569,0.0819,0.0064,-0.0579,-0.1351,-0.2049,-0.2447,-0.2921,-0.3297,-0.3461,-0.3643,-0.3952,-0.4607,-0.5036,-0.5136,-0.5588,-0.5917,-0.6063,-0.6341,-0.645,-0.6364,-0.6584,-0.6579,-0.6374,-0.642,-0.6411,-0.644,-0.6436,-0.6652,-0.7139,-0.7503,-0.809,-0.8823,-0.9755,-1.0592,-1.1318,-1.2286,-1.315,-1.3815,-1.4569,-1.5165,-1.5596,-1.573,-1.63,-1.6916,-1.699,-1.6944,-1.6839,-1.6827,-1.6575,-1.6005,-1.5867,-1.5723,-1.5428,-1.5074,-1.4821,-1.4787,-1.4581,-1.4291,-1.4067,-1.402,-1.3821,-1.3467,-1.3314,-1.319,-1.3123,-1.2978,-1.2891,-1.2891,-1.2891,-1.2891,-1.2891,-1.2939,-1.2929,-1.292,-1.3238,-1.3515,-1.381,-1.428,-1.4846,-1.5468,-1.5812,-1.6088,-1.6306,-1.6584,-1.6807,-1.7025,-1.7527,-1.8035,-1.8455,-1.8986,-1.9632,-2.0427,-2.1009,-2.1465,-2.1793,-2.1935,-2.203,-2.2123,-2.2217,-2.2263,-2.231,-2.237,-2.2463,-2.2555,-2.2601,-2.2615,-2.2661,-2.2706,-2.2737,-2.2859,-2.2859,-2.2904,0.3685,0.3065,0.2288,0.1656,0.1097,0.0434,-0.0371,-0.1157,-0.1613,-0.2115,-0.2582,-0.2777,-0.2928,-0.3278,-0.3619,-0.4149,-0.4686,-0.4955,-0.5278,-0.5549,-0.5982,-0.6185,-0.624,-0.6406,-0.6406,-0.625,-0.6185,-0.6059,-0.5891,-0.5891,-0.6055,-0.6436,-0.6912,-0.7498,-0.8143,-0.9079,-0.9909,-1.0677,-1.1994,-1.3205,-1.415,-1.5106,-1.5908,-1.6398,-1.612,-1.6142,-1.6591,-1.6527,-1.6483,-1.6438,-1.6438,-1.6252,-1.5937,-1.5691,-1.5525,-1.5379,-1.5074,-1.4846,-1.4776,-1.4627,-1.4395,-1.4067,-1.402,-1.3821,-1.3457,-1.3266,-1.318,-1.3075,-1.2988,-1.2891,-1.2891,-1.2891,-1.2891,-1.2891,-1.2891,-1.2929,-1.3017,-1.319,-1.3372,-1.3716,-1.4197,-1.48,-1.5255,-1.5603,-1.5869,-1.6132,-1.6362,-1.6577,-1.6774,-1.7123,-1.7496,-1.7845,-1.8457,-1.9071,-1.9364,-2.0407,-2.1142,-2.1688,-2.1996,-2.2091,-2.2184,-2.2278,-2.237,-2.2417,-2.2477,-2.2583,-2.2721,-2.2843,-2.2857,-2.2888,-2.2933,-2.2963,-2.3142,-2.3127,-2.3172,0.4031,0.3527,0.293,0.2437,0.1886,0.1261,0.0479,-0.0295,-0.0781,-0.1329,-0.179,-0.1989,-0.22,-0.2477,-0.2711,-0.3166,-0.3855,-0.4287,-0.4743,-0.5132,-0.5567,-0.5841,-0.6005,-0.6109,-0.6119,-0.595,-0.5782,-0.5559,-0.5399,-0.5289,-0.5399,-0.5668,-0.6091,-0.6519,-0.7052,-0.7729,-0.8875,-1.0725,-1.2148,-1.3624,-1.5465,-1.6535,-1.7167,-1.7464,-1.6995,-1.6612,-1.6607,-1.6491,-1.6405,-1.6374,-1.6331,-1.6175,-1.5988,-1.5736,-1.5558,-1.5457,-1.5142,-1.4926,-1.4822,-1.4684,-1.4441,-1.4067,-1.3973,-1.3821,-1.3409,-1.3266,-1.3132,-1.3075,-1.2988,-1.2891,-1.2891,-1.2891,-1.2891,-1.2891,-1.2891,-1.2929,-1.3036,-1.3104,-1.3286,-1.361,-1.4046,-1.4569,-1.4994,-1.5334,-1.5591,-1.5856,-1.6175,-1.6448,-1.6675,-1.6876,-1.7115,-1.7515,-1.807,-1.8658,-1.9099,-1.9931,-2.0733,-2.1346,-2.1941,-2.2058,-2.2165,-2.2285,-2.242,-2.2495,-2.2615,-2.2735,-2.2872,-2.3052,-2.3127,-2.3171,-2.3157,-2.3187,-2.3319,-2.3392,-2.3451,0.4149,0.394,0.336,0.2919,0.2508,0.1882,0.1118,0.047,-0.0059,-0.0464,-0.0909,-0.1183,-0.1408,-0.1626,-0.1962,-0.2298,-0.2639,-0.3524,-0.4245,-0.4688,-0.5073,-0.5407,-0.5563,-0.5563,-0.5563,-0.5454,-0.512,-0.4842,-0.4791,-0.457,-0.4567,-0.4787,-0.4776,-0.4976,-0.5462,-0.6173,-0.8246,-1.1373,-1.2733,-1.4947,-1.832,-1.8763,-1.8804,-1.8749,-1.8324,-1.7787,-1.7115,-1.7044,-1.6876,-1.6718,-1.6577,-1.6349,-1.6076,-1.5869,-1.5703,-1.5513,-1.5244,-1.504,-1.4822,-1.4673,-1.4452,-1.4114,-1.402,-1.3763,-1.3372,-1.3218,-1.3132,-1.2968,-1.2929,-1.2891,-1.2891,-1.2891,-1.2891,-1.2891,-1.2891,-1.2929,-1.2929,-1.3027,-1.321,-1.3525,-1.3858,-1.4161,-1.4581,-1.4971,-1.5322,-1.5635,-1.6044,-1.6448,-1.6675,-1.6876,-1.7212,-1.7597,-1.7991,-1.848,-1.8947,-1.9529,-2.0231,-2.095,-2.1617,-2.2002,-2.2036,-2.2126,-2.2345,-2.2448,-2.2799,-2.2933,-2.3037,-2.3201,-2.3275,-2.3319,-2.3348,-2.3451,-2.3538,-2.3668,-2.3754,0.4619,0.4428,0.4122,0.3778,0.3359,0.2907,0.2322,0.1593,0.1024,0.0508,0.0,-0.028,-0.0561,-0.0784,-0.1064,-0.1232,-0.1454,-0.2235,-0.3072,-0.3962,-0.4519,-0.4849,-0.4963,-0.5066,-0.4956,-0.4622,-0.4233,-0.3956,-0.3788,-0.3456,-0.3289,-0.3231,-0.3164,-0.3157,-0.3773,-0.6646,-0.9509,-1.1087,-1.4959,-1.7849,-1.9326,-1.983,-2.0044,-1.9928,-1.9531,-1.897,-1.8391,-1.7693,-1.7282,-1.7212,-1.6947,-1.6693,-1.6306,-1.5969,-1.5691,-1.5501,-1.5345,-1.5085,-1.4868,-1.4776,-1.4581,-1.4244,-1.4057,-1.381,-1.3515,-1.3314,-1.319,-1.3027,-1.2978,-1.2891,-1.2891,-1.2891,-1.2891,-1.2891,-1.2891,-1.2891,-1.2929,-1.2978,-1.321,-1.342,-1.3515,-1.381,-1.4233,-1.464,-1.4971,-1.539,-1.5824,-1.6219,-1.6534,-1.6989,-1.7323,-1.7679,-1.803,-1.8388,-1.8852,-1.9347,-1.9967,-2.0512,-2.1141,-2.1685,-2.1743,-2.1902,-2.2134,-2.2497,-2.2819,-2.3127,-2.3231,-2.3363,-2.348,-2.3581,-2.3668,-2.3754,-2.3839,-2.3882,-2.3967,0.5179,0.4974,0.4787,0.4435,0.4086,0.3775,0.3192,0.2519,0.2012,0.151,0.0952,0.0616,0.0392,0.0168,-0.0056,-0.0224,-0.0391,-0.095,-0.1675,-0.2621,-0.3735,-0.4125,-0.4187,-0.4239,-0.4067,-0.368,-0.3294,-0.3012,-0.2788,-0.2287,-0.1898,-0.1666,-0.3131,-0.4029,-0.4397,-0.8609,-1.1762,-1.3906,-1.706,-1.9619,-2.1011,-2.1481,-2.1425,-2.111,-2.0556,-1.9997,-1.9462,-1.8674,-1.8054,-1.772,-1.7378,-1.696,-1.6522,-1.6219,-1.5913,-1.5647,-1.548,-1.53,-1.4949,-1.4914,-1.4719,-1.4373,-1.4197,-1.3962,-1.3658,-1.342,-1.3286,-1.3123,-1.3027,-1.2929,-1.2929,-1.2891,-1.2891,-1.2891,-1.2891,-1.2891,-1.2929,-1.2978,-1.3113,-1.3238,-1.3314,-1.36,-1.3941,-1.4373,-1.4754,-1.5165,-1.5691,-1.612,-1.6509,-1.7018,-1.7406,-1.7774,-1.8228,-1.8503,-1.8774,-1.9209,-1.9691,-2.0157,-2.0596,-2.1034,-2.1309,-2.1538,-2.1783,-2.2409,-2.2834,-2.3289,-2.3451,-2.3625,-2.3754,-2.3839,-2.394,-2.3967,-2.4009,-2.4094,-2.4135,0.5778,0.5622,0.5289,0.5026,0.4739,0.4415,0.3913,0.3241,0.2905,0.2458,0.1956,0.1621,0.1341,0.1174,0.1005,0.0894,0.0726,0.0335,-0.0112,-0.0781,-0.2004,-0.2954,-0.3241,-0.3074,-0.2903,-0.2681,-0.2237,-0.1899,-0.1561,-0.0948,-0.0666,-0.129,-0.4501,-0.6893,-0.7623,-1.1454,-1.5462,-1.8053,-1.9101,-2.1123,-2.3839,-2.3482,-2.2867,-2.2211,-2.1497,-2.0879,-2.0385,-1.9814,-1.9118,-1.8347,-1.7747,-1.7295,-1.682,-1.6565,-1.6262,-1.5869,-1.576,-1.5525,-1.5244,-1.5153,-1.4926,-1.4512,-1.4419,-1.4186,-1.381,-1.3668,-1.3488,-1.321,-1.3172,-1.3065,-1.2978,-1.2929,-1.2929,-1.2929,-1.2929,-1.2939,-1.2891,-1.2939,-1.3027,-1.3113,-1.319,-1.3362,-1.381,-1.4291,-1.4708,-1.5153,-1.5635,-1.612,-1.6552,-1.706,-1.7544,-1.8002,-1.845,-1.8798,-1.9064,-1.9383,-1.9834,-2.0035,-2.0368,-2.0572,-2.0921,-2.1112,-2.1765,-2.234,-2.2869,-2.3298,-2.3696,-2.3882,-2.4009,-2.4109,-2.4151,-2.4135,-2.4219,-2.4261,-2.4343,0.6317,0.6046,0.5941,0.5773,0.5504,0.5285,0.4901,0.4401,0.3956,0.3566,0.3125,0.2792,0.2514,0.2289,0.2345,0.2289,0.212,0.1896,0.1507,0.1006,0.0223,-0.1059,-0.1956,-0.19,-0.162,-0.1397,-0.0949,-0.0447,0.0056,0.0221,-0.095,-0.3729,-0.5219,-0.737,-1.0378,-1.489,-1.7326,-1.8967,-2.1972,-2.3429,-2.4145,-2.4044,-2.3556,-2.3028,-2.2371,-2.177,-2.1243,-2.0616,-1.9737,-1.8745,-1.8228,-1.7788,-1.7338,-1.7005,-1.6655,-1.6293,-1.61,-1.5881,-1.5513,-1.5424,-1.5187,-1.4823,-1.4697,-1.4523,-1.4233,-1.401,-1.3773,-1.3536,-1.3382,-1.3286,-1.3142,-1.3142,-1.3142,-1.3084,-1.3055,-1.2978,-1.2929,-1.2988,-1.3085,-1.3133,-1.3248,-1.3525,-1.3915,-1.4337,-1.4811,-1.5255,-1.5724,-1.6207,-1.6723,-1.7256,-1.7787,-1.8266,-1.8669,-1.9049,-1.9398,-1.9669,-1.9893,-2.0031,-2.0182,-2.0222,-2.0467,-2.0639,-2.1594,-2.2546,-2.2903,-2.336,-2.3838,-2.4162,-2.4276,-2.4374,-2.44,-2.4467,-2.4467,-2.4523,-2.4549,0.6815,0.6588,0.6588,0.6485,0.6317,0.6223,0.5891,0.5445,0.5117,0.4618,0.4177,0.3959,0.3735,0.3566,0.3624,0.3624,0.3508,0.3231,0.2899,0.2514,0.1898,0.0669,-0.0447,-0.0559,-0.0223,0.0056,0.0446,-0.0324,-0.1398,-0.1081,-0.3351,-0.7272,-0.9356,-1.1595,-1.4207,-1.8722,-2.1075,-2.153,-2.3702,-2.4798,-2.4594,-2.4229,-2.3862,-2.3414,-2.2898,-2.2351,-2.179,-2.1228,-2.04,-1.9413,-1.8822,-1.8397,-1.7882,-1.753,-1.7146,-1.6769,-1.6595,-1.638,-1.612,-1.5944,-1.5668,-1.54,-1.5198,-1.4926,-1.4697,-1.4477,-1.4197,-1.3999,-1.3763,-1.3621,-1.3467,-1.3467,-1.3505,-1.3552,-1.342,-1.3286,-1.3104,-1.3162,-1.321,-1.3296,-1.3478,-1.3773,-1.415,-1.4569,-1.5017,-1.5513,-1.602,-1.6497,-1.7005,-1.7585,-1.8094,-1.8577,-1.9049,-1.942,-1.9726,-1.999,-2.02,-2.0304,-2.0373,-2.0323,-2.0354,-2.0512,-2.1211,-2.2171,-2.2769,-2.3379,-2.3829,-2.4281,-2.4605,-2.4661,-2.4726,-2.4766,-2.4806,-2.4766,-2.4791,0.7306,0.7139,0.7187,0.7192,0.7139,0.7031,0.6707,0.6372,0.6159,0.5723,0.5226,0.5062,0.4948,0.4889,0.4889,0.4889,0.4835,0.4501,0.4119,0.3427,0.2291,0.059,-0.0376,0.0608,0.1169,0.133,0.1657,-0.0921,-0.3337,-0.4207,-0.7325,-1.1191,-1.5484,-1.7708,-1.8847,-2.2568,-2.4592,-2.4347,-2.4414,-2.4711,-2.4547,-2.4248,-2.3941,-2.361,-2.3159,-2.266,-2.2192,-2.1761,-2.1149,-2.0143,-1.9594,-1.908,-1.8549,-1.8185,-1.7827,-1.7544,-1.7353,-1.716,-1.6909,-1.6642,-1.6343,-1.6139,-1.5844,-1.5501,-1.5277,-1.5006,-1.4823,-1.4547,-1.4291,-1.414,-1.4046,-1.3999,-1.4071,-1.4165,-1.4165,-1.3941,-1.3589,-1.3505,-1.3515,-1.3552,-1.3905,-1.4244,-1.4558,-1.496,-1.5501,-1.6107,-1.6527,-1.6993,-1.7489,-1.8014,-1.8511,-1.9006,-1.9442,-1.9833,-2.0096,-2.032,-2.0475,-2.0595,-2.0744,-2.0744,-2.0673,-2.0798,-2.1064,-2.1605,-2.2319,-2.3086,-2.3748,-2.4226,-2.4634,-2.4942,-2.5005,-2.5045,-2.5084,-2.5045,-2.5045,0.7842,0.7563,0.7717,0.7711,0.7711,0.7563,0.7456,0.7343,0.7031,0.6696,0.6421,0.6213,0.5991,0.5878,0.6041,0.6095,0.5801,0.5504,0.5542,0.4219,-0.0198,-0.1823,-0.1761,0.0104,0.2093,0.1613,-0.1196,-0.3067,-0.4377,-0.7992,-1.1388,-1.5762,-1.74,-1.9349,-2.2848,-2.3785,-2.4821,-2.4745,-2.4663,-2.4599,-2.4481,-2.4248,-2.3999,-2.3756,-2.3376,-2.3035,-2.273,-2.2473,-2.2119,-2.1592,-2.0814,-2.0078,-1.96,-1.9273,-1.8925,-1.8507,-1.8327,-1.8092,-1.7733,-1.7572,-1.7286,-1.6954,-1.6756,-1.6471,-1.594,-1.58,-1.5579,-1.5266,-1.5085,-1.4994,-1.4903,-1.4949,-1.5028,-1.5028,-1.5085,-1.5142,-1.4983,-1.4571,-1.4305,-1.4479,-1.4766,-1.5142,-1.5433,-1.5908,-1.6343,-1.674,-1.716,-1.7544,-1.8054,-1.8549,-1.9043,-1.9558,-1.9914,-2.0308,-2.046,-2.0677,-2.0827,-2.0958,-2.1087,-2.1167,-2.1054,-2.102,-2.1219,-2.1531,-2.196,-2.2675,-2.346,-2.4084,-2.4531,-2.4866,-2.5224,-2.5278,-2.5317,-2.5317,-2.5317,0.8315,0.8209,0.8196,0.8355,0.8461,0.8309,0.8262,0.8203,0.7883,0.7557,0.7337,0.7074,0.702,0.7015,0.7122,0.7122,0.6231,0.3955,0.2501,0.0631,-0.3605,-0.6185,-0.6079,-0.4413,-0.3047,-0.3324,-0.5308,-0.7386,-1.0035,-1.2234,-1.5978,-2.0438,-2.0654,-2.206,-2.426,-2.4745,-2.4714,-2.4666,-2.4566,-2.4498,-2.4339,-2.421,-2.3998,-2.3813,-2.3526,-2.3313,-2.3126,-2.2985,-2.2816,-2.2502,-2.1938,-2.1225,-2.0602,-2.0268,-1.9928,-1.957,-1.9353,-1.9192,-1.8896,-1.8608,-1.8363,-1.8011,-1.776,-1.7354,-1.697,-1.6799,-1.66,-1.633,-1.6114,-1.5996,-1.5908,-1.5952,-1.6027,-1.6157,-1.6238,-1.6324,-1.6275,-1.5632,-1.5119,-1.5365,-1.5676,-1.6027,-1.6416,-1.687,-1.7244,-1.7653,-1.8025,-1.8444,-1.8841,-1.9325,-1.9687,-2.0124,-2.0431,-2.073,-2.0893,-2.1071,-2.1246,-2.134,-2.1417,-2.1495,-2.1481,-2.142,-2.1375,-2.1649,-2.1888,-2.2322,-2.3031,-2.3677,-2.4442,-2.4871,-2.5179,-2.5422,-2.5584,-2.5621,-2.5621,0.8844,0.8903,0.8784,0.8995,0.9263,0.9008,0.9008,0.9061,0.8685,0.8362,0.809,0.7931,0.7937,0.8031,0.8031,0.7811,0.5069,0.065,-0.2424,-0.3512,-0.8379,-1.051,-1.0869,-1.1538,-1.2215,-1.2289,-1.1411,-1.3258,-1.5591,-1.812,-2.013,-2.3889,-2.4449,-2.4215,-2.4535,-2.4663,-2.465,-2.4566,-2.4498,-2.4393,-2.4229,-2.4114,-2.3955,-2.3765,-2.366,-2.3567,-2.3453,-2.3365,-2.3301,-2.317,-2.3014,-2.2451,-2.1778,-2.1256,-2.0974,-2.0619,-2.0423,-2.0221,-2.0012,-1.9733,-1.9483,-1.9259,-1.8821,-1.844,-1.8182,-1.7892,-1.7693,-1.7518,-1.73,-1.7136,-1.7107,-1.7136,-1.7218,-1.7328,-1.7491,-1.7612,-1.7518,-1.686,-1.6629,-1.6434,-1.676,-1.7094,-1.7423,-1.784,-1.821,-1.8559,-1.8925,-1.928,-1.9707,-2.0054,-2.0364,-2.0632,-2.0975,-2.1134,-2.1309,-2.1371,-2.1526,-2.1617,-2.1721,-2.1797,-2.1811,-2.1738,-2.1636,-2.1595,-2.1858,-2.2329,-2.2899,-2.3731,-2.4388,-2.4835,-2.5327,-2.575,-2.5881,-2.5917,-2.5881,0.951,0.9309,0.9406,0.9629,0.9792,0.9569,0.9621,0.974,0.9316,0.9054,0.8942,0.8745,0.8685,0.8456,0.8718,0.6228,0.1099,-0.4323,-0.738,-0.8518,-1.291,-1.5491,-1.6089,-1.8489,-2.0599,-2.0581,-1.8032,-1.654,-1.8107,-2.0939,-2.2937,-2.4263,-2.4532,-2.4564,-2.4564,-2.4547,-2.4549,-2.4498,-2.4411,-2.4303,-2.419,-2.4094,-2.3955,-2.3825,-2.3768,-2.3747,-2.3743,-2.3664,-2.3606,-2.3584,-2.3522,-2.3346,-2.2968,-2.246,-2.2023,-2.1632,-2.1453,-2.1285,-2.1006,-2.0814,-2.0518,-2.0249,-2.0012,-1.9733,-1.9411,-1.9119,-1.8904,-1.8693,-1.8555,-1.8401,-1.8401,-1.8426,-1.8478,-1.8555,-1.8693,-1.8844,-1.8904,-1.8751,-1.8366,-1.8046,-1.8115,-1.8221,-1.8569,-1.8896,-1.9207,-1.9513,-1.9834,-2.0097,-2.0418,-2.0715,-2.0991,-2.1229,-2.1462,-2.1601,-2.1708,-2.1738,-2.1797,-2.1857,-2.1928,-2.2003,-2.2032,-2.1998,-2.1932,-2.2092,-2.2134,-2.2384,-2.3044,-2.3803,-2.4579,-2.5225,-2.5688,-2.6118,-2.6134,-2.6099,-2.6063,1.0087,1.0043,0.9984,1.0146,1.036,1.0198,1.0249,1.0352,0.994,0.9732,0.9629,0.9332,0.7613,0.5829,0.5088,0.1783,-0.3903,-0.9597,-1.2205,-1.371,-1.7753,-2.0495,-2.0239,-2.3105,-2.3717,-2.3298,-2.1469,-2.0336,-2.0674,-2.2831,-2.4284,-2.4375,-2.4464,-2.4497,-2.4513,-2.4515,-2.4481,-2.4411,-2.4321,-2.4228,-2.4151,-2.4054,-2.3935,-2.3894,-2.3915,-2.3955,-2.3953,-2.3955,-2.3976,-2.3955,-2.3935,-2.3876,-2.3714,-2.3459,-2.3045,-2.2591,-2.238,-2.2235,-2.1984,-2.1828,-2.1622,-2.135,-2.1148,-2.0911,-2.0571,-2.0322,-2.0169,-1.9928,-1.9823,-1.9718,-1.9632,-1.9682,-1.9697,-1.9733,-1.9838,-1.9958,-2.0047,-2.0144,-1.9905,-1.9551,-1.9424,-1.9489,-1.9713,-2.0008,-2.028,-2.0499,-2.0731,-2.091,-2.1134,-2.1306,-2.1538,-2.1705,-2.1869,-2.1945,-2.207,-2.2166,-2.2199,-2.224,-2.2416,-2.2473,-2.2479,-2.2519,-2.2682,-2.2844,-2.2824,-2.2759,-2.3114,-2.3881,-2.473,-2.5597,-2.5997,-2.6314,-2.6347,-2.6329,-2.6241,1.0761,1.082,1.0557,1.071,1.0972,1.082,1.082,1.0922,1.0608,1.0352,1.0151,0.8625,0.5745,0.2252,-0.0882,-0.4325,-0.9213,-1.4573,-1.7019,-1.8077,-2.1092,-2.3522,-2.3391,-2.346,-2.3268,-2.3271,-2.3088,-2.3751,-2.3397,-2.3984,-2.4173,-2.4284,-2.4412,-2.4464,-2.4462,-2.4446,-2.4411,-2.4358,-2.4266,-2.4172,-2.4113,-2.4054,-2.3996,-2.3976,-2.4056,-2.4133,-2.4133,-2.4172,-2.4191,-2.4209,-2.4228,-2.4209,-2.4152,-2.4133,-2.3878,-2.3414,-2.323,-2.3021,-2.2815,-2.2686,-2.2476,-2.2203,-2.2102,-2.1857,-2.1592,-2.1364,-2.1271,-2.1054,-2.099,-2.0911,-2.0831,-2.0814,-2.083,-2.083,-2.0911,-2.1007,-2.1023,-2.1117,-2.1209,-2.0911,-2.0669,-2.0619,-2.0749,-2.0862,-2.107,-2.118,-2.1383,-2.1505,-2.1702,-2.1853,-2.2015,-2.2101,-2.2203,-2.2248,-2.2395,-2.2643,-2.2711,-2.2796,-2.3141,-2.342,-2.3295,-2.3204,-2.3426,-2.3704,-2.3451,-2.3452,-2.3695,-2.4183,-2.5208,-2.5983,-2.632,-2.6539,-2.6623,-2.6572,-2.6486,1.1728,1.1427,1.1368,1.1477,1.1578,1.1427,1.1469,1.1569,1.0973,1.1015,0.9838,0.5363,0.2876,0.0207,-0.7416,-1.1418,-1.4554,-1.8153,-2.0846,-2.1171,-2.2244,-2.2493,-2.1816,-2.1556,-2.2088,-2.24,-2.2554,-2.3094,-2.3619,-2.4001,-2.4208,-2.4228,-2.4284,-2.4339,-2.4339,-2.4339,-2.4284,-2.4247,-2.421,-2.4172,-2.4113,-2.4094,-2.4094,-2.4133,-2.4209,-2.4284,-2.4284,-2.4321,-2.4393,-2.4358,-2.4376,-2.4358,-2.4303,-2.4266,-2.4229,-2.4019,-2.3798,-2.3518,-2.3312,-2.3218,-2.3074,-2.2849,-2.2773,-2.2615,-2.2381,-2.2214,-2.209,-2.2062,-2.2005,-2.1931,-2.1828,-2.1874,-2.1878,-2.182,-2.1774,-2.1849,-2.1907,-2.1832,-2.1977,-2.2017,-2.1678,-2.1562,-2.1595,-2.1702,-2.1823,-2.1924,-2.1994,-2.2124,-2.2226,-2.2315,-2.2343,-2.2398,-2.2681,-2.275,-2.2999,-2.3198,-2.342,-2.3488,-2.3836,-2.4242,-2.4133,-2.4076,-2.4442,-2.4584,-2.4342,-2.4535,-2.5118,-2.5647,-2.609,-2.6349,-2.6673,-2.6825,-2.6959,-2.6842,-2.6725,1.2764,1.2175,1.2135,1.2126,1.2224,1.2126,1.2126,1.1496,0.8419,0.7028,0.6067,0.0888,-0.2979,-0.6562,-1.3995,-1.7346,-1.8559,-2.0664,-2.179,-2.1848,-2.1812,-2.1572,-2.1292,-2.1105,-2.1327,-2.1455,-2.175,-2.2216,-2.2955,-2.3658,-2.3996,-2.4094,-2.4209,-2.4247,-2.421,-2.4229,-2.4229,-2.4192,-2.4191,-2.4172,-2.4171,-2.419,-2.4172,-2.4209,-2.4339,-2.4411,-2.4428,-2.4461,-2.4513,-2.4515,-2.4515,-2.4479,-2.4426,-2.4428,-2.4393,-2.4303,-2.4135,-2.3958,-2.3771,-2.3646,-2.3491,-2.3376,-2.3319,-2.3175,-2.302,-2.291,-2.2815,-2.2747,-2.2764,-2.2712,-2.2634,-2.2607,-2.2527,-2.2517,-2.2473,-2.2473,-2.25,-2.2571,-2.2581,-2.266,-2.2686,-2.2456,-2.2265,-2.2254,-2.2281,-2.2337,-2.2409,-2.2525,-2.2579,-2.2615,-2.2605,-2.2588,-2.2966,-2.3344,-2.3635,-2.3893,-2.4299,-2.4419,-2.4522,-2.4844,-2.4862,-2.4994,-2.5374,-2.5599,-2.5535,-2.5919,-2.6544,-2.645,-2.6287,-2.6614,-2.6992,-2.7057,-2.7105,-2.7055,-2.694,1.3773,1.3152,1.291,1.2822,1.2861,1.2764,1.1909,1.0203,0.622,0.3627,0.1169,-0.3573,-0.906,-1.3725,-1.7673,-1.9547,-2.0492,-2.0817,-2.084,-2.084,-2.0805,-2.0621,-2.0271,-2.0265,-2.0368,-2.0672,-2.0756,-2.1325,-2.2165,-2.2953,-2.3583,-2.3958,-2.4094,-2.4133,-2.4135,-2.4135,-2.4135,-2.4154,-2.419,-2.4191,-2.421,-2.4248,-2.4303,-2.4375,-2.4464,-2.4549,-2.4547,-2.4596,-2.4631,-2.4615,-2.4615,-2.4564,-2.4495,-2.4478,-2.4445,-2.4375,-2.4284,-2.4191,-2.4037,-2.3917,-2.3834,-2.3747,-2.3656,-2.3504,-2.3476,-2.343,-2.3383,-2.3277,-2.3295,-2.3223,-2.3193,-2.3144,-2.3077,-2.3003,-2.2952,-2.2952,-2.2927,-2.2952,-2.2952,-2.296,-2.2985,-2.3003,-2.2859,-2.2799,-2.2773,-2.279,-2.2834,-2.2929,-2.3033,-2.3102,-2.3327,-2.3411,-2.3757,-2.4126,-2.4304,-2.466,-2.5023,-2.5374,-2.5478,-2.5663,-2.5883,-2.6017,-2.6289,-2.6481,-2.6539,-2.6757,-2.7109,-2.673,-2.6402,-2.686,-2.7218,-2.7201,-2.7184,-2.7181,-2.7181,1.4534,1.4441,1.381,1.3467,1.3304,1.3324,1.0455,0.6712,0.5302,0.1316,-0.3661,-0.795,-1.3426,-1.7365,-1.8177,-1.903,-1.971,-1.9835,-1.9856,-1.9858,-1.9805,-1.952,-1.9228,-1.9117,-1.9237,-1.9766,-2.017,-2.0684,-2.1343,-2.256,-2.3229,-2.3806,-2.4032,-2.4034,-2.3981,-2.3928,-2.382,-2.3804,-2.3805,-2.4008,-2.41,-2.4246,-2.4391,-2.4498,-2.4601,-2.4682,-2.4682,-2.4679,-2.4695,-2.4663,-2.4682,-2.4631,-2.4547,-2.4512,-2.4462,-2.4393,-2.4339,-2.4247,-2.4154,-2.4075,-2.3976,-2.3852,-2.3747,-2.3682,-2.3656,-2.3682,-2.366,-2.3616,-2.3594,-2.3589,-2.3544,-2.3539,-2.3471,-2.3383,-2.3271,-2.3265,-2.3241,-2.3217,-2.3241,-2.3265,-2.3265,-2.3241,-2.3193,-2.307,-2.297,-2.2944,-2.3275,-2.3388,-2.3728,-2.3876,-2.4301,-2.4524,-2.4802,-2.5005,-2.5034,-2.5426,-2.5987,-2.6323,-2.6469,-2.6807,-2.715,-2.7262,-2.7093,-2.7186,-2.7245,-2.7442,-2.7552,-2.7282,-2.7152,-2.7269,-2.739,-2.7434,-2.7478,-2.7491,-2.7461,1.4937,1.4983,1.4754,1.4362,1.359,0.9943,0.7443,0.4702,-0.1839,-0.7923,-1.2515,-1.4535,-1.6312,-1.7985,-1.8332,-1.8276,-1.8722,-1.8825,-1.8901,-1.8941,-1.8911,-1.8766,-1.8583,-1.895,-1.9409,-1.9728,-2.0164,-2.0986,-2.1974,-2.2679,-2.3631,-2.423,-2.4205,-2.3994,-2.3905,-2.3596,-2.3179,-2.2813,-2.2849,-2.2993,-2.3578,-2.3722,-2.4029,-2.4599,-2.465,-2.4679,-2.4695,-2.4692,-2.4692,-2.4695,-2.4679,-2.4631,-2.4564,-2.4512,-2.4462,-2.4412,-2.4339,-2.4266,-2.421,-2.4134,-2.4034,-2.3896,-2.3813,-2.3771,-2.3768,-2.3771,-2.3771,-2.3771,-2.375,-2.3725,-2.3739,-2.3718,-2.3656,-2.3611,-2.3567,-2.3539,-2.3494,-2.3448,-2.3401,-2.3383,-2.3383,-2.336,-2.3313,-2.3241,-2.3168,-2.3112,-2.3516,-2.3911,-2.4313,-2.4689,-2.5098,-2.5471,-2.5721,-2.5866,-2.5895,-2.6393,-2.6944,-2.7173,-2.7385,-2.7566,-2.7777,-2.7789,-2.7706,-2.7836,-2.7853,-2.7836,-2.7853,-2.7842,-2.7783,-2.7647,-2.7677,-2.7736,-2.7777,-2.7818,-2.7789,1.5345,1.5402,1.539,1.3936,1.1322,0.7419,0.3896,0.0038,-0.7057,-1.3796,-1.8346,-1.7974,-1.7856,-1.7917,-1.7939,-1.8048,-1.8228,-1.8315,-1.8339,-1.8522,-1.8738,-1.8697,-1.8969,-1.9386,-1.9939,-2.007,-2.0551,-2.1373,-2.2253,-2.3173,-2.4001,-2.4526,-2.4722,-2.4641,-2.414,-2.336,-2.2539,-2.1969,-2.1907,-2.212,-2.281,-2.3247,-2.3556,-2.4273,-2.4492,-2.4679,-2.4695,-2.4676,-2.4695,-2.4679,-2.4647,-2.4631,-2.4564,-2.453,-2.4462,-2.4393,-2.4339,-2.4266,-2.4191,-2.4114,-2.4034,-2.3955,-2.3855,-2.3813,-2.3795,-2.3795,-2.3795,-2.3795,-2.3795,-2.3792,-2.3807,-2.3768,-2.3765,-2.3682,-2.3656,-2.3629,-2.3562,-2.3517,-2.3494,-2.3471,-2.3453,-2.3448,-2.3573,-2.3572,-2.3774,-2.3821,-2.4278,-2.4761,-2.5277,-2.56,-2.5869,-2.6225,-2.6557,-2.6667,-2.6807,-2.711,-2.7379,-2.7537,-2.773,-2.7851,-2.7979,-2.8053,-2.8126,-2.8109,-2.8109,-2.8126,-2.8126,-2.8126,-2.8025,-2.7864,-2.7922,-2.8007,-2.8063,-2.8073,-2.8119,1.5748,1.5703,1.5431,1.1699,0.6349,0.6645,0.0764,-0.7433,-0.9666,-1.2914,-1.7337,-1.7549,-1.7681,-1.7805,-1.7811,-1.7922,-1.8053,-1.8151,-1.8284,-1.8537,-1.8978,-1.9269,-1.9668,-2.009,-2.0627,-2.061,-2.1118,-2.179,-2.2473,-2.3603,-2.4356,-2.5154,-2.5737,-2.5546,-2.499,-2.3614,-2.252,-2.1841,-2.1832,-2.1911,-2.2269,-2.2794,-2.3082,-2.373,-2.4155,-2.4417,-2.4663,-2.4663,-2.4663,-2.4631,-2.4615,-2.4582,-2.453,-2.4497,-2.4428,-2.4303,-2.4303,-2.4266,-2.4209,-2.4056,-2.4016,-2.3976,-2.3876,-2.3795,-2.3795,-2.3795,-2.3813,-2.3813,-2.3813,-2.3813,-2.3813,-2.3792,-2.3789,-2.3747,-2.37,-2.3652,-2.3607,-2.3539,-2.3517,-2.3494,-2.3494,-2.3524,-2.3721,-2.3925,-2.431,-2.4602,-2.5033,-2.5542,-2.6086,-2.6507,-2.6707,-2.6865,-2.7198,-2.728,-2.7397,-2.7566,-2.7811,-2.7968,-2.8081,-2.8146,-2.8228,-2.83,-2.8345,-2.8371,-2.8353,-2.8353,-2.8353,-2.838,-2.8282,-2.8228,-2.8228,-2.8282,-2.8335,-2.8362,-2.8362,1.5881,1.5692,1.1681,0.63,0.0963,0.0521,-0.3593,-0.9777,-1.3034,-1.5573,-1.7076,-1.7455,-1.7542,-1.7635,-1.7726,-1.7794,-1.79,-1.8044,-1.8211,-1.8896,-1.929,-1.9732,-2.0223,-2.0912,-2.1417,-2.1663,-2.206,-2.2876,-2.3927,-2.4682,-2.5643,-2.6519,-2.6568,-2.6053,-2.4652,-2.338,-2.2593,-2.1869,-2.1522,-2.141,-2.1954,-2.2036,-2.2402,-2.3319,-2.3749,-2.4123,-2.4594,-2.4631,-2.4615,-2.4599,-2.4566,-2.4532,-2.4498,-2.4464,-2.4357,-2.4266,-2.4247,-2.4191,-2.4133,-2.4054,-2.3998,-2.3958,-2.3896,-2.3795,-2.3795,-2.3795,-2.3813,-2.381,-2.381,-2.3789,-2.3747,-2.3747,-2.3721,-2.37,-2.3674,-2.3629,-2.3585,-2.3539,-2.3494,-2.3494,-2.3494,-2.3892,-2.4158,-2.4605,-2.4988,-2.5588,-2.6071,-2.6149,-2.6525,-2.7126,-2.7507,-2.7542,-2.773,-2.784,-2.794,-2.8007,-2.8101,-2.8228,-2.8327,-2.8406,-2.8458,-2.8528,-2.8536,-2.8536,-2.8543,-2.8569,-2.8569,-2.8587,-2.8612,-2.8612,-2.8543,-2.8543,-2.8587,-2.8569,-2.8576,1.61,1.5579,0.9749,0.3652,-0.1946,-0.4399,-0.8096,-1.2592,-1.5833,-1.7191,-1.7297,-1.737,-1.7448,-1.7542,-1.7612,-1.7704,-1.7789,-1.7895,-1.8353,-1.911,-1.9602,-2.02,-2.098,-2.1812,-2.2199,-2.2569,-2.3276,-2.4164,-2.504,-2.5953,-2.67,-2.7204,-2.736,-2.6237,-2.4867,-2.3915,-2.2958,-2.2194,-2.1625,-2.1596,-2.1846,-2.1965,-2.2148,-2.3008,-2.355,-2.3758,-2.4321,-2.4564,-2.4564,-2.4568,-2.4534,-2.45,-2.4465,-2.443,-2.4339,-2.4266,-2.4192,-2.4191,-2.4134,-2.4132,-2.4094,-2.4074,-2.3935,-2.3813,-2.3813,-2.3813,-2.381,-2.3807,-2.3807,-2.3768,-2.3747,-2.3725,-2.3743,-2.3721,-2.3718,-2.3674,-2.3629,-2.3585,-2.3562,-2.3562,-2.357,-2.4035,-2.4683,-2.526,-2.5738,-2.6453,-2.7084,-2.7067,-2.7032,-2.7511,-2.7957,-2.7986,-2.8042,-2.8109,-2.8191,-2.8246,-2.8335,-2.8484,-2.8562,-2.8612,-2.8637,-2.8662,-2.8687,-2.8687,-2.8712,-2.8694,-2.8761,-2.8785,-2.8785,-2.8785,-2.8767,-2.8785,-2.8828,-2.8761,-2.8718,1.6299,1.5246,0.9694,0.3293,-0.2674,-0.8352,-1.3291,-1.7496,-1.7213,-1.7108,-1.7108,-1.7322,-1.7378,-1.7401,-1.7465,-1.7582,-1.7765,-1.7811,-1.8585,-1.9352,-2.0274,-2.1059,-2.1977,-2.2797,-2.3298,-2.359,-2.4155,-2.5066,-2.595,-2.6669,-2.732,-2.747,-2.7126,-2.6234,-2.5354,-2.4617,-2.3654,-2.2815,-2.2256,-2.2229,-2.2327,-2.2122,-2.2492,-2.3123,-2.3459,-2.3817,-2.4267,-2.453,-2.4532,-2.4517,-2.4518,-2.4518,-2.4518,-2.45,-2.4411,-2.4321,-2.4247,-2.4229,-2.421,-2.4171,-2.419,-2.4151,-2.3976,-2.3873,-2.3831,-2.3834,-2.3831,-2.3831,-2.3831,-2.3813,-2.3795,-2.3792,-2.3789,-2.3786,-2.3783,-2.3761,-2.3718,-2.3674,-2.3634,-2.3629,-2.3585,-2.4052,-2.508,-2.5773,-2.6215,-2.7101,-2.7649,-2.7723,-2.7688,-2.7751,-2.8109,-2.8154,-2.8219,-2.8327,-2.8406,-2.8458,-2.8562,-2.8662,-2.8712,-2.8761,-2.8785,-2.8828,-2.8828,-2.8852,-2.8828,-2.8852,-2.8858,-2.8881,-2.8905,-2.8905,-2.8839,-2.8858,-2.8852,-2.8828,-2.8761,1.4101,0.9736,0.3721,-0.2473,-0.856,-1.3873,-1.7105,-1.8237,-1.7455,-1.7007,-1.7108,-1.7199,-1.7273,-1.7257,-1.7321,-1.7417,-1.7695,-1.8224,-1.9403,-2.0357,-2.1353,-2.2763,-2.3736,-2.4339,-2.4699,-2.4943,-2.5379,-2.5915,-2.668,-2.7381,-2.7588,-2.7717,-2.6938,-2.6261,-2.5727,-2.5375,-2.4519,-2.3793,-2.3161,-2.3007,-2.2775,-2.2492,-2.2884,-2.3254,-2.3422,-2.3836,-2.4309,-2.4495,-2.4497,-2.4517,-2.4465,-2.443,-2.443,-2.4375,-2.4303,-2.4303,-2.4284,-2.4248,-2.421,-2.421,-2.4209,-2.4209,-2.4113,-2.4036,-2.3955,-2.3915,-2.3894,-2.3894,-2.3876,-2.3896,-2.3876,-2.3876,-2.3873,-2.3871,-2.3868,-2.3847,-2.3804,-2.3765,-2.3721,-2.3696,-2.3674,-2.4349,-2.5379,-2.5938,-2.6445,-2.7522,-2.8144,-2.8209,-2.8237,-2.8246,-2.8273,-2.83,-2.838,-2.8484,-2.8587,-2.8662,-2.8737,-2.8834,-2.8858,-2.8881,-2.8905,-2.8923,-2.8947,-2.8947,-2.8905,-2.8923,-2.897,-2.897,-2.8905,-2.8881,-2.8839,-2.8858,-2.8858,-2.8828,-2.8761,1.3147,0.7291,0.123,-0.6192,-1.373,-1.6836,-1.8064,-1.7993,-1.7252,-1.693,-1.6991,-1.7108,-1.7174,-1.7199,-1.7306,-1.7419,-1.7493,-1.8676,-1.9866,-2.0931,-2.247,-2.3695,-2.4788,-2.54,-2.5473,-2.5824,-2.6254,-2.6666,-2.7242,-2.7497,-2.7699,-2.6829,-2.6409,-2.5912,-2.5356,-2.5039,-2.4907,-2.4422,-2.4066,-2.3859,-2.3465,-2.3048,-2.3238,-2.359,-2.3643,-2.3892,-2.4402,-2.4512,-2.4497,-2.4498,-2.4465,-2.4466,-2.4447,-2.4393,-2.4375,-2.4393,-2.4393,-2.4357,-2.4339,-2.4303,-2.4284,-2.4247,-2.4228,-2.4153,-2.4114,-2.4056,-2.4016,-2.3996,-2.3996,-2.3976,-2.3958,-2.3955,-2.3974,-2.3971,-2.3951,-2.393,-2.3891,-2.3831,-2.3807,-2.3801,-2.4163,-2.4771,-2.5403,-2.5947,-2.6662,-2.7736,-2.8345,-2.8432,-2.8458,-2.844,-2.8466,-2.8492,-2.8569,-2.8644,-2.8761,-2.8828,-2.8858,-2.8905,-2.8929,-2.8952,-2.8975,-2.8994,-2.8994,-2.897,-2.8952,-2.8952,-2.8947,-2.8905,-2.8858,-2.8834,-2.8791,-2.8785,-2.8785,-2.8761,-2.8737,1.2425,0.6272,0.0117,-0.9141,-1.7837,-1.7639,-1.7281,-1.727,-1.6907,-1.6785,-1.6837,-1.6991,-1.7083,-1.7108,-1.7232,-1.7371,-1.7939,-1.9059,-2.0384,-2.1288,-2.3289,-2.4695,-2.5453,-2.5665,-2.6278,-2.6504,-2.6817,-2.7392,-2.7469,-2.7343,-2.6663,-2.5616,-2.5579,-2.5262,-2.4797,-2.4739,-2.4644,-2.4549,-2.4437,-2.4344,-2.423,-2.3931,-2.3742,-2.4279,-2.4108,-2.3902,-2.4393,-2.4564,-2.4512,-2.4513,-2.4515,-2.4517,-2.4517,-2.4481,-2.4481,-2.45,-2.4481,-2.4481,-2.4464,-2.4429,-2.4411,-2.4375,-2.4321,-2.4303,-2.4284,-2.4191,-2.4134,-2.4153,-2.4153,-2.4154,-2.4154,-2.4154,-2.4153,-2.4133,-2.4112,-2.4054,-2.3994,-2.3935,-2.3894,-2.3976,-2.44,-2.5031,-2.5763,-2.6339,-2.7144,-2.8116,-2.851,-2.8612,-2.8644,-2.8619,-2.8644,-2.8669,-2.8718,-2.8767,-2.8858,-2.8905,-2.8929,-2.8952,-2.8975,-2.8975,-2.8975,-2.8994,-2.8994,-2.8952,-2.8905,-2.8905,-2.8881,-2.8834,-2.881,-2.8785,-2.8761,-2.8712,-2.8712,-2.8694,-2.8694,0.6557,0.0079,-1.0199,-1.5946,-1.7332,-1.7287,-1.6943,-1.6576,-1.6611,-1.6596,-1.6675,-1.6879,-1.6998,-1.7007,-1.7199,-1.7314,-1.7873,-1.9701,-2.1038,-2.2542,-2.4286,-2.5749,-2.6807,-2.7017,-2.7424,-2.7807,-2.807,-2.7846,-2.7387,-2.6714,-2.6078,-2.556,-2.5243,-2.4718,-2.4568,-2.4566,-2.4582,-2.4711,-2.4765,-2.4837,-2.4816,-2.4645,-2.4526,-2.4657,-2.4448,-2.4432,-2.4735,-2.4666,-2.4615,-2.4599,-2.4582,-2.4582,-2.4564,-2.453,-2.4549,-2.4566,-2.4584,-2.4584,-2.4584,-2.4549,-2.4532,-2.4532,-2.4515,-2.4532,-2.4462,-2.4339,-2.4284,-2.4321,-2.4321,-2.4338,-2.4338,-2.4338,-2.4321,-2.4284,-2.4284,-2.4209,-2.415,-2.4109,-2.403,-2.4408,-2.4762,-2.5425,-2.6175,-2.6922,-2.7731,-2.8245,-2.8585,-2.8743,-2.8791,-2.8791,-2.881,-2.8815,-2.8839,-2.8887,-2.8952,-2.897,-2.897,-2.8952,-2.8975,-2.8975,-2.8975,-2.8952,-2.8905,-2.8858,-2.8834,-2.8834,-2.8834,-2.8785,-2.8737,-2.8737,-2.8737,-2.8712,-2.8687,-2.8712,-2.8662,0.4427,-0.2333,-1.3471,-1.7749,-1.7015,-1.6769,-1.6489,-1.628,-1.6367,-1.6474,-1.6559,-1.6801,-1.6962,-1.6956,-1.7158,-1.7568,-1.8203,-2.0421,-2.1866,-2.3403,-2.5222,-2.6683,-2.7607,-2.8007,-2.8174,-2.8456,-2.8227,-2.7812,-2.6875,-2.628,-2.5634,-2.5224,-2.4717,-2.4601,-2.4634,-2.4669,-2.4926,-2.522,-2.5255,-2.544,-2.5512,-2.5268,-2.5095,-2.5092,-2.5054,-2.5039,-2.5114,-2.5042,-2.4714,-2.4647,-2.4631,-2.4599,-2.4599,-2.4599,-2.4615,-2.465,-2.465,-2.465,-2.465,-2.4615,-2.4615,-2.4615,-2.4599,-2.4564,-2.453,-2.4428,-2.4464,-2.4481,-2.4445,-2.4426,-2.4426,-2.4426,-2.4428,-2.4393,-2.445,-2.4432,-2.4652,-2.485,-2.5086,-2.5557,-2.5987,-2.65,-2.7162,-2.7671,-2.8337,-2.8512,-2.8797,-2.8858,-2.8887,-2.8929,-2.8929,-2.8929,-2.8929,-2.8929,-2.8975,-2.8994,-2.8994,-2.8994,-2.8952,-2.8929,-2.8905,-2.8881,-2.8834,-2.881,-2.8828,-2.8828,-2.8785,-2.8761,-2.8743,-2.8761,-2.8737,-2.8712,-2.8712,-2.8712,-2.8712,0.2561,-0.4522,-1.3865,-1.7462,-1.6864,-1.6393,-1.6131,-1.6166,-1.6452,-1.6581,-1.6714,-1.7093,-1.7129,-1.7065,-1.7232,-1.7914,-1.9093,-2.1046,-2.253,-2.407,-2.6229,-2.7262,-2.7805,-2.8174,-2.8332,-2.8209,-2.7907,-2.6914,-2.5855,-2.5449,-2.5147,-2.4711,-2.4741,-2.4832,-2.4879,-2.5136,-2.5546,-2.6045,-2.6321,-2.6601,-2.6343,-2.5935,-2.5894,-2.5778,-2.5646,-2.5552,-2.568,-2.5514,-2.4998,-2.4726,-2.466,-2.4629,-2.4631,-2.4666,-2.4663,-2.4663,-2.4679,-2.4698,-2.4682,-2.4647,-2.4631,-2.4631,-2.4596,-2.4596,-2.4564,-2.458,-2.4615,-2.4615,-2.4564,-2.4547,-2.4547,-2.453,-2.4513,-2.4498,-2.454,-2.4727,-2.5096,-2.5425,-2.5921,-2.6452,-2.701,-2.7488,-2.7866,-2.8377,-2.8693,-2.8868,-2.8929,-2.8952,-2.8952,-2.8952,-2.897,-2.8929,-2.8929,-2.8952,-2.8975,-2.8975,-2.897,-2.8929,-2.8887,-2.8858,-2.8834,-2.8858,-2.8858,-2.8828,-2.8804,-2.8828,-2.8804,-2.8804,-2.8785,-2.881,-2.8761,-2.8755,-2.8761,-2.8785,-2.8828,-0.5617,-1.5505,-1.7788,-1.7882,-1.6985,-1.6834,-1.6543,-1.6276,-1.6993,-1.7324,-1.7562,-1.8127,-1.8134,-1.7014,-1.7216,-1.7996,-1.9546,-2.1535,-2.2853,-2.4164,-2.6574,-2.756,-2.8063,-2.8344,-2.8221,-2.7954,-2.749,-2.6541,-2.582,-2.524,-2.4858,-2.4789,-2.5568,-2.5785,-2.5944,-2.6276,-2.6779,-2.7131,-2.7203,-2.7407,-2.743,-2.7153,-2.7066,-2.7025,-2.7006,-2.6556,-2.6254,-2.5978,-2.5435,-2.5009,-2.4723,-2.4692,-2.4676,-2.4695,-2.4695,-2.4726,-2.4707,-2.4707,-2.4692,-2.4692,-2.4676,-2.4676,-2.4676,-2.4676,-2.466,-2.4676,-2.4692,-2.4726,-2.4695,-2.4647,-2.4647,-2.4666,-2.465,-2.4549,-2.4554,-2.5022,-2.5449,-2.5706,-2.6035,-2.6751,-2.7463,-2.7746,-2.7944,-2.8439,-2.8855,-2.8994,-2.8952,-2.8975,-2.8952,-2.897,-2.8994,-2.897,-2.8929,-2.8929,-2.8929,-2.8929,-2.8905,-2.8863,-2.8839,-2.8858,-2.8858,-2.8881,-2.8881,-2.8834,-2.881,-2.8834,-2.881,-2.8876,-2.8858,-2.8881,-2.881,-2.8804,-2.8852,-2.8905,-2.8952]}]]